[[{"header":{"parameterUnit":"m.s-1","parameterCategory":1,"la1":30.6,"la2":29.2853,"lo1":-89.7004,"lo2":-87.6739,"dy":0.0162,"dx":0.0183,"nx":112,"ny":82,"refTime":"2023-03-17T00:00:00:Z","depth":0,"parameterNumber":2,"parameterNumberName":"U-component_of_WINDS"},"data":[0.0,0.0,0.0,0.0,0.0,0.0,0.0,0.0,0.0,0.0,0.0,0.0,0.0,0.0,0.0,0.0,0.0,0.0,0.0,0.0,0.0,0.0,0.0,0.0,0.0,0.0,0.0,0.0,0.0,0.0,0.0,0.0,0.0,0.0,0.0,0.0,0.0,0.0,0.0,0.0,0.0,0.0,0.0,0.0,0.0,0.0,0.0,0.0,0.0,0.0,0.0,0.0,0.0,0.0,0.0,0.0,0.0,0.0,0.0,0.0,0.0,0.0,0.0,0.0,0.0,0.0,0.0,0.0,0.0,0.0,0.0,0.0,0.0,0.0,0.0,0.0,0.0,0.0,0.0,0.0,0.0,0.0,0.0,0.0,0.0,0.0,0.0,0.0,0.0,0.0,0.0,5.5954,5.5975,5.6008,5.6008,5.6008,5.6008,5.6008,0.0,0.0,0.0,0.0,0.0,0.0,0.0,0.0,0.0,0.0,0.0,0.0,0.0,0.0,0.0,0.0,0.0,0.0,0.0,0.0,0.0,0.0,0.0,0.0,0.0,0.0,0.0,0.0,0.0,0.0,0.0,0.0,0.0,0.0,0.0,0.0,0.0,0.0,0.0,0.0,0.0,0.0,0.0,0.0,0.0,0.0,0.0,0.0,0.0,0.0,0.0,0.0,0.0,0.0,0.0,0.0,0.0,0.0,0.0,0.0,0.0,0.0,0.0,0.0,0.0,0.0,0.0,0.0,0.0,0.0,0.0,0.0,0.0,0.0,0.0,0.0,0.0,0.0,0.0,0.0,0.0,0.0,0.0,0.0,0.0,0.0,0.0,0.0,0.0,0.0,0.0,0.0,0.0,0.0,0.0,0.0,0.0,0.0,0.0,0.0,0.0,0.0,0.0,0.0,5.5892,5.5907,5.5955,5.6008,5.6008,5.6008,5.6008,5.6008,0.0,0.0,0.0,0.0,0.0,0.0,0.0,0.0,0.0,0.0,0.0,0.0,0.0,0.0,0.0,0.0,0.0,0.0,0.0,0.0,0.0,0.0,0.0,0.0,0.0,0.0,0.0,0.0,0.0,0.0,0.0,0.0,0.0,0.0,0.0,0.0,0.0,0.0,0.0,0.0,0.0,0.0,0.0,0.0,0.0,0.0,0.0,0.0,0.0,0.0,0.0,0.0,0.0,0.0,0.0,0.0,0.0,0.0,0.0,0.0,0.0,0.0,0.0,0.0,0.0,0.0,0.0,0.0,0.0,0.0,0.0,0.0,0.0,0.0,0.0,0.0,0.0,0.0,0.0,0.0,0.0,0.0,0.0,0.0,0.0,0.0,0.0,0.0,0.0,0.0,0.0,0.0,0.0,0.0,0.0,0.0,0.0,0.0,0.0,0.0,0.0,0.0,0.0,5.5897,5.5897,5.5897,5.5966,5.6018,5.6005,5.6008,5.6008,5.6008,5.6008,0.0,0.0,0.0,0.0,0.0,0.0,0.0,0.0,0.0,0.0,0.0,0.0,0.0,0.0,0.0,0.0,0.0,0.0,0.0,0.0,0.0,0.0,0.0,0.0,0.0,0.0,0.0,0.0,0.0,0.0,0.0,0.0,0.0,0.0,0.0,0.0,0.0,0.0,0.0,0.0,0.0,0.0,0.0,0.0,0.0,0.0,0.0,0.0,0.0,0.0,0.0,0.0,0.0,0.0,0.0,0.0,0.0,0.0,0.0,0.0,0.0,0.0,0.0,0.0,0.0,0.0,0.0,0.0,0.0,0.0,0.0,0.0,0.0,0.0,0.0,0.0,0.0,0.0,0.0,0.0,0.0,0.0,0.0,0.0,0.0,0.0,0.0,0.0,0.0,0.0,0.0,0.0,0.0,0.0,0.0,0.0,0.0,0.0,0.0,0.0,0.0,0.0,5.5868,5.5885,5.5897,5.5945,5.5996,5.6003,5.6008,5.6008,5.6008,5.6008,0.0,0.0,0.0,0.0,0.0,0.0,0.0,0.0,0.0,0.0,0.0,0.0,0.0,0.0,0.0,0.0,0.0,0.0,0.0,0.0,0.0,0.0,0.0,0.0,0.0,0.0,0.0,0.0,0.0,0.0,0.0,0.0,0.0,0.0,0.0,0.0,0.0,0.0,0.0,0.0,0.0,0.0,0.0,0.0,0.0,0.0,0.0,0.0,0.0,0.0,0.0,0.0,0.0,0.0,0.0,0.0,0.0,0.0,0.0,0.0,0.0,0.0,0.0,0.0,0.0,0.0,0.0,0.0,0.0,0.0,0.0,0.0,0.0,0.0,0.0,0.0,0.0,0.0,0.0,0.0,0.0,0.0,0.0,0.0,0.0,0.0,0.0,0.0,0.0,0.0,0.0,0.0,0.0,0.0,0.0,0.0,0.0,0.0,0.0,0.0,0.0,0.0,5.5822,5.5814,5.5892,5.5945,5.5996,5.6003,5.6008,5.6008,5.6008,5.6008,0.0,0.0,0.0,0.0,0.0,0.0,0.0,0.0,0.0,0.0,0.0,0.0,0.0,0.0,0.0,0.0,0.0,0.0,0.0,0.0,0.0,0.0,0.0,0.0,0.0,0.0,0.0,0.0,0.0,0.0,0.0,0.0,0.0,0.0,0.0,0.0,0.0,0.0,0.0,0.0,0.0,0.0,0.0,0.0,0.0,0.0,0.0,0.0,0.0,0.0,0.0,0.0,0.0,0.0,0.0,0.0,0.0,0.0,0.0,0.0,0.0,0.0,0.0,0.0,0.0,0.0,0.0,0.0,0.0,0.0,0.0,0.0,0.0,0.0,0.0,0.0,0.0,0.0,0.0,0.0,0.0,0.0,0.0,0.0,0.0,0.0,0.0,0.0,0.0,0.0,0.0,0.0,0.0,0.0,0.0,0.0,0.0,0.0,0.0,0.0,0.0,0.0,5.5883,5.588,0.0,5.5945,5.5996,5.6003,5.6008,5.6008,5.6008,0.0,0.0,0.0,0.0,0.0,0.0,0.0,0.0,0.0,0.0,0.0,0.0,0.0,0.0,0.0,0.0,0.0,0.0,0.0,0.0,0.0,0.0,0.0,0.0,0.0,0.0,0.0,0.0,0.0,0.0,0.0,0.0,0.0,0.0,0.0,0.0,0.0,0.0,0.0,0.0,0.0,0.0,0.0,0.0,0.0,0.0,0.0,0.0,0.0,0.0,0.0,0.0,0.0,0.0,0.0,0.0,0.0,0.0,0.0,0.0,0.0,0.0,0.0,0.0,0.0,0.0,0.0,0.0,0.0,0.0,0.0,0.0,0.0,0.0,0.0,0.0,0.0,0.0,0.0,0.0,0.0,0.0,0.0,0.0,0.0,0.0,0.0,0.0,0.0,0.0,0.0,0.0,0.0,0.0,0.0,0.0,0.0,0.0,0.0,0.0,0.0,0.0,5.5902,5.5885,5.5883,0.0,5.5945,5.5996,5.6003,5.6008,5.6008,5.6008,0.0,0.0,0.0,0.0,0.0,0.0,0.0,0.0,0.0,0.0,0.0,0.0,0.0,0.0,0.0,0.0,0.0,0.0,0.0,0.0,0.0,0.0,0.0,0.0,0.0,0.0,0.0,0.0,0.0,0.0,0.0,0.0,0.0,0.0,0.0,0.0,0.0,0.0,0.0,0.0,0.0,0.0,0.0,0.0,0.0,0.0,0.0,0.0,0.0,0.0,0.0,0.0,0.0,0.0,0.0,0.0,0.0,0.0,0.0,0.0,0.0,0.0,0.0,0.0,0.0,0.0,0.0,0.0,0.0,0.0,0.0,0.0,0.0,0.0,0.0,0.0,0.0,0.0,0.0,0.0,0.0,0.0,0.0,0.0,0.0,0.0,0.0,0.0,0.0,0.0,0.0,0.0,0.0,0.0,0.0,0.0,0.0,0.0,0.0,0.0,0.0,0.0,5.5897,5.5858,5.5848,5.5892,5.5945,5.5996,5.6003,5.6008,5.6008,0.0,0.0,0.0,0.0,0.0,0.0,0.0,0.0,0.0,0.0,0.0,0.0,0.0,0.0,0.0,0.0,0.0,0.0,0.0,0.0,0.0,0.0,0.0,0.0,0.0,0.0,0.0,0.0,0.0,0.0,0.0,0.0,0.0,0.0,0.0,0.0,0.0,0.0,0.0,0.0,0.0,0.0,0.0,0.0,0.0,0.0,0.0,0.0,0.0,0.0,0.0,0.0,0.0,0.0,0.0,0.0,0.0,0.0,0.0,0.0,0.0,0.0,0.0,0.0,0.0,0.0,0.0,0.0,0.0,0.0,0.0,0.0,0.0,0.0,0.0,0.0,0.0,0.0,0.0,0.0,0.0,0.0,0.0,0.0,0.0,0.0,0.0,0.0,0.0,0.0,0.0,0.0,0.0,0.0,0.0,0.0,0.0,0.0,0.0,0.0,0.0,0.0,0.0,5.5897,5.5858,5.5848,5.5892,5.5945,5.5996,5.6003,5.6008,5.6008,5.6008,0.0,0.0,0.0,0.0,0.0,0.0,0.0,0.0,0.0,0.0,0.0,0.0,0.0,0.0,0.0,0.0,0.0,0.0,0.0,0.0,0.0,0.0,0.0,0.0,0.0,0.0,0.0,0.0,0.0,0.0,0.0,0.0,0.0,0.0,0.0,0.0,0.0,0.0,0.0,0.0,0.0,0.0,0.0,0.0,0.0,0.0,0.0,0.0,0.0,0.0,0.0,0.0,0.0,0.0,0.0,0.0,0.0,0.0,0.0,0.0,0.0,0.0,0.0,0.0,0.0,0.0,0.0,0.0,0.0,0.0,0.0,0.0,0.0,0.0,0.0,0.0,0.0,0.0,0.0,0.0,0.0,0.0,0.0,0.0,0.0,0.0,0.0,0.0,0.0,0.0,0.0,0.0,0.0,0.0,0.0,0.0,0.0,0.0,0.0,0.0,0.0,0.0,5.5873,5.5809,5.5848,5.5892,5.5945,5.5996,5.6003,5.6008,5.6008,5.6008,0.0,0.0,0.0,0.0,0.0,0.0,0.0,0.0,0.0,0.0,0.0,0.0,0.0,0.0,0.0,0.0,0.0,0.0,0.0,0.0,0.0,0.0,0.0,0.0,0.0,0.0,0.0,0.0,0.0,0.0,0.0,0.0,0.0,0.0,0.0,0.0,0.0,0.0,0.0,0.0,0.0,0.0,0.0,0.0,0.0,0.0,0.0,0.0,0.0,0.0,0.0,0.0,0.0,0.0,0.0,0.0,0.0,0.0,0.0,0.0,0.0,0.0,0.0,0.0,0.0,0.0,0.0,0.0,0.0,0.0,0.0,0.0,0.0,0.0,0.0,0.0,0.0,0.0,0.0,0.0,0.0,0.0,0.0,0.0,0.0,0.0,0.0,0.0,0.0,0.0,0.0,0.0,0.0,0.0,0.0,0.0,0.0,0.0,0.0,0.0,0.0,0.0,5.5797,5.5789,5.5804,5.5892,5.594,5.5989,5.6003,5.6008,5.6008,5.6008,0.0,0.0,0.0,0.0,0.0,0.0,0.0,0.0,0.0,0.0,0.0,0.0,0.0,0.0,0.0,0.0,0.0,0.0,0.0,0.0,0.0,0.0,0.0,0.0,0.0,0.0,0.0,0.0,0.0,0.0,0.0,0.0,0.0,0.0,0.0,0.0,0.0,0.0,0.0,0.0,0.0,0.0,0.0,0.0,0.0,0.0,0.0,0.0,0.0,0.0,0.0,0.0,0.0,0.0,0.0,0.0,0.0,0.0,0.0,0.0,5.3789,0.0,0.0,0.0,0.0,0.0,0.0,0.0,0.0,0.0,0.0,0.0,0.0,0.0,0.0,0.0,0.0,0.0,0.0,0.0,0.0,0.0,0.0,0.0,0.0,0.0,0.0,0.0,0.0,0.0,0.0,0.0,0.0,0.0,0.0,0.0,0.0,0.0,0.0,0.0,0.0,0.0,5.5794,5.5753,5.5761,5.5888,5.5907,5.5952,5.6001,5.6008,5.6008,5.6008,0.0,0.0,0.0,0.0,0.0,0.0,0.0,0.0,0.0,0.0,0.0,0.0,0.0,0.0,0.0,0.0,0.0,0.0,0.0,0.0,0.0,0.0,0.0,0.0,0.0,0.0,0.0,0.0,0.0,0.0,0.0,0.0,0.0,0.0,0.0,0.0,0.0,0.0,0.0,0.0,0.0,0.0,0.0,0.0,0.0,0.0,0.0,0.0,0.0,0.0,0.0,0.0,0.0,0.0,0.0,0.0,0.0,0.0,0.0,0.0,0.0,5.3898,0.0,0.0,0.0,0.0,0.0,0.0,0.0,0.0,0.0,0.0,0.0,0.0,0.0,0.0,0.0,0.0,0.0,0.0,0.0,0.0,0.0,0.0,0.0,0.0,0.0,0.0,0.0,0.0,0.0,0.0,0.0,0.0,0.0,0.0,0.0,0.0,0.0,0.0,0.0,0.0,5.5756,5.5751,5.5779,5.589,5.5921,5.5966,5.6001,5.6008,5.6008,5.6008,5.6008,0.0,0.0,0.0,0.0,0.0,0.0,0.0,0.0,0.0,0.0,0.0,0.0,0.0,0.0,0.0,0.0,0.0,0.0,0.0,0.0,0.0,0.0,0.0,0.0,0.0,0.0,0.0,0.0,0.0,0.0,0.0,0.0,0.0,0.0,0.0,0.0,0.0,0.0,0.0,0.0,0.0,0.0,0.0,0.0,0.0,0.0,0.0,0.0,0.0,0.0,0.0,0.0,0.0,5.3789,5.3789,5.3789,5.3789,5.3789,5.3789,5.3789,5.3977,5.4193,0.0,0.0,0.0,0.0,0.0,0.0,0.0,0.0,0.0,0.0,0.0,0.0,0.0,0.0,0.0,0.0,0.0,0.0,0.0,0.0,0.0,0.0,0.0,0.0,0.0,5.4409,5.4275,0.0,0.0,0.0,0.0,0.0,0.0,0.0,0.0,0.0,0.0,0.0,0.0,5.5727,5.5764,5.5814,5.5905,5.5988,5.5996,5.6003,5.6008,5.6008,5.6008,5.6008,5.6008,0.0,0.0,0.0,0.0,0.0,0.0,0.0,0.0,0.0,0.0,0.0,0.0,0.0,0.0,0.0,0.0,0.0,0.0,0.0,0.0,0.0,0.0,0.0,0.0,0.0,0.0,0.0,0.0,0.0,0.0,0.0,0.0,5.2023,5.2134,0.0,0.0,0.0,0.0,0.0,0.0,0.0,0.0,0.0,0.0,0.0,0.0,0.0,5.3789,5.3789,5.3789,5.3789,5.3789,5.3789,5.3789,5.3789,5.3789,5.3789,5.3789,5.3789,0.0,5.387,5.387,0.0,0.0,0.0,0.0,0.0,0.0,0.0,0.0,0.0,0.0,0.0,0.0,0.0,0.0,0.0,0.0,0.0,0.0,0.0,0.0,0.0,0.0,5.3879,5.3935,5.3907,5.3884,0.0,5.4384,5.481,5.4855,0.0,0.0,0.0,0.0,0.0,0.0,0.0,0.0,5.5776,5.5789,5.5868,5.5957,5.5971,5.5996,5.6003,5.6008,5.6008,5.6008,5.6008,5.6048,5.6167,5.6048,0.0,0.0,0.0,0.0,0.0,0.0,0.0,0.0,0.0,0.0,0.0,0.0,0.0,0.0,0.0,0.0,0.0,0.0,0.0,0.0,0.0,0.0,0.0,0.0,0.0,0.0,0.0,0.0,0.0,5.2249,5.2989,5.308,5.3457,5.3728,0.0,0.0,0.0,0.0,0.0,0.0,0.0,0.0,0.0,5.3789,5.3789,5.3789,5.3789,5.3789,5.3789,5.3789,5.3789,5.3789,5.3789,5.3789,5.3789,5.3789,5.3789,5.3789,5.3789,5.3789,5.3893,5.4008,0.0,0.0,0.0,0.0,5.4257,5.4257,5.4257,5.4257,0.0,0.0,0.0,0.0,0.0,0.0,0.0,0.0,0.0,0.0,0.0,0.0,0.0,5.3789,5.3789,5.3789,5.3789,5.4026,5.4283,0.0,5.452,5.4844,5.5792,0.0,0.0,0.0,0.0,0.0,5.7119,5.7243,5.7289,5.7402,5.7437,5.746,5.7443,5.7015,5.6743,5.6743,5.6278,5.6046,5.6087,5.6046,5.6046,0.0,0.0,0.0,0.0,0.0,0.0,0.0,0.0,0.0,0.0,0.0,0.0,0.0,0.0,0.0,0.0,0.0,0.0,0.0,0.0,0.0,0.0,0.0,0.0,0.0,0.0,0.0,0.0,5.297,5.3328,5.3603,5.3538,5.3516,0.0,0.0,0.0,0.0,0.0,0.0,5.3789,5.3789,5.3789,5.3789,5.3789,5.3789,5.3789,5.3789,5.3789,5.3789,5.3789,5.3789,5.3789,5.3789,5.3789,5.3789,5.3789,5.3789,5.3789,5.3789,5.3789,5.3789,5.3789,5.3789,5.3789,5.3789,5.3789,5.3789,5.3789,5.3789,5.3789,5.3789,0.0,5.3789,5.3789,0.0,0.0,0.0,0.0,5.4183,5.4183,5.3972,5.3789,5.3789,5.3975,5.4124,5.4124,5.4272,5.4437,0.0,5.4482,5.4915,5.6298,0.0,0.0,0.0,0.0,5.7296,5.8209,5.8384,5.8435,5.8507,5.8588,5.8608,5.8608,5.8023,5.7632,5.7632,5.7015,5.6551,5.6356,5.6317,5.624,5.6008,0.0,0.0,0.0,0.0,0.0,0.0,0.0,0.0,0.0,0.0,0.0,0.0,0.0,0.0,0.0,0.0,0.0,0.0,0.0,0.0,0.0,0.0,0.0,0.0,0.0,0.0,0.0,0.0,0.0,5.342,5.3051,0.0,0.0,0.0,0.0,5.3789,5.3789,5.3789,5.3789,5.3789,5.3789,5.3789,5.3789,5.3789,5.3789,5.3789,5.3789,5.3789,5.3789,5.3789,5.3789,5.3789,5.3789,5.3789,5.3789,5.3789,5.3789,5.3789,5.3789,5.3789,5.3789,5.3789,5.3789,5.3789,5.3789,5.3789,5.3789,5.3789,5.3789,5.3789,5.3789,5.3789,5.3789,5.3799,0.0,0.0,5.3832,5.3823,5.3823,5.3804,5.3789,5.3789,5.4384,5.4936,5.4936,5.5572,5.5912,0.0,5.497,5.5323,5.6505,0.0,5.7301,5.7686,5.7989,5.8267,5.8387,5.8402,5.8447,5.8595,5.8608,5.8608,5.8608,5.8569,5.8531,5.8531,5.8492,5.8103,5.7282,5.7243,5.6856,5.6008,5.6008,0.0,0.0,0.0,0.0,0.0,0.0,0.0,0.0,0.0,0.0,0.0,0.0,0.0,0.0,0.0,0.0,0.0,0.0,0.0,0.0,0.0,0.0,0.0,0.0,0.0,0.0,0.0,0.0,5.3004,5.2506,0.0,5.2746,5.3057,5.3271,5.3348,5.3639,5.3789,5.3789,5.3789,5.3789,5.3789,5.3789,5.3789,5.3789,5.3789,5.3789,5.3789,5.3789,5.3789,5.3789,5.3789,5.3789,5.3789,5.3789,5.3789,5.3789,5.3789,5.3789,5.3789,5.3789,5.3789,5.3789,5.3789,5.3789,5.3789,5.3789,5.3789,5.3789,5.3789,5.3789,5.3789,5.3789,5.3789,5.3789,5.3789,5.3789,5.3938,5.4458,5.4564,5.4718,5.5275,5.5647,5.5832,5.5832,5.6092,5.6357,5.6575,5.6204,5.6193,5.734,5.7055,5.7282,5.9115,5.8845,5.8832,5.9936,6.0064,6.011,6.0217,6.0228,6.0228,6.0228,5.9728,5.9457,5.9457,5.8918,5.8453,5.8139,5.8139,5.7712,5.6856,5.6856,5.6588,0.0,0.0,0.0,0.0,0.0,0.0,0.0,0.0,0.0,0.0,0.0,0.0,0.0,0.0,0.0,0.0,0.0,0.0,0.0,0.0,0.0,0.0,0.0,0.0,0.0,0.0,5.1685,5.2484,5.1874,5.1612,5.2106,5.2402,5.2607,5.2696,5.3015,5.3296,5.3479,5.3524,5.3649,5.3784,5.3789,5.3789,5.3789,5.3789,5.3789,5.3789,5.3789,5.3789,5.3789,5.3789,5.3789,5.3789,5.3789,5.3789,5.3789,5.3789,5.3789,5.3789,5.3789,5.3789,5.3789,5.3789,5.3789,5.3789,5.3789,5.3789,5.3789,5.3789,5.3789,5.3864,5.4119,5.4198,5.4272,5.4569,5.4644,5.4755,5.5312,5.5424,5.5572,5.6167,5.6501,5.6692,5.6692,5.691,5.7281,5.7801,5.7244,5.7042,5.8066,5.7705,5.7917,5.9836,5.9546,5.9567,6.0844,6.1005,6.1036,6.1106,6.1116,6.1116,6.1116,6.0615,6.0306,6.0306,5.9766,5.9302,5.9034,5.9034,5.8645,5.775,5.7439,5.7011,5.6433,0.0,0.0,0.0,0.0,0.0,0.0,0.0,0.0,0.0,0.0,0.0,0.0,0.0,0.0,0.0,0.0,0.0,0.0,0.0,0.0,0.0,0.0,0.0,5.179,5.1247,5.1055,5.1771,5.1266,5.1147,5.1783,5.1856,5.1868,5.1874,5.1994,5.2322,5.2875,5.3014,5.3317,5.3775,5.3789,5.3789,5.3789,5.3789,5.3789,5.3789,5.3789,5.3789,5.3752,5.3752,5.3752,5.3715,5.3715,5.3715,5.3715,5.3715,5.3752,5.3789,5.3789,5.3789,5.3789,5.3789,5.3789,5.3789,5.3826,5.3826,5.3826,5.3864,5.3864,5.4012,5.4792,5.5047,5.5233,5.6055,5.632,5.632,5.632,5.6357,5.6357,5.6357,5.6984,5.7541,5.7541,5.8135,5.8687,5.8687,5.8061,5.7801,5.8576,5.8962,5.9314,5.9732,6.0052,0.0,6.0905,6.0985,6.0998,6.1068,6.1038,6.1038,6.1038,6.1038,6.1038,6.1038,6.1038,6.0692,5.9921,5.9921,5.9534,5.8647,5.7789,5.732,5.7323,0.0,0.0,0.0,0.0,0.0,0.0,0.0,0.0,0.0,0.0,0.0,0.0,0.0,0.0,0.0,0.0,0.0,0.0,0.0,0.0,0.0,0.0,5.0585,5.1534,5.085,5.0488,5.1157,5.0674,5.0384,5.0768,5.1017,5.1238,5.1369,5.1746,5.2235,5.2875,5.2934,5.3193,5.377,5.3789,5.3789,5.3789,5.3789,5.3789,5.3789,5.3789,5.3492,5.2935,5.2935,5.2605,5.2048,5.2048,5.2048,5.2048,5.2048,5.2419,5.2972,5.3566,5.3789,5.3789,5.3789,5.3789,5.3864,5.4458,5.4676,5.4755,5.5424,5.5609,5.5652,5.5869,5.5944,5.5981,5.6241,5.632,5.6432,5.7021,5.717,5.7318,5.7913,5.8205,5.8358,5.8358,5.8539,5.8687,5.8687,5.8507,5.8433,5.865,5.8791,5.8952,5.9305,5.9702,0.0,6.0522,6.0283,6.011,6.0219,5.965,5.9302,5.9302,5.9302,5.9302,5.9302,5.9882,6.0115,5.9921,6.046,6.0383,5.9573,5.8683,5.826,0.0,0.0,0.0,0.0,0.0,0.0,0.0,0.0,0.0,0.0,0.0,0.0,0.0,0.0,0.0,0.0,0.0,0.0,0.0,0.0,0.0,0.0,5.0003,5.022,5.0837,5.0376,5.0135,5.0516,5.0249,5.0076,5.022,5.0405,5.0557,5.0681,5.1039,5.1629,5.2425,5.2596,5.2983,5.377,5.3455,5.3306,5.3306,5.2972,5.2791,5.2791,5.2791,5.2568,5.2118,5.2452,5.2345,0.0,5.2266,5.2415,5.2419,5.2786,5.3195,0.0,0.0,0.0,0.0,0.0,5.4867,5.4904,5.5387,5.5535,5.5647,5.613,5.632,5.6357,5.6692,5.6798,5.6872,5.7207,5.7318,5.7393,5.7875,5.7987,5.8135,5.8581,5.8687,5.8687,5.8687,5.8687,5.8613,5.8247,0.0,0.0,5.7764,5.7987,5.8358,5.8854,5.8828,5.8953,5.9533,5.9345,5.9222,5.9332,5.8918,5.8763,5.9111,5.915,0.0,0.0,0.0,6.0383,6.0383,6.0847,0.0,0.0,0.0,5.9152,0.0,0.0,0.0,0.0,5.6822,5.6667,0.0,0.0,0.0,0.0,0.0,0.0,0.0,0.0,0.0,0.0,0.0,0.0,0.0,0.0,0.0,0.0,5.0003,5.0003,5.0003,5.0003,5.0003,5.0003,5.0003,5.0003,5.0003,5.0003,5.0003,5.0003,5.022,5.0739,5.1645,0.0,0.0,0.0,0.0,5.2401,5.2452,5.1742,5.144,5.1528,5.1528,5.1528,5.1565,5.2271,5.2568,5.2489,5.3232,5.3566,5.3715,5.4458,5.4899,5.5089,5.4346,5.4527,5.5238,5.6018,5.632,5.632,5.6395,0.0,0.0,5.6538,5.6575,5.6692,5.743,5.7653,5.7764,5.8507,5.8687,5.8687,5.8687,5.8687,5.8693,5.8581,5.8544,5.8539,5.8465,5.8433,5.821,5.7504,5.7355,5.7132,5.6432,5.6872,5.7583,5.8271,5.7778,5.7571,5.8341,5.8348,5.8334,5.8597,0.0,0.0,5.9689,5.9766,6.0076,6.077,6.0922,6.1,6.1116,6.1116,6.1116,6.1116,6.0383,6.0037,6.0037,5.9266,5.8879,5.8879,5.7946,5.7516,0.0,0.0,0.0,0.0,0.0,0.0,0.0,0.0,0.0,0.0,0.0,0.0,0.0,0.0,0.0,5.0003,5.0003,5.0003,5.0003,5.0003,5.0003,5.0003,5.0003,5.0003,5.0003,5.0003,5.0003,5.0003,5.0061,5.0168,5.0357,5.0416,5.0729,5.128,5.1088,5.1209,5.1635,5.138,5.1603,5.2382,0.0,0.0,5.2382,5.2526,5.2234,5.1639,5.1788,5.2229,5.2823,5.3009,5.4235,5.6018,5.5869,5.5907,5.6055,5.6246,5.632,5.6395,5.7058,5.7281,5.7355,5.8024,5.8242,5.8247,5.8427,5.847,0.0,5.865,5.8687,5.8687,5.8687,5.8687,5.8539,5.7875,5.7727,5.7541,5.691,5.6766,5.6724,5.6575,5.6538,5.6464,5.632,5.6432,5.6637,5.7002,5.7204,5.747,5.7931,5.7684,5.7716,5.852,5.7985,5.7905,5.8763,5.884,5.8918,5.9072,5.9728,6.0422,6.1077,6.1116,6.1116,6.1116,6.0961,6.0886,6.0886,6.0692,6.0615,6.0576,5.907,5.8374,0.0,0.0,0.0,0.0,0.0,0.0,0.0,0.0,0.0,0.0,0.0,5.0003,0.0,0.0,5.0003,5.0003,5.0003,5.0003,5.0003,5.0003,5.0003,5.0003,5.0003,5.0003,5.0003,5.0003,4.9831,4.941,4.9708,4.985,4.9712,4.9972,5.036,5.0888,5.0858,5.0983,5.1264,5.1227,5.1436,5.189,5.1983,5.2011,5.2011,5.2419,5.2601,5.2601,5.3046,5.3678,5.4495,5.4904,5.6018,5.7504,5.7504,5.7504,5.7504,5.7504,5.7504,5.7578,5.795,5.8098,5.8173,5.8576,5.8687,5.8687,5.8687,5.8687,5.8618,5.8205,5.8098,5.8024,5.7615,5.7504,5.7393,5.6984,5.691,5.6803,5.6395,5.632,5.6167,5.5721,5.5981,5.6167,5.5721,5.6018,5.6298,5.6329,5.6508,5.7012,5.8029,5.8345,5.8802,5.9755,5.9452,5.9375,5.9805,5.9844,5.9844,5.9844,6.0267,6.0692,6.1077,6.1116,6.1116,6.1116,6.1116,6.0886,6.0499,6.0499,6.0267,5.9844,5.8995,5.884,0.0,0.0,0.0,0.0,0.0,0.0,0.0,0.0,4.9238,4.9865,5.0003,5.0003,5.0003,5.0003,5.0003,5.0003,5.0003,5.0003,5.0003,5.0003,5.0003,5.0003,5.0003,5.0003,5.0003,4.9865,4.9513,4.8851,4.9178,4.9257,4.8894,4.9587,5.0168,5.0556,5.0824,5.1013,5.1104,5.1175,5.1301,5.1468,5.1593,5.1714,5.1899,5.2526,5.3195,5.3826,5.4644,5.5387,5.6092,5.6947,5.7653,5.8247,5.8247,5.8247,5.8247,5.8396,5.847,5.8433,5.8284,5.8247,5.8247,5.8247,5.8247,5.8247,5.8247,5.8247,5.8098,5.7467,5.7281,5.7132,5.6464,5.632,5.6241,5.6097,5.6172,5.6241,5.6092,5.6172,5.6092,5.5387,5.5832,5.6092,5.5387,5.5832,5.6261,5.6135,5.6352,5.6982,5.8366,5.9356,6.031,6.1261,6.1348,6.1425,6.1582,6.1621,6.1621,6.1621,6.1464,6.1348,6.1348,6.1193,6.1116,6.1116,6.1116,6.077,6.0115,6.0115,5.9689,5.884,5.884,5.915,4.603,4.5838,0.0,4.6596,4.7216,4.781,0.0,0.0,4.99,4.9969,5.0003,5.0003,5.0003,5.0003,5.0003,5.0003,5.0003,5.0003,5.0003,5.0003,5.0003,5.0003,5.0003,5.0003,5.0003,4.9341,4.8886,4.8817,4.8273,4.7684,4.7115,4.8243,4.8835,4.8704,4.9866,5.0692,5.1189,5.1185,5.1612,5.2433,5.2447,5.2823,5.3529,5.3604,5.3715,5.3826,5.4644,5.5047,5.5196,5.6092,5.6506,5.6575,5.6575,5.6575,5.665,5.7355,5.7615,5.7541,5.684,5.6575,5.6575,5.6575,5.6575,5.6575,5.6575,5.6575,5.6543,5.6469,5.6432,5.6427,5.6315,5.632,5.6092,5.5349,5.5758,5.6097,5.5307,5.5758,5.6283,5.6167,5.6241,5.6283,5.6167,5.6246,5.6356,5.6589,5.7527,5.8425,5.9041,6.0137,6.1191,6.2148,6.2235,6.2588,6.3328,6.3407,6.3407,6.3407,6.2665,6.2235,6.2235,6.1502,6.1116,6.1116,6.1116,6.1077,6.0961,6.0961,6.0538,5.9766,5.9766,5.938,4.5952,0.0,0.0,0.0,4.7831,4.8548,4.9306,4.9762,5.0003,5.0003,5.0003,5.0003,5.0003,5.0003,5.0003,0.0,5.0003,5.0003,5.0003,5.0003,5.0003,5.0003,5.0003,4.9831,4.9341,4.8989,4.861,4.8196,4.8126,4.7993,4.7738,4.8849,4.9443,4.9377,5.0633,5.1446,5.1716,5.2264,5.2724,5.3134,5.3249,5.3455,5.3789,5.3789,5.4044,5.4564,5.5387,5.5758,5.5795,5.6134,5.632,5.632,5.632,5.6248,5.6245,5.6634,5.6798,5.6761,5.6432,5.632,5.632,5.632,5.632,5.632,5.632,5.632,5.6204,5.5684,5.5907,5.6172,5.5684,5.5907,5.6209,5.5832,5.6018,5.6204,5.5832,5.6055,5.632,5.632,5.6687,5.6984,5.6984,5.7764,5.8507,5.8859,5.9114,5.987,6.1491,6.2604,6.3399,6.3855,6.3011,6.2547,6.2897,6.2474,6.2203,6.2203,6.2315,6.239,6.239,6.2044,6.1851,6.1851,6.1348,6.0886,6.0383,6.0383,5.996,5.915,5.915,5.8683,4.5825,0.0,0.0,4.7514,4.8231,4.9024,4.9831,5.0003,5.0003,5.0003,5.0003,5.0003,5.0003,5.0003,5.0003,5.0003,5.0003,5.0003,5.0003,5.0003,5.0003,5.0003,5.0003,4.9693,4.8886,4.8817,4.8575,4.8024,4.8131,4.8225,4.8225,4.929,4.9985,5.0176,5.1445,5.2234,5.2444,5.314,5.3486,5.3491,5.3635,5.3759,5.3783,5.3775,5.4119,5.4713,5.5349,5.5609,5.5609,5.5609,5.5595,5.5565,5.5565,5.5525,5.5475,5.5805,5.5899,5.5862,5.5644,5.5585,5.5652,5.5869,5.5944,5.5986,5.6241,5.632,5.6167,5.5535,5.5795,5.6167,5.5535,5.5832,5.632,5.632,5.6464,5.6612,5.6612,5.6798,5.6947,5.6947,5.7615,5.8173,5.8173,5.9324,6.0374,6.0764,6.0633,6.1142,6.3119,6.4045,6.4518,6.4636,6.3519,6.2743,6.2743,6.2162,6.1814,6.1814,6.2199,6.239,6.239,6.239,6.239,6.239,6.2008,6.1427,6.0576,6.0576,6.0037,5.8956,5.8956,5.849,0.0,0.0,4.6789,4.7514,4.8231,4.9024,4.9831,5.0003,5.0003,5.0003,5.0003,5.0003,5.0003,5.0003,5.0003,5.0003,5.0003,5.0003,5.0003,5.0003,5.0003,5.0003,5.0003,4.9693,0.0,4.8817,4.8782,4.8782,4.8114,4.7707,4.7707,4.8916,4.9838,5.0376,5.1749,5.2751,5.3271,5.343,5.3486,5.3486,5.3496,5.3583,5.3714,5.3778,5.3826,5.3826,5.3864,5.3864,5.3864,5.3864,5.3838,5.3783,5.3783,5.3783,5.3852,5.4635,5.4931,5.482,5.4042,5.3814,5.4012,5.4787,5.5047,5.5201,5.6055,5.632,5.6278,5.6283,5.6283,5.6278,5.6283,5.6283,5.632,5.632,5.691,5.7467,5.7467,5.8098,5.8613,5.8613,5.9282,5.9839,5.9839,6.0587,6.1273,6.1617,6.1933,6.2327,6.2945,6.3439,6.3712,6.3756,6.3678,6.3678,6.3678,6.364,6.3601,6.3601,6.2859,6.239,6.239,6.239,6.239,6.239,6.3209,6.3171,6.2312,6.2312,6.1464,5.9844,5.9844,5.938,0.0,0.0,4.7514,4.8231,4.9031,4.9658,4.9934,5.0003,5.0003,5.0003,5.0003,5.0003,5.0003,5.0003,5.0003,5.0003,5.0003,5.0003,5.0003,5.0003,5.0003,5.0003,5.0003,0.0,0.0,0.0,0.0,4.8817,4.8575,4.8651,4.921,4.9951,5.0644,5.1248,5.201,5.2694,5.3308,5.3349,5.3369,5.3369,5.3451,5.3506,5.3573,5.3575,5.359,5.359,5.359,5.3918,5.4389,5.4506,5.485,5.5306,5.5382,5.5372,5.5316,5.5613,5.5687,5.566,5.5498,5.5431,5.5498,5.5758,5.5869,5.5907,5.6209,5.632,5.632,5.632,5.6687,5.7095,5.7095,5.7504,5.7875,5.7875,5.8098,5.8316,5.8316,5.8502,5.8878,5.9393,5.9728,6.0099,6.0661,6.0996,6.1405,6.1959,6.2435,6.2881,6.327,6.3057,6.2859,6.2859,6.2317,6.1969,6.1969,6.1969,6.1969,6.1969,6.2237,6.239,6.239,6.239,6.239,6.239,6.2702,6.2702,6.239,6.2975,6.298,6.2438,6.2438,6.1933,0.0,4.741,4.8196,4.8679,4.941,5.0003,5.0003,5.0003,5.0003,5.0003,5.0003,5.0003,5.0003,5.0003,5.0003,5.0003,5.0003,5.0003,5.0003,5.0003,5.0003,5.0003,5.0003,5.0003,0.0,0.0,0.0,4.9238,4.9238,4.9444,4.9969,5.0348,5.0855,5.1623,5.1964,5.2494,5.324,5.3251,5.3251,5.3251,5.3369,5.3425,5.343,5.3838,5.3984,5.4021,5.4362,5.478,5.5293,5.5364,5.5675,5.6095,5.6203,5.6198,5.6142,5.6438,5.657,5.6564,5.6297,5.6253,5.6352,5.6655,5.6729,5.6761,5.7058,5.717,5.717,5.717,5.7541,5.7913,5.7913,5.8321,5.8687,5.8687,5.8687,5.8762,5.9059,5.891,5.8947,5.9728,5.9913,6.0062,6.0624,6.0736,6.0915,6.1526,6.1758,6.213,6.2915,6.24,6.1928,6.1928,6.1425,6.1116,6.1116,6.1116,6.1116,6.1116,6.1618,6.1928,6.1928,6.2235,6.239,6.239,6.2702,6.2702,6.239,6.2975,6.3093,6.2786,6.2786,6.2474,4.6727,4.772,4.8817,4.8851,4.9444,5.0003,5.0003,5.0003,5.0003,5.0003,5.0003,5.0003,0.0,0.0,5.0003,5.0003,5.0003,5.0003,5.0003,5.0003,5.0003,0.0,0.0,0.0,0.0,0.0,0.0,5.0003,0.0,5.0003,5.0003,5.0003,5.0495,5.1557,5.1588,5.2132,5.3203,5.3251,5.3251,5.3251,5.3366,5.3423,5.3465,5.4492,5.4958,5.5,5.5889,5.6295,5.6332,5.6342,5.6287,5.6201,5.6211,5.6211,5.6317,5.7058,5.7454,5.7409,5.6543,5.6314,5.6543,5.7318,5.7578,5.769,5.847,5.8687,5.8687,5.8687,5.8687,5.8687,5.8687,5.8687,5.8687,5.8687,5.8687,5.891,5.9653,5.9245,5.8947,5.9728,5.995,5.995,5.9913,5.9913,6.0039,6.0407,6.0072,6.0343,6.191,6.1504,6.1113,6.1116,6.1116,6.1116,6.1116,6.1116,6.1116,6.1116,6.1116,6.1116,6.1116,6.1889,6.2312,6.2312,6.3171,6.3248,6.239,6.2428,6.2044,6.1232,6.1232,6.1232,4.7934,4.8506,4.8955,4.9548,4.9865,5.0003,5.0003,5.0003,5.0003,5.0003,5.0003,5.0003,0.0,0.0,0.0,5.0003,5.0003,0.0,5.0003,5.0003,0.0,5.0003,0.0,5.0003,5.0003,5.0486,0.0,0.0,5.0003,5.0003,5.0003,5.0003,5.0495,5.1557,5.1588,5.2132,5.3203,5.3807,5.41,5.41,5.4817,5.517,5.5175,5.5502,5.5638,5.5675,5.5891,5.6293,5.6847,5.6995,5.7281,5.7663,5.783,5.7852,5.7851,5.8036,5.818,5.8228,5.7984,5.7973,5.8135,5.8316,5.839,5.8433,5.865,5.8687,5.8687,5.8687,5.8687,5.8687,5.8687,5.8687,5.8687,5.8687,5.8687,5.8762,5.8947,5.8836,5.8947,5.9728,6.0433,6.0661,6.0025,5.9913,5.9912,5.9986,5.9893,6.0075,6.0757,6.0957,6.1036,6.1075,6.1116,6.1116,6.1116,6.1116,6.1116,6.1116,6.1116,6.1116,6.1116,6.1309,6.1425,6.1425,6.2276,6.2624,6.239,6.3054,6.325,6.3057,6.3057,6.3057,4.8472,4.9058,4.9444,4.99,5.0003,5.0003,5.0003,5.0003,5.0003,5.0003,5.0003,0.0,5.0003,0.0,0.0,0.0,0.0,0.0,5.0003,5.0279,5.0486,0.0,5.0762,0.0,5.0962,5.1038,5.0927,0.0,5.0486,5.0348,5.0003,5.0003,5.0495,5.1557,5.1928,5.2798,5.4242,5.4698,5.4919,5.4919,5.5467,5.5726,5.5731,5.617,5.6366,5.6403,0.0,5.7216,5.7604,5.7745,5.7977,5.8316,5.8454,5.8486,5.8438,5.8523,5.8545,5.8598,5.8598,5.8635,5.8687,5.8687,5.8687,5.8687,5.8687,5.8687,5.8687,5.8687,5.8687,5.8687,5.8687,5.8687,5.8687,5.8687,5.8687,5.8804,5.9133,5.8953,5.8841,5.9282,5.9765,5.9956,5.9467,5.9356,5.9402,5.9521,5.9983,6.0456,6.0883,6.0968,6.1024,6.1072,6.1116,6.1116,6.1116,6.1116,6.1116,6.1116,6.1116,6.1116,6.1116,6.1116,6.1116,6.1116,6.158,6.1812,6.1812,6.2317,6.2552,6.2552,6.2552,6.2552,4.8748,4.9479,5.0003,5.0003,5.0003,5.0003,5.0003,5.0003,5.0003,5.0003,0.0,5.0003,5.0003,5.0003,5.0003,5.0003,0.0,5.0003,5.0003,5.0617,5.1099,5.1099,5.1755,5.2161,5.2057,5.1548,5.1168,5.0962,5.1134,5.09,5.0038,5.0072,5.0662,5.1763,5.2609,5.3826,5.5443,5.5662,5.5763,5.5763,5.5895,5.5943,5.598,5.6825,5.7206,5.7249,0.0,0.0,5.8393,5.8409,5.8409,5.8404,5.8465,5.8497,5.8508,5.8593,5.8646,5.8667,5.8667,5.8677,5.8687,5.8687,5.8687,5.8687,5.8687,5.8687,5.8687,5.8687,5.8687,5.8687,5.8687,5.8687,5.8687,5.8687,5.8687,5.8878,5.9579,5.917,5.8687,5.8687,5.8687,5.8687,5.8687,5.8799,5.8986,5.9337,6.0385,6.1311,6.1698,6.1514,6.136,6.1411,6.1423,6.1466,6.1466,6.1348,6.127,6.127,6.1154,6.1116,6.1116,6.1116,6.1116,6.1116,6.1116,6.1116,6.1116,6.1116,6.1116,6.1116,6.1116,6.1116,4.9582,4.99,5.0003,5.0003,5.0003,5.0003,5.0003,5.0003,0.0,0.0,5.0003,5.0003,5.0003,5.0003,5.0003,5.0003,5.0003,5.0003,5.0003,5.0617,5.1099,0.0,0.0,0.0,0.0,0.0,0.0,0.0,0.0,5.141,5.0072,5.059,5.1464,5.2705,5.3809,5.455,5.4864,5.6025,5.6596,5.6596,5.7364,5.7751,5.7751,5.8015,5.8144,5.8181,5.8351,0.0,5.8404,5.8459,5.8438,5.8399,5.8415,5.8426,5.8415,5.8338,5.8389,5.8513,5.8513,5.8614,5.8687,5.8687,5.8687,5.8687,5.8687,5.8687,5.8687,5.8687,5.8687,5.8687,5.8687,5.8687,5.8687,5.8687,5.8687,5.873,5.8873,5.8804,5.8687,5.8687,5.8687,5.8687,5.8687,5.9245,5.9805,6.0233,6.124,6.2131,6.256,6.2849,6.3074,6.3173,6.3223,6.325,6.325,6.2588,6.2158,6.2158,6.1502,6.1116,6.1116,6.1116,6.1116,6.1116,6.1116,6.1116,6.1116,6.1116,6.1116,6.1116,6.1116,6.1116,4.9796,5.0003,5.0003,5.0003,5.0003,5.0003,5.0003,0.0,0.0,0.0,5.0003,5.0003,5.0003,5.0003,0.0,5.0003,5.0003,5.0141,5.0521,5.1203,0.0,5.2245,0.0,0.0,0.0,0.0,0.0,0.0,0.0,5.172,5.0624,5.1835,5.3014,5.4073,5.5194,5.5978,5.6422,5.7105,5.7404,5.7446,5.787,5.8088,5.8094,5.815,5.8173,5.8173,5.8173,0.0,5.8179,5.8234,5.8223,5.8184,5.8277,5.8344,5.8393,5.8362,5.8465,5.8609,5.8609,5.8646,5.8687,5.8687,5.8687,5.8687,5.8687,5.8687,5.8687,5.8687,5.8687,5.8687,5.8687,5.8687,5.8687,5.8687,5.8687,5.8687,5.8687,5.8687,5.8687,5.8687,5.9022,5.9319,5.9319,6.0025,6.0699,6.1086,6.1968,6.2698,6.3124,6.3949,6.4268,6.3647,6.3616,6.3646,6.3715,6.3328,6.3093,6.3093,6.2276,6.1773,6.1773,6.1348,6.1116,6.1116,6.1116,6.1116,6.1116,6.1116,6.1116,6.1116,6.1116,6.1116,4.9831,5.0003,5.0003,5.0003,5.0003,5.0003,5.0003,5.0003,0.0,0.0,5.0003,5.0003,5.0003,5.0003,5.0003,0.0,5.0141,5.0452,5.103,5.1892,5.2686,0.0,5.4038,0.0,0.0,0.0,0.0,0.0,0.0,0.0,5.1624,5.2973,5.4164,5.4964,5.5961,5.6867,5.7643,5.775,5.7856,5.8002,5.8002,5.8002,5.8002,5.8002,5.8002,5.8002,5.8002,0.0,0.0,5.8042,5.8054,5.8082,5.8156,5.8288,5.8404,5.8427,5.8524,5.8625,5.8646,5.8656,5.8656,5.8682,5.8687,5.8687,5.8687,5.8687,5.8687,5.8687,5.8687,5.8687,5.8687,5.8687,5.8687,5.8687,5.8841,5.8947,5.8947,5.9096,5.925,5.925,5.977,6.0173,6.0173,6.0884,6.156,6.1823,6.2606,6.328,6.3616,6.4582,6.4924,6.4096,6.4086,6.4155,6.4213,6.4065,6.3988,6.3988,6.3171,6.2663,6.2663,6.1851,6.1386,6.1386,6.1193,6.1116,6.1116,6.1116,6.1116,6.1116,6.1116,6.1116,4.9969,5.0003,5.0003,5.0003,5.0003,5.0003,5.0003,0.0,0.0,5.0003,5.0003,5.0003,5.0003,5.0003,5.0003,5.0003,5.0548,5.103,5.1107,5.2348,5.3322,5.3383,0.0,0.0,0.0,0.0,0.0,0.0,0.0,0.0,5.3184,5.336,5.3775,5.4537,5.5193,5.583,5.6452,5.6944,5.7462,5.8002,5.8002,5.8002,5.8002,5.8002,5.8002,5.8002,5.8002,0.0,0.0,5.8162,5.8266,5.8355,5.8255,5.8288,5.8388,5.8288,5.8327,5.8442,5.8502,5.8503,5.8556,5.8656,5.8687,5.8687,5.8687,5.8687,5.8687,5.8687,5.8687,5.8687,5.8687,5.8687,5.8687,5.8687,5.9245,5.9802,5.9802,6.0401,6.0959,6.0959,6.1033,6.107,6.107,6.1739,6.2307,6.2314,6.3316,6.4074,6.4114,6.4486,6.4908,6.5209,6.5631,6.5891,6.5951,6.5298,6.4875,6.4875,6.4063,6.3562,6.3562,6.2743,6.2274,6.2274,6.1502,6.1116,6.1116,6.1116,6.1116,6.1116,6.1116,6.1116,5.0003,5.0003,5.0003,5.0003,5.0003,5.0003,5.0003,0.0,5.0003,5.0003,5.0003,5.0003,5.0003,5.0003,5.0003,5.0003,5.0624,5.1279,5.1686,5.2728,5.3555,5.4004,5.4314,0.0,0.0,0.0,0.0,0.0,0.0,0.0,5.4073,5.4425,5.4894,5.5557,5.6116,5.6724,5.7321,5.7528,5.7762,5.8002,5.8002,5.8002,5.8002,5.8002,5.8002,5.8002,5.8002,0.0,0.0,5.8071,5.8099,5.8139,5.8094,5.8145,5.8294,5.8316,5.8399,5.8476,5.8582,5.8625,5.8704,5.9234,5.943,5.9319,5.8836,5.8687,5.8804,5.9282,5.943,5.9542,6.0067,6.0216,6.0216,6.0216,6.0439,6.0699,6.0699,6.0959,6.1182,6.1182,6.159,6.1924,6.1924,6.2593,6.3108,6.3108,6.3534,6.384,6.384,6.4162,6.4487,6.4703,6.5326,6.5836,6.6118,6.5897,6.5724,6.5724,6.4952,6.4488,6.4488,6.3637,6.3171,6.3171,6.2822,6.2397,6.1889,6.1889,6.1618,6.1116,6.1116,6.1116,5.0003,5.0003,5.0003,5.0003,5.0003,5.0003,0.0,0.0,5.0003,5.0003,5.0003,5.0003,5.0003,5.0003,5.0072,5.0279,5.0927,5.1686,5.2444,5.3245,5.39,5.4452,0.0,5.4314,0.0,0.0,0.0,0.0,0.0,0.0,5.4486,5.4903,5.5417,5.6013,5.6382,5.697,5.7732,5.7738,5.7815,5.8002,5.8002,5.8002,5.8002,5.8002,5.8002,5.8002,0.0,0.0,0.0,5.8002,5.8002,5.8002,5.8002,5.8071,5.819,5.8316,5.8563,5.8825,5.8974,5.916,5.9462,6.0088,6.0285,6.0179,5.9621,5.9436,5.9542,6.0136,6.0285,6.0439,6.1033,6.1182,6.1182,6.1182,6.1367,6.1553,6.1553,6.1739,6.1924,6.1924,6.237,6.2736,6.2736,6.3225,6.359,6.359,6.359,6.359,6.359,6.3851,6.4098,6.4266,6.4799,6.5348,6.5896,6.6088,6.616,6.616,6.5675,6.5337,6.5337,6.4527,6.4065,6.4065,6.3833,6.3405,6.2781,6.2781,6.2353,6.1464,6.1464,6.1348,5.0003,5.0003,5.0003,5.0003,5.0003,5.0003,0.0,0.0,5.0003,5.0003,5.0003,5.0003,5.0003,5.0003,5.0245,5.0962,5.172,5.2479,5.3279,5.4004,5.4486,0.0,0.0,5.4486,5.4486,5.4486,0.0,0.0,0.0,0.0,5.4486,5.4529,5.478,5.5402,5.5424,5.5978,5.7103,5.7116,5.7419,5.8002,5.8002,5.8002,5.8002,5.8002,5.8002,0.0,0.0,0.0,0.0,5.8002,5.8002,5.8002,5.8002,5.8071,5.8184,5.8184,5.8779,5.9603,5.975,6.0313,6.0996,6.1149,6.1182,6.1182,6.1182,6.1182,6.1182,6.1182,6.1182,6.1182,6.1182,6.1182,6.1182,6.1182,6.1813,6.2402,6.2402,6.3002,6.359,6.359,6.359,6.359,6.359,6.359,6.359,6.359,6.359,6.359,6.359,6.3596,6.3748,6.4164,6.4281,6.4637,6.5447,6.5851,6.6099,6.6099,6.6155,6.6185,6.6185,6.5414,6.4991,6.4991,6.4143,6.3717,6.3678,6.3678,6.3248,6.239,6.239,6.1928,5.0003,5.0003,5.0003,5.0003,4.959,4.9306,4.9865,0.0,4.9341,4.99,5.0003,5.0003,5.0003,5.0417,5.0831,5.1065,5.2176,5.3107,5.3356,0.0,0.0,5.4486,5.4486,5.4486,0.0,0.0,0.0,0.0,0.0,0.0,5.4486,5.4486,5.4799,5.5387,5.5794,5.6378,5.7097,5.751,5.7803,5.8002,5.8002,5.8002,5.8002,5.8002,0.0,0.0,0.0,0.0,0.0,5.8002,5.8002,5.8033,5.8615,5.8852,5.8972,5.9611,6.01,6.0447,6.0565,6.0844,6.1249,6.1839,6.2036,6.211,6.2667,6.2073,6.1293,6.1887,6.2402,6.2848,6.2848,6.2848,6.2848,6.2848,6.3033,6.3225,6.3225,6.3405,6.359,6.359,6.359,6.359,6.359,6.359,6.359,6.359,6.359,6.359,6.359,6.359,6.3737,6.4164,6.4207,6.445,6.4999,6.5465,6.5778,6.5778,6.6033,6.6185,6.6185,6.5956,6.584,6.584,6.5569,6.5143,6.4604,6.4604,6.414,6.3289,6.3289,6.3134,0.0,5.0003,5.0003,5.0003,4.9617,0.0,0.0,4.9617,4.9375,4.99,5.0003,5.0072,5.0348,5.0796,5.1272,5.1866,5.2762,5.3494,5.3762,0.0,0.0,5.4486,0.0,0.0,0.0,0.0,0.0,0.0,0.0,0.0,5.4486,5.4486,5.4683,5.5063,5.5865,5.6566,5.7103,5.7708,5.8002,5.8002,5.8002,5.8002,5.8002,5.8002,0.0,0.0,0.0,0.0,0.0,5.8431,5.8615,5.8951,5.9453,5.9666,5.9787,6.0384,6.0863,6.1248,6.136,6.1647,6.2118,6.26,6.282,6.2965,6.3442,6.2885,6.2222,6.2705,6.3219,6.359,6.359,6.359,6.359,6.359,6.359,6.359,6.359,6.359,6.359,6.359,6.359,6.359,6.359,6.359,6.359,6.359,6.359,6.359,6.359,6.359,6.3708,6.3968,6.3957,6.4126,6.4528,6.5005,6.5366,6.552,6.5815,6.6028,6.6149,6.6175,6.6185,6.6185,6.6185,6.5956,6.5453,6.5146,6.472,6.4181,6.3833,6.3717,0.0,0.0,0.0,0.0,0.0,0.0,0.0,4.99,0.0,5.0072,5.0072,5.0314,5.103,5.1237,5.1728,5.3184,5.3425,5.3736,5.4417,5.4486,0.0,0.0,5.4486,0.0,5.4486,0.0,0.0,0.0,0.0,0.0,5.4486,5.4486,5.4486,5.4486,5.5658,5.6526,5.6983,5.7564,5.7916,5.795,5.795,5.8004,5.8107,5.8107,0.0,0.0,0.0,0.0,0.0,5.93,5.9747,6.0413,6.045,6.0558,6.0696,6.0733,6.1325,6.2057,6.2057,6.2637,6.3388,6.3394,6.3505,6.359,6.359,6.359,6.359,6.359,6.359,6.359,6.359,6.359,6.359,6.359,6.359,6.359,6.359,6.359,6.359,6.359,6.359,6.359,6.359,6.359,6.3628,6.3665,6.3702,6.3702,6.3776,6.3776,6.3793,6.3821,6.3799,6.394,6.4324,6.4608,6.4946,6.5328,6.5489,6.5699,6.6063,6.6126,6.6162,6.6185,6.6183,6.6183,6.6185,6.5445,6.5059,6.5061,6.4251,6.3862,0.0,0.0,0.0,0.0,0.0,0.0,0.0,0.0,0.0,0.0,0.0,5.1072,5.1824,5.2452,5.2969,5.3356,0.0,5.4314,5.4486,5.4486,0.0,5.4486,5.4486,5.4486,5.4486,0.0,0.0,0.0,0.0,5.4486,5.4486,5.4486,5.4486,5.4486,5.5658,5.6145,5.5809,5.6412,5.6906,5.7297,5.7297,5.7868,5.8902,5.8902,0.0,0.0,0.0,0.0,6.0114,6.0114,6.023,6.045,6.108,6.1355,6.1459,6.2071,6.2481,6.275,6.275,6.3047,6.3436,6.3522,6.3574,6.359,6.359,6.359,6.359,6.359,6.359,6.359,6.359,6.359,6.359,6.359,6.359,6.359,6.359,6.359,6.359,6.359,6.359,6.359,6.359,6.359,6.3813,6.4445,6.4519,6.4742,6.5411,6.5528,6.5591,6.5871,6.5671,6.5642,6.5992,6.5032,6.4569,6.4934,6.5025,6.5259,6.5692,6.567,6.5833,6.618,6.6142,6.6142,6.6185,6.5903,6.5804,6.585,6.5618,6.5517,5.0003,5.0003,4.9796,4.8989,0.0,0.0,0.0,0.0,0.0,0.0,0.0,5.1824,5.2624,5.3107,5.3529,0.0,5.4245,0.0,0.0,0.0,5.4486,5.4486,5.4486,5.4486,0.0,0.0,0.0,0.0,0.0,5.4486,5.4486,5.4486,5.4659,5.4996,5.5635,5.5917,5.5801,5.7018,5.7784,5.8051,5.8421,5.9012,5.9747,5.9747,6.0009,0.0,0.0,0.0,6.0933,6.0933,6.119,6.1545,6.1991,6.2144,6.2212,6.2646,6.2842,6.2904,6.2904,6.3081,6.3324,6.3534,6.359,6.359,6.359,6.359,6.359,6.359,6.359,6.359,6.359,6.359,6.359,6.359,6.359,6.359,6.359,6.359,6.359,6.359,6.3888,6.4148,6.4148,6.4482,6.4891,6.5336,6.5411,6.5559,6.6048,6.6085,6.6184,6.6364,6.6204,6.6238,6.6587,6.5678,6.5349,6.5867,6.5601,6.5613,6.6071,6.5733,6.5608,6.5866,6.5833,6.5928,6.6107,6.6038,6.6024,6.6055,6.6055,6.6038,5.0003,5.0072,4.9934,4.9024,0.0,0.0,0.0,0.0,0.0,0.0,0.0,0.0,5.3417,5.3563,0.0,0.0,0.0,0.0,5.4486,5.4486,5.4486,5.4486,5.4486,0.0,0.0,0.0,0.0,0.0,0.0,5.4659,5.4659,5.4797,5.5142,5.5754,5.5859,5.6117,5.6501,5.8057,5.8987,5.9261,5.9847,6.0298,6.056,6.056,6.0633,0.0,0.0,0.0,6.1777,6.1777,6.2181,6.2793,6.2793,6.2793,6.2793,6.2793,6.2793,6.2799,6.2836,6.3014,6.3254,6.3517,6.359,6.359,6.359,6.3702,6.3776,6.3776,6.3702,6.359,6.359,6.359,6.359,6.359,6.3702,6.3776,6.3776,6.3888,6.3962,6.3962,6.4519,6.5002,6.5002,6.5596,6.6122,6.6271,6.6271,6.6345,6.6456,6.6456,6.6456,6.6456,6.6456,6.6582,6.686,6.6614,6.6766,6.7468,6.6587,6.6256,6.6812,6.6045,6.5639,6.5691,6.552,6.5538,6.5815,6.5872,6.5887,6.5899,6.5975,6.5987,5.0003,5.0452,5.0582,4.9161,0.0,0.0,0.0,0.0,0.0,0.0,0.0,0.0,0.0,5.4348,5.4383,0.0,0.0,5.4486,0.0,0.0,5.4486,5.4486,0.0,5.4486,0.0,0.0,0.0,0.0,0.0,5.5444,5.5444,5.6073,5.6495,5.659,5.712,5.7397,5.7497,5.7285,5.796,5.9534,5.9081,5.9753,6.1416,6.1416,6.1777,0.0,0.0,6.2499,6.2615,6.2615,6.2683,6.2793,6.2793,6.2793,6.2793,6.2793,6.2793,6.2824,6.3045,6.3224,6.3376,6.3551,6.359,6.359,6.359,6.4073,6.4631,6.4631,6.4148,6.359,6.359,6.359,6.359,6.359,6.411,6.4631,6.4631,6.5188,6.5714,6.5714,6.5825,6.5899,6.5899,6.6011,6.6345,6.7014,6.7119,6.7342,6.8048,6.8122,6.8122,6.8122,6.8122,6.8152,6.8193,6.8164,6.834,6.8784,6.7166,6.6533,6.7339,6.6517,6.6204,6.6573,6.5474,6.4957,6.5084,6.5302,6.5439,6.551,6.5833,6.5984,5.0003,5.0245,5.0417,5.0134,0.0,0.0,0.0,0.0,0.0,0.0,0.0,0.0,0.0,0.0,5.4486,5.4486,0.0,5.4486,5.4486,5.4486,5.4486,0.0,0.0,0.0,0.0,0.0,0.0,0.0,0.0,0.0,5.6245,5.6598,5.6978,5.7383,5.7654,5.8175,5.8925,5.8327,5.8549,5.9669,5.9795,6.0537,6.1744,6.1744,6.2124,6.2793,0.0,6.2793,6.2793,6.2793,6.2793,6.2793,6.2793,6.2793,6.2793,6.2793,6.2793,6.2903,6.3609,6.3889,6.4052,6.4721,6.4933,6.4933,6.4933,6.5225,6.5485,6.5485,6.5225,6.4933,6.4933,6.4933,6.4933,6.4933,6.5225,6.5485,6.5485,6.5825,6.6085,6.6085,6.6456,6.6748,6.6748,6.7119,6.7528,6.7899,6.7936,6.8085,6.8456,6.8493,6.8493,6.8493,6.8493,6.8493,6.8493,6.8493,6.8486,6.8404,6.7588,6.7079,6.7032,6.644,6.6288,6.6699,6.5652,6.5246,6.5499,6.5137,6.4975,6.5023,6.5425,6.5622,5.021,5.0383,5.0693,5.1452,0.0,0.0,0.0,0.0,0.0,0.0,0.0,0.0,0.0,5.4486,0.0,5.4486,5.4486,5.4486,5.4486,0.0,0.0,0.0,0.0,0.0,0.0,0.0,0.0,0.0,0.0,0.0,5.7047,5.7219,5.7564,5.8142,5.8142,5.8687,5.9779,5.9241,5.9324,5.9986,6.0466,6.1025,6.1661,6.1835,6.2139,6.2616,6.2736,6.2793,6.2793,6.2793,6.2793,6.2829,6.3013,6.3233,6.338,6.338,6.3399,6.3535,6.4365,6.4697,6.4886,6.575,6.6056,6.6085,6.6085,6.6234,6.6382,6.6382,6.6531,6.6568,6.6196,6.6085,6.6085,6.6085,6.6234,6.6382,6.6382,6.6531,6.6673,6.6673,6.7162,6.7565,6.7565,6.8085,6.8493,6.8493,6.8493,6.8493,6.8493,6.8493,6.8493,6.8493,6.8493,6.8493,6.8493,6.8493,6.8352,6.8004,6.8016,6.7803,6.7265,6.6708,6.6551,6.6923,6.602,6.5762,6.6149,6.5468,6.5102,6.502,6.5325,6.5366,5.0824,5.1513,5.2237,5.3038,5.2728,0.0,5.3141,5.39,0.0,5.4486,0.0,0.0,0.0,5.4486,5.4486,5.4486,5.4486,5.4486,5.4486,0.0,0.0,0.0,0.0,0.0,0.0,0.0,0.0,0.0,0.0,0.0,5.7831,5.8487,5.8866,5.8926,5.8926,5.8961,5.9081,5.903,5.9619,6.08,6.0293,6.0383,6.0975,6.1612,6.1924,6.1992,6.2578,6.2793,6.2793,6.2793,6.2793,6.2866,6.3692,6.4457,6.5105,6.5105,6.5188,6.5309,6.5402,6.5521,6.5717,6.5772,6.5942,6.6085,6.6085,6.6605,6.7193,6.7193,6.7751,6.7973,6.6494,6.6085,6.6085,6.6085,6.6679,6.7193,6.7193,6.7788,6.8345,6.8345,6.8382,6.8419,6.8419,6.8456,6.8493,6.8493,6.8493,6.8493,6.8493,6.8493,6.8493,6.8493,6.8493,6.8493,6.8493,6.8493,6.8475,6.843,6.8436,6.868,6.9186,6.7924,6.7417,6.7895,6.6695,6.6239,6.6652,6.6536,6.6286,6.5925,6.5939,6.553,5.103,5.1996,5.3004,5.3322,5.3521,0.0,0.0,5.4314,5.4486,0.0,0.0,0.0,0.0,0.0,5.4486,5.4486,5.4486,5.4486,5.4486,5.4486,0.0,0.0,0.0,0.0,0.0,0.0,0.0,0.0,0.0,0.0,5.859,5.8866,5.9004,5.9004,5.9004,5.9004,5.9004,5.9004,5.9241,5.9709,5.9508,5.991,6.0894,6.1164,6.1716,6.25,6.3267,6.3613,6.3649,6.4157,6.4334,6.4371,6.4707,6.5038,6.5288,6.5288,6.5327,6.5459,6.6026,6.6306,6.645,6.713,6.7401,6.7499,6.7578,6.7788,6.8048,6.8048,6.8271,6.8345,6.7751,6.7602,6.7602,6.7602,6.7825,6.8048,6.8048,6.8308,6.8493,6.8493,6.8493,6.8493,6.8493,6.8493,6.8493,6.8493,6.8493,6.8493,6.8493,6.8493,6.8493,6.8493,6.8493,6.8493,6.8493,6.8493,6.8493,6.8493,6.8493,6.8589,6.8838,6.8315,6.8124,6.8295,6.7361,6.6922,6.7081,6.678,6.656,6.6444,6.6897,6.6953,5.1375,5.2383,5.346,5.3693,5.4142,0.0,5.4486,5.4486,5.4486,5.4486,0.0,0.0,0.0,0.0,0.0,0.0,5.4486,5.459,5.4797,5.4866,0.0,0.0,0.0,0.0,0.0,0.0,0.0,0.0,0.0,0.0,0.0,5.9004,5.9004,5.9004,5.9004,5.9107,5.9383,5.9383,5.9487,5.9728,5.9728,6.0075,6.0689,6.1139,6.1923,6.3,6.3782,6.4259,6.453,6.5074,6.5441,6.5698,6.5698,6.5845,6.6072,6.6072,6.6072,6.6159,6.6771,6.7027,6.7208,6.7986,6.8265,6.8321,6.8451,6.8493,6.8493,6.8493,6.8493,6.8493,6.8493,6.8493,6.8493,6.8493,6.8493,6.8493,6.8493,6.8493,6.8493,6.8493,6.8493,6.8493,6.8493,6.8493,6.8493,6.8493,6.8493,6.8493,6.8493,6.8493,6.8493,6.8493,6.8493,6.8493,6.8493,6.8493,6.8493,6.8493,6.8493,6.8493,6.8493,6.8493,6.8493,6.8493,6.7973,6.7723,6.7887,6.7445,6.7203,6.7105,6.7604,6.7697,5.2023,5.2797,5.3598,5.4314,5.4486,5.4486,5.4486,5.4486,5.4486,5.4486,0.0,0.0,0.0,0.0,0.0,5.4521,5.4521,5.4762,5.5513,5.5616,5.59,0.0,0.0,0.0,0.0,0.0,0.0,0.0,0.0,0.0,0.0,5.9004,5.8995,5.8995,5.9038,5.9383,6.0185,6.022,6.0565,6.1289,6.1323,6.0944,6.0263,6.1652,6.2671,6.3336,6.3935,6.4644,6.5282,6.5325,6.5772,6.6512,6.6512,6.6996,6.77,6.77,6.77,6.77,6.77,6.7794,6.7939,6.8075,6.8202,6.8321,6.8451,6.8493,6.8493,6.8493,6.8493,6.8493,6.8493,6.8493,6.8493,6.8493,6.8493,6.8493,6.8493,6.8493,6.8493,6.8493,6.8493,6.8493,6.8493,6.8493,6.8493,6.8493,6.8493,6.8493,6.8493,6.8493,6.8493,6.8493,6.8493,6.8493,6.8493,6.8493,6.8493,6.8493,6.8493,6.8493,6.8493,6.8493,6.8493,6.8493,6.8493,6.8713,6.9085,6.8713,6.8283,6.791,6.791,6.7507,5.2831,5.359,5.4245,5.4452,5.4486,5.4486,0.0,5.4486,0.0,0.0,5.4486,5.4486,0.0,0.0,0.0,0.0,0.0,0.0,5.6314,5.6452,5.6736,0.0,0.0,0.0,0.0,0.0,0.0,0.0,0.0,0.0,0.0,5.9521,5.984,5.984,6.0349,6.0737,6.0978,6.0978,6.1082,6.1323,6.1875,6.1978,6.1704,6.2107,6.2619,6.3298,6.4533,6.5162,6.5433,6.6529,6.7143,6.7327,6.7327,6.748,6.77,6.77,6.77,6.77,6.77,6.7794,6.7939,6.8075,6.8202,6.8321,6.8451,6.8493,6.8493,6.8493,6.8493,6.8493,6.8493,6.8493,6.8493,6.8493,6.8493,6.8493,6.8493,6.8493,6.8493,6.8493,6.8493,6.8493,6.8493,6.8493,6.8493,6.8493,6.8493,6.8493,6.8493,6.8493,6.8493,6.8493,6.8493,6.8493,6.8493,6.8493,6.8493,6.8493,6.8493,6.8493,6.8493,6.8493,6.8493,6.8493,6.8493,6.8566,6.8689,6.886,6.8841,6.8731,6.9043,6.9195,5.3287,5.3935,5.4486,5.4486,5.4431,5.4359,5.4303,0.0,0.0,0.0,0.0,5.4486,5.4486,0.0,0.0,0.0,0.0,0.0,0.0,5.7253,5.7521,0.0,0.0,0.0,0.0,0.0,0.0,0.0,0.0,0.0,0.0,6.022,6.0634,6.0634,6.1082,6.1461,6.1772,6.1772,6.191,6.222,6.2712,6.2903,6.284,6.3106,6.3553,6.4213,6.5678,6.631,6.6375,6.7332,6.77,6.77,6.77,6.77,6.77,6.77,6.77,6.77,6.77,6.7754,6.786,6.8025,6.8133,6.8259,6.8439,6.8493,6.8493,6.8493,6.8493,6.8493,6.8493,6.8493,6.8493,6.8493,6.8493,6.8493,6.8493,6.8493,6.8493,6.8493,6.8493,6.8493,6.8493,6.8493,6.8493,6.8493,6.8493,6.8493,6.8493,6.8493,6.8493,6.8493,6.8493,6.8493,6.8493,6.8493,6.8493,6.8493,6.8493,6.8493,6.8493,6.8493,6.8493,6.8493,6.8493,6.8493,6.8493,6.8734,6.8846,6.8857,6.9282,6.9592,5.3463,5.3938,5.4439,5.4439,5.4319,5.4159,5.4029,5.4239,5.4455,5.4455,0.0,5.4608,5.4582,5.5211,5.572,5.5789,5.6418,0.0,0.0,0.0,5.8245,0.0,0.0,0.0,0.0,0.0,0.0,0.0,0.0,0.0,0.0,6.1013,6.1392,6.1392,6.1461,6.185,6.2574,6.2618,6.2953,0.0,6.3609,6.3609,6.3627,6.4297,6.5006,6.5756,6.7039,6.7653,6.77,6.77,6.77,6.77,6.77,6.77,6.77,6.77,6.77,6.77,6.77,6.7707,6.7767,6.7986,6.8083,6.8146,6.8408,6.8481,6.8493,6.8493,6.8493,6.8493,6.8493,6.8493,6.8493,6.8493,6.8493,6.8493,6.8493,6.8493,6.8493,6.8493,6.8493,6.8493,6.8493,6.8493,6.8493,6.8493,6.8493,6.8493,6.8493,6.8493,6.8493,6.8493,6.8493,6.8493,6.8493,6.8493,6.8531,6.8605,6.8605,6.8642,6.8716,6.8568,6.8493,6.8493,6.8493,6.8493,6.8493,6.8493,6.8493,6.8506,6.89,6.9053,5.3867,5.4088,5.4102,5.4102,5.407,5.4029,5.4005,5.4135,5.4271,5.4271,5.476,5.5256,5.5351,5.6004,5.6736,5.7314,5.7556,5.79,5.8659,0.0,0.0,0.0,0.0,0.0,0.0,0.0,0.0,0.0,0.0,0.0,6.1047,6.1815,6.2229,6.2229,6.2816,6.3195,6.3367,6.3367,6.3436,0.0,6.3609,6.3609,6.3627,6.4297,6.527,6.6464,6.678,6.7202,6.77,6.77,6.77,6.77,6.77,6.77,6.77,6.77,6.77,6.77,6.77,6.7774,6.788,6.7939,6.8094,6.8265,6.8321,6.8414,6.8493,6.8493,6.8493,6.8493,6.8493,6.8493,6.8493,6.8493,6.8493,6.8493,6.8493,6.8493,6.8493,6.8493,6.8493,6.8493,6.8493,6.8493,6.8493,6.8493,6.8493,6.8493,6.8493,6.8493,6.8493,6.8493,6.8493,6.8493,6.8493,6.8493,6.8753,6.9385,6.9459,6.9713,7.0344,6.9162,6.8493,6.8493,6.8493,6.8493,6.8493,6.8493,6.8493,6.8493,6.8571,6.8803,5.4136,5.4159,5.4062,5.3899,5.3857,5.3841,5.3793,5.4098,5.4419,5.4468,5.5032,5.5624,5.5976,5.6664,5.7352,5.7823,5.8143,5.8496,5.8961,0.0,0.0,0.0,0.0,0.0,0.0,0.0,0.0,0.0,0.0,6.1875,6.1875,6.2609,6.3022,6.3022,6.3402,6.3609,6.3609,6.3609,6.3609,6.3609,6.3609,6.3767,6.4111,6.4753,6.5673,6.6714,6.7046,6.7385,6.77,6.77,6.77,6.77,6.77,6.77,6.77,6.77,6.77,6.77,6.77,6.7754,6.782,6.7893,6.8004,6.8139,6.8259,6.8346,6.8414,6.8475,6.8493,6.8493,6.8493,6.8493,6.8493,6.8493,6.8493,6.8493,6.8493,6.8493,6.8493,6.8493,6.8493,6.8493,6.8493,6.8493,6.8493,6.8493,6.8493,6.8493,6.8493,6.8493,6.8493,6.8493,6.8828,6.9088,6.9088,6.9422,6.9831,7.0233,7.027,7.0456,7.0864,7.0084,6.9645,6.9645,6.9267,6.9088,6.9088,6.8679,6.8493,6.8493,6.8493,6.8601,5.4223,5.4127,5.4013,5.3734,5.3667,5.366,5.3687,5.4186,5.472,5.5077,5.5542,5.6038,5.6582,5.7286,5.7861,5.8048,5.8505,5.8875,5.8978,5.9004,0.0,0.0,0.0,0.0,0.0,0.0,0.0,0.0,0.0,6.2678,6.2678,6.3264,6.3609,6.3609,6.3609,6.3609,6.3609,6.3609,6.3609,6.3609,6.3609,6.3877,6.4437,6.513,6.5893,6.6721,6.7301,6.7606,6.77,6.77,6.77,6.77,6.77,6.77,6.77,6.77,6.77,6.77,6.77,6.77,6.7721,6.784,6.7893,6.7952,6.817,6.8259,6.8315,6.8426,6.8475,6.8493,6.8493,6.8493,6.8493,6.8493,6.8493,6.8493,6.8493,6.8493,6.8493,6.8493,6.8493,6.8493,6.8493,6.8493,6.8493,6.8493,6.8493,6.8493,6.8493,6.8605,6.8716,6.8716,6.9422,6.9899,6.9899,7.053,7.0939,7.1094,7.1131,7.1205,7.1316,7.1316,7.1316,7.1316,7.0388,6.9899,6.9899,6.923,6.8902,6.8902,6.8753,6.8716,5.4062,5.3826,5.3576,5.3526,5.3517,5.3678,5.4304,5.4627,5.5102,0.0,5.6716,5.7011,5.7364,5.8119,5.8703,5.884,5.8918,5.8978,5.8995,5.9004,5.9245,0.0,0.0,0.0,0.0,0.0,0.0,0.0,6.3022,6.3436,6.3436,6.354,6.3609,6.3609,6.3609,6.3609,6.3609,6.3609,6.3609,6.3609,6.3609,6.3664,6.3758,6.4445,6.5449,6.6699,6.678,6.716,6.77,6.77,6.77,6.77,6.77,6.77,6.77,6.77,6.77,6.77,6.77,6.77,6.77,6.7721,6.7814,6.7919,6.7958,6.812,6.8296,6.8315,6.8402,6.8493,6.8493,6.8493,6.8493,6.8493,6.8493,6.8493,6.8493,6.8493,6.8493,6.8493,6.8493,6.8493,6.8493,6.8493,6.8493,6.8493,6.8493,6.8493,6.8493,6.9125,6.9527,6.9527,7.027,7.0753,7.0753,7.0827,7.1211,7.1973,7.2048,7.2345,7.3044,7.3082,7.3082,7.3082,7.1546,7.0753,7.0753,7.0642,7.0567,7.0567,6.9868,6.9527,5.3882,5.3676,5.3509,5.3509,5.3822,5.4203,5.4541,5.5278,5.6084,5.6681,5.7209,5.7659,5.803,5.8504,5.884,5.8978,5.8953,5.8892,5.8987,5.9383,5.9806,0.0,0.0,0.0,0.0,0.0,0.0,0.0,6.3436,6.3609,6.3609,6.3609,6.3609,6.3609,6.3609,6.3609,6.3609,6.3609,6.3609,6.3609,6.3609,6.3609,6.3618,6.393,6.4566,6.5553,6.6344,6.6889,6.716,6.7565,6.77,6.77,6.77,6.77,6.77,6.77,6.77,6.77,6.77,6.77,6.77,6.77,6.7741,6.7814,6.7886,6.7997,6.81,6.8177,6.8284,6.8383,6.8383,6.8439,6.8493,6.8493,6.8493,6.8493,6.8493,6.8493,6.8493,6.8493,6.8493,6.8493,6.8493,6.8493,6.8493,6.8493,6.8865,6.9162,6.9162,6.9862,7.0382,7.0382,7.1137,7.1626,7.1626,7.2035,7.245,7.2865,7.2872,7.3014,7.3385,7.3385,7.3385,7.3385,7.2227,7.1626,7.1626,7.1131,7.0902,7.0902,7.053,7.0382,5.3808,5.3651,5.356,5.378,5.4228,5.471,5.5082,5.6021,5.6867,5.7036,5.7555,5.8054,5.8375,5.8543,5.871,5.8935,5.8866,5.8909,5.9254,5.9806,6.0358,6.0746,0.0,0.0,0.0,0.0,0.0,0.0,6.3609,6.3609,6.3609,6.3609,6.3609,6.3609,6.3609,6.3609,6.3609,6.3609,6.3609,6.3609,6.3609,6.3609,6.3609,6.3776,6.4146,6.4678,6.5878,6.6633,6.6997,6.7488,6.77,6.77,6.77,6.77,6.77,6.77,6.77,6.77,6.77,6.77,6.77,6.77,6.77,6.7721,6.7827,6.7913,6.7954,6.8057,6.8234,6.8346,6.8346,6.842,6.8493,6.8493,6.8493,6.8493,6.8493,6.8493,6.8493,6.8493,6.8493,6.8493,6.8493,6.8679,6.8791,6.8791,6.9496,7.001,7.001,7.0722,7.1242,7.1242,7.2004,7.25,7.25,7.3051,7.3385,7.3385,7.3385,7.3385,7.3385,7.3385,7.3385,7.3385,7.2797,7.25,7.25,7.1849,7.1539,7.1539,7.1316,7.1242,5.3931,5.3759,5.3687,5.4542,5.4669,5.4981,5.6359,5.6722,5.7002,5.7688,5.8002,5.8205,5.8198,5.8207,5.8375,5.8736,5.8788,5.9115,6.003,6.0185,6.0746,6.2195,0.0,0.0,0.0,0.0,0.0,0.0,6.3609,6.3609,6.3609,6.3609,6.3609,6.3609,6.3609,6.3609,6.3609,6.3609,6.3609,6.3609,6.3609,6.3609,6.3627,6.4262,6.4566,6.4644,6.5332,6.6398,6.766,6.7687,6.77,6.77,6.77,6.77,6.77,6.77,6.77,6.77,6.77,6.77,6.77,6.77,6.77,6.77,6.7707,6.7899,6.8076,6.8083,6.8303,6.8481,6.8481,6.8487,6.8493,6.8493,6.8493,6.8493,6.8493,6.8493,6.8493,6.8493,6.8493,6.8493,6.8493,6.9125,6.9639,6.9639,7.0307,7.0827,7.0827,7.1589,7.2128,7.2128,7.2865,7.3348,7.3348,7.3385,7.3385,7.3385,7.3385,7.3385,7.3385,7.3385,7.3385,7.3385,7.3348,7.3348,7.3348,7.3274,7.3274,7.3237,7.2494,7.2128,5.3726,5.4099,5.4549,5.4644,5.5458,5.6315,5.6724,5.7171,5.7586,5.7857,5.8054,5.818,5.818,5.8419,5.8622,5.8796,5.9331,5.9805,6.0142,6.1056,6.1884,6.2436,0.0,0.0,0.0,0.0,0.0,0.0,0.0,6.3609,6.3609,6.3609,6.3609,6.3609,6.3609,6.3609,6.3609,6.3609,6.3609,6.3609,6.3609,6.3609,6.3618,6.3858,6.4445,6.527,6.5486,6.6148,6.7089,6.7508,6.77,6.77,6.77,6.77,6.77,6.77,6.77,6.77,6.77,6.77,6.77,6.77,6.77,6.77,6.77,6.7774,6.7873,6.7965,6.8083,6.8271,6.8346,6.8432,6.8642,6.9162,6.9676,7.0054,7.0054,6.9236,6.8642,6.9162,6.9267,6.9422,6.9942,7.027,7.0456,7.0456,7.1174,7.1744,7.1744,7.2456,7.2977,7.2977,7.3237,7.3385,7.3385,7.3385,7.3385,7.3385,7.3385,7.3385,7.3385,7.3385,7.3385,7.3385,7.3385,7.3385,7.3385,7.3385,7.3385,7.3385,7.3088,7.2977,5.3923,5.4423,5.5017,5.54,5.6291,5.7124,5.7229,5.7652,5.7972,5.7909,5.8054,5.818,5.818,5.8739,5.9157,5.9157,5.9675,6.0296,6.0875,6.185,6.2574,6.285,6.3298,0.0,0.0,0.0,0.0,0.0,0.0,0.0,6.3609,6.3609,6.3609,6.3609,6.3609,6.3609,6.3609,6.3609,6.3609,6.3609,6.3609,6.3609,6.3618,6.3849,6.441,6.5275,6.5776,6.6381,6.7075,6.7508,6.77,6.77,6.77,6.77,6.77,6.77,6.77,6.77,6.77,6.77,6.77,6.77,6.77,6.77,6.77,6.7918,6.8192,6.8285,6.8633,6.8979,6.9086,6.9212,6.9459,6.9979,7.0493,7.0902,7.0902,7.0047,6.9459,7.001,7.0084,7.027,7.0827,7.1131,7.1323,7.1323,7.2041,7.2611,7.2611,7.3051,7.3385,7.3385,7.3385,7.3385,7.3385,7.3385,7.3385,7.3385,7.3385,7.3385,7.3385,7.3385,7.3385,7.3385,7.3385,7.3385,7.3385,7.3385,7.3385,7.3385,7.3385,7.3385,0.0,0.0,0.0,5.6858,5.7223,5.7339,5.8062,5.8223,5.8135,5.7945,5.8054,5.8223,5.8214,5.915,5.9912,5.9947,5.9981,6.0577,6.2271,6.2505,6.2781,6.3505,6.3609,0.0,0.0,0.0,0.0,0.0,6.3609,6.3609,6.3609,6.3609,6.3609,6.3609,6.3609,6.3609,6.3609,6.3609,6.3609,6.3609,6.3609,6.3609,6.3627,6.4279,6.4583,6.4686,6.6069,6.7054,6.768,6.7694,6.77,6.77,6.77,6.77,6.77,6.77,6.77,6.77,6.77,6.7737,6.7737,6.7737,6.7737,6.7774,6.7774,6.8412,6.9138,6.9138,6.989,7.0691,7.0697,7.0794,7.0932,7.0932,7.0939,7.0976,7.0976,7.0976,7.0976,7.0939,7.0939,7.0939,7.0976,7.1663,7.224,7.224,7.2909,7.3385,7.3385,7.3385,7.3385,7.3385,7.3385,7.3385,7.3385,7.3385,7.3385,7.3385,7.3385,7.3385,7.3385,7.3385,7.3385,7.3385,7.3385,7.3385,7.3385,7.3385,7.3385,7.3385,7.3385,7.3385,5.5426,0.0,0.0,0.0,0.0,0.0,5.8386,5.8419,5.8375,5.8144,5.8294,5.8545,5.8937,5.9474,6.0256,6.1371,6.1679,6.1934,6.2436,6.2953,6.3367,6.3574,6.3609,0.0,0.0,0.0,0.0,0.0,6.3609,6.3609,6.3609,6.3609,6.3609,6.3609,6.3609,6.3609,6.3609,6.3609,6.3609,6.3609,6.3609,6.3609,6.3609,6.3794,6.412,6.4661,6.5529,6.6321,6.7018,6.7488,6.77,6.77,6.77,6.77,6.77,6.77,6.77,6.77,6.77,6.8098,6.8568,6.8568,6.8972,6.9456,6.9456,6.963,6.9825,6.9928,7.0163,7.0428,7.0534,7.1102,7.1614,7.1614,7.2181,7.271,7.271,7.271,7.2524,7.193,7.1856,7.2041,7.2599,7.2902,7.3051,7.3051,7.3274,7.3385,7.3385,7.3385,7.3385,7.3385,7.3385,7.3385,7.3385,7.3385,7.3385,7.3385,7.3385,7.3385,7.3385,7.3385,7.3385,7.3385,7.3385,7.3385,7.3385,7.3385,7.3385,7.3385,7.3385,7.3385,0.0,0.0,0.0,0.0,0.0,0.0,5.8525,5.8499,5.8428,5.8117,5.8479,5.8943,5.9225,6.0148,6.1139,6.2057,6.261,6.2953,6.2953,6.3333,6.3609,6.3609,6.3609,6.3609,0.0,6.3609,6.3609,6.3609,6.3609,6.3609,6.3609,6.3609,6.3609,6.3609,6.3609,6.3609,6.3609,6.3609,6.3609,6.3609,6.3609,6.3609,6.3609,6.3609,6.3821,6.427,6.5523,6.632,6.6833,6.8162,6.8325,6.77,6.77,6.7914,6.8208,6.8208,6.8428,6.8685,6.8685,6.9015,6.9412,6.9412,6.9706,7.0117,7.0117,7.033,7.0638,7.0684,7.1011,7.1351,7.1501,7.1935,7.2365,7.2365,7.2848,7.3331,7.3331,7.334,7.3274,7.2791,7.2679,7.2865,7.3311,7.3385,7.3385,7.3385,7.3385,7.3385,7.3385,7.3385,7.3385,7.3385,7.3385,7.3385,7.3385,7.3385,7.3385,7.3385,7.3385,7.3385,7.3385,7.3385,7.3385,7.3385,7.3385,7.3385,7.3385,7.3385,7.3385,7.3385,7.3385,7.3385,0.0,0.0,0.0,0.0,0.0,0.0,5.8552,5.8561,5.8464,5.8165,5.8796,5.9397,5.9549,6.1021,6.2229,6.2297,6.3057,6.3609,6.3609,6.3609,6.3609,6.3609,6.3609,6.3609,6.3609,6.3609,6.3609,6.3609,6.3609,6.3609,6.3609,6.3609,6.3609,6.3609,6.3609,6.3609,6.3609,6.3609,6.3609,6.3609,6.3609,6.3643,6.3703,6.3703,6.3781,6.3968,6.6029,6.6918,6.7103,6.9216,6.9272,6.7958,6.7958,6.8391,6.9038,6.9038,6.9486,7.0117,7.0117,7.0153,7.022,7.022,7.0293,7.0374,7.0374,7.0874,7.1417,7.1417,7.203,7.2716,7.2906,7.2955,7.2968,7.2968,7.3071,7.3172,7.3172,7.3278,7.3346,7.3359,7.3372,7.3385,7.3385,7.3385,7.3385,7.3385,7.3385,7.3385,7.3385,7.3385,7.3385,7.3385,7.3385,7.3385,7.3385,7.3385,7.3385,7.3385,7.3385,7.3385,7.3385,7.3385,7.3385,7.3385,7.3385,7.3385,7.3385,7.3385,7.3385,7.3385,7.3385,7.3385,0.0,0.0,0.0,0.0,0.0,0.0,5.8866,5.8892,5.9012,5.942,5.9667,6.012,6.1195,6.185,6.2394,6.2984,6.3367,6.3609,6.3609,6.3609,6.3609,6.3609,6.3609,6.3609,6.3609,6.3609,6.3609,6.3609,6.3609,6.3609,6.3609,6.3609,6.3609,6.3609,6.3609,6.3609,6.3609,6.3609,6.3609,6.3609,6.3609,6.3919,6.4496,6.4496,6.4851,6.5532,6.71,6.7766,6.7873,6.9464,6.9896,6.9639,6.9639,6.9713,6.9853,6.9853,6.9963,7.0117,7.0117,7.0506,7.1057,7.1057,7.1497,7.2018,7.2018,7.2121,7.2268,7.2268,7.24,7.2546,7.2574,7.2667,7.2758,7.2758,7.292,7.3037,7.3037,7.3057,7.3111,7.3219,7.3338,7.3385,7.3385,7.3385,7.3385,7.3385,7.3385,7.3385,7.3385,7.3385,7.3385,7.3385,7.3385,7.3385,7.3385,7.3385,7.3385,7.3385,7.3385,7.3385,7.3385,7.3385,7.3385,7.3385,7.3385,7.3385,7.3385,7.3385,7.3385,7.3385,7.3385,7.3385,0.0,0.0,0.0,5.8569,0.0,0.0,0.0,5.9185,5.9511,5.9712,6.0352,6.1104,6.1798,6.2348,6.2856,6.3224,6.347,6.3609,6.3609,6.3609,6.3609,6.3609,6.3609,6.3609,6.3609,6.3609,6.3609,6.3609,6.3609,6.3609,6.3609,6.3609,6.3609,6.3609,6.3609,6.3609,6.3609,6.3609,6.3781,6.4152,6.4152,6.454,6.5299,6.5299,6.5506,6.5981,6.7798,6.8604,6.8747,7.0557,7.1284,7.1211,7.0403,7.033,7.069,7.069,7.0954,7.1284,7.1284,7.1571,7.1901,7.1901,7.2158,7.2488,7.2488,7.2488,7.2488,7.2488,7.2488,7.2488,7.2488,7.2546,7.2596,7.2596,7.2786,7.2996,7.2996,7.3111,7.3232,7.3298,7.3333,7.3385,7.3385,7.3385,7.3385,7.3385,7.3385,7.3385,7.3385,7.3385,7.3385,7.3385,7.3385,7.3385,7.3385,7.3385,7.3385,7.3385,7.3385,7.3385,7.3385,7.3385,7.3385,7.3385,7.3385,7.3385,7.3385,7.3385,7.3385,7.3385,7.3385,7.3385,0.0,0.0,0.0,0.0,0.0,5.8942,0.0,0.0,0.0,6.0156,6.1147,6.2062,6.2199,6.2834,6.3315,6.3177,0.0,0.0,0.0,6.3505,0.0,6.3609,6.3609,6.3609,6.3609,6.3609,6.3609,6.3609,6.3609,6.3609,6.3609,6.3609,6.3609,6.3609,6.3609,6.3678,6.3816,6.3807,6.4186,6.4945,6.4945,6.5368,6.6137,6.6264,6.64,6.6633,6.8731,6.9614,6.9777,7.1703,7.2488,7.2386,7.1064,7.0947,7.1527,7.1527,7.1938,7.2488,7.2488,7.2488,7.2488,7.2488,7.2488,7.2488,7.2488,7.2488,7.2488,7.2488,7.2488,7.2488,7.2488,7.2488,7.2488,7.2488,7.2725,7.2913,7.2941,7.3094,7.3274,7.3333,7.3346,7.3353,7.3416,7.3385,7.3385,7.3385,7.3385,7.3385,7.3385,7.3385,7.3385,7.3385,7.3385,7.3385,7.3385,7.3385,7.3385,7.3385,7.3385,7.3385,7.3385,7.3385,7.3385,7.3385,7.3385,7.3385,7.3385,7.3385,7.3385,7.3385,7.3385,7.3385,0.0,0.0,0.0,0.0,5.887,0.0,0.0,0.0,6.1357,6.2037,0.0,0.0,0.0,0.0,0.0,0.0,0.0,0.0,6.2712,6.3195,6.3609,6.3609,6.3609,6.3609,6.3609,6.3609,6.3609,6.3609,6.3609,6.3609,6.3609,6.3609,6.3609,6.3609,6.3609,6.3919,6.4565,6.4565,6.4989,6.5757,6.5757,6.6162,6.6915,6.7566,6.823,6.8899,7.0477,7.1151,7.1214,7.213,7.2488,7.2496,7.2312,7.2268,7.2342,7.2342,7.2415,7.2488,7.2488,7.2488,7.2488,7.2488,7.2488,7.2488,7.2488,7.2488,7.2488,7.2488,7.2488,7.2488,7.2488,7.2488,7.2488,7.2488,7.2524,7.2582,7.2709,7.2765,7.2869,7.3172,7.3225,7.3265,7.3366,7.3385,7.3385,7.3385,7.3385,7.3385,7.3385,7.3385,7.3385,7.3385,7.3385,7.3385,7.3385,7.3385,7.3385,7.3385,7.3385,7.3385,7.3385,7.3385,7.3385,7.3385,7.3385,7.3385,7.3385,7.3385,7.3385,7.3385,7.3385,7.3385,0.0,0.0,0.0,0.0,0.0,0.0,0.0,0.0,6.2091,0.0,0.0,0.0,0.0,0.0,0.0,0.0,6.3402,0.0,0.0,0.0,6.3609,0.0,0.0,0.0,6.3609,0.0,0.0,0.0,6.3609,6.3609,6.3609,6.3609,6.3609,6.3609,6.4014,6.4393,6.4703,6.5161,6.5782,6.6541,6.6541,6.692,6.7674,6.8409,6.891,6.9264,7.0764,7.1406,7.1453,7.2197,7.2488,7.2488,7.2488,7.2488,7.2488,7.2488,7.2488,7.2488,7.2488,7.2488,7.2488,7.2488,7.2488,7.2488,7.2488,7.2488,7.2488,7.2488,7.2488,7.2488,7.2488,7.2488,7.2488,7.2488,7.2553,7.2631,7.2695,7.2849,7.3044,7.3172,7.3265,7.3314,7.3379,7.3385,7.3385,7.3385,7.3385,7.3385,7.3385,7.3385,7.3385,7.3385,7.3385,7.3385,7.3385,7.3385,7.3385,7.3385,7.3385,7.3385,7.3385,7.3385,7.3385,7.3385,7.3385,7.3385,7.3385,7.3385,7.3385,7.3385,7.3385,7.3385,5.8466,0.0,0.0,0.0,0.0,0.0,0.0,0.0,0.0,0.0,0.0,0.0,0.0,0.0,0.0,0.0,0.0,6.354,0.0,6.3471,0.0,0.0,0.0,0.0,0.0,0.0,0.0,0.0,0.0,6.3609,6.3609,6.3609,6.3678,6.3919,6.4427,6.491,6.5324,6.592,6.6575,6.73,6.73,6.7576,6.8113,6.8863,6.9301,6.9582,7.0855,7.1508,7.1754,7.227,7.2488,7.2488,7.2488,7.2488,7.2488,7.2488,7.2488,7.2488,7.2488,7.2488,7.2488,7.2488,7.2488,7.2488,7.2488,7.2488,7.2488,7.2488,7.2488,7.2488,7.2488,7.2488,7.2488,7.2488,7.2758,7.2991,7.3033,7.34,7.3757,7.3791,7.3926,7.3995,7.3995,7.3656,7.3385,7.3385,7.3385,7.3385,7.3385,7.3385,7.3385,7.3385,7.3385,7.3385,7.3385,7.3385,7.3385,7.3385,7.3385,7.3385,7.3385,7.3385,7.3385,7.3385,7.3385,7.3385,7.3385,7.3385,7.3385,7.3385,7.3385,7.3385,0.0,0.0,0.0,6.0056,0.0,0.0,0.0,0.0,6.3574,0.0,0.0,0.0,0.0,0.0,0.0,0.0,0.0,0.0,0.0,0.0,0.0,0.0,0.0,0.0,0.0,6.3609,6.3609,0.0,6.3609,0.0,6.3609,6.3609,6.3919,6.4634,6.4703,6.5437,6.692,6.6955,6.7334,6.8049,6.8049,6.8083,6.8113,6.8863,6.96,7.0309,7.1067,7.1815,7.246,7.2481,7.2488,7.2488,7.2488,7.2488,7.2488,7.2488,7.2488,7.2488,7.2488,7.2488,7.2488,7.2488,7.2488,7.2488,7.2488,7.2488,7.2488,7.2488,7.2488,7.2488,7.2488,7.2488,7.2488,7.2488,7.309,7.3685,7.3822,7.4491,7.5101,7.5273,7.5435,7.5539,7.5539,7.4363,7.3385,7.3385,7.3385,7.3385,7.3385,7.3385,7.3385,7.3385,7.3385,7.3385,7.3385,7.3385,7.3385,7.3385,7.3385,7.3385,7.3385,7.3385,7.3385,7.3385,7.3385,7.3385,7.3385,7.3385,7.3385,7.3385,7.3385,7.3385,0.0,0.0,6.0892,6.0892,0.0,0.0,0.0,0.0,0.0,0.0,0.0,0.0,0.0,0.0,0.0,0.0,0.0,0.0,0.0,0.0,0.0,0.0,0.0,0.0,0.0,0.0,0.0,0.0,6.3609,0.0,6.3609,6.3609,6.3954,6.4669,6.523,6.5989,6.6989,6.7472,6.7842,6.8083,6.8083,6.8083,6.8133,6.9374,7.0059,7.0368,7.1594,7.2255,7.2488,7.2488,7.2488,7.2488,7.2488,7.2488,7.2488,7.2488,7.2488,7.2488,7.2488,7.2488,7.2488,7.2488,7.2488,7.2488,7.2488,7.2488,7.2488,7.2488,7.2899,7.331,7.331,7.3707,7.4103,7.4103,7.4287,7.4522,7.4537,7.4853,7.5131,7.5182,7.5347,7.5488,7.5586,7.5203,7.49,7.4963,7.4983,7.4983,7.4983,7.4983,7.4983,7.4983,7.4983,7.476,7.424,7.372,7.3385,7.3385,7.3385,7.3385,7.3385,7.3385,7.3385,7.3385,7.3385,7.3385,7.3385,7.3385,7.3385,7.3385,7.3385,7.3385,6.0868,6.1308,0.0,6.167,6.2305,0.0,6.299,0.0,0.0,0.0,0.0,0.0,0.0,0.0,0.0,0.0,0.0,0.0,0.0,0.0,0.0,0.0,0.0,0.0,0.0,0.0,6.3609,6.3609,6.3609,6.3609,0.0,0.0,6.4324,6.5092,6.5886,6.6644,6.7369,6.7842,6.8083,6.8083,6.8083,6.8083,6.8133,6.9365,7.005,7.0368,7.1578,7.2248,7.2488,7.2488,7.2488,7.2488,7.2488,7.2488,7.2488,7.2488,7.2488,7.2488,7.2488,7.2488,7.2488,7.2488,7.2488,7.2562,7.2826,7.2936,7.2973,7.3259,7.3744,7.4147,7.4147,7.4507,7.4903,7.4903,7.5131,7.5315,7.5315,7.5617,7.5868,7.5868,7.6037,7.6205,7.6312,7.6381,7.6285,7.5885,7.5794,7.5794,7.5794,7.5794,7.5794,7.5794,7.5794,7.5571,7.5051,7.4537,7.424,7.424,7.398,7.3831,7.3831,7.3534,7.3385,7.3385,7.3385,7.3385,7.3385,7.3385,7.3385,7.3385,7.3385,7.3385]},{"header":{"parameterUnit":"m.s-1","parameterCategory":1,"la1":30.6,"la2":29.2853,"lo1":-89.7004,"lo2":-87.6739,"dy":0.0162,"dx":0.0183,"nx":112,"ny":82,"refTime":"2023-03-17T00:00:00:Z","depth":0,"parameterNumber":3,"parameterNumberName":"V-component_of_WINDS"},"data":[0.0,0.0,0.0,0.0,0.0,0.0,0.0,0.0,0.0,0.0,0.0,0.0,0.0,0.0,0.0,0.0,0.0,0.0,0.0,0.0,0.0,0.0,0.0,0.0,0.0,0.0,0.0,0.0,0.0,0.0,0.0,0.0,0.0,0.0,0.0,0.0,0.0,0.0,0.0,0.0,0.0,0.0,0.0,0.0,0.0,0.0,0.0,0.0,0.0,0.0,0.0,0.0,0.0,0.0,0.0,0.0,0.0,0.0,0.0,0.0,0.0,0.0,0.0,0.0,0.0,0.0,0.0,0.0,0.0,0.0,0.0,0.0,0.0,0.0,0.0,0.0,0.0,0.0,0.0,0.0,0.0,0.0,0.0,0.0,0.0,0.0,0.0,0.0,0.0,0.0,0.0,0.8534,0.8132,0.7903,0.7903,0.7903,0.7903,0.7903,0.0,0.0,0.0,0.0,0.0,0.0,0.0,0.0,0.0,0.0,0.0,0.0,0.0,0.0,0.0,0.0,0.0,0.0,0.0,0.0,0.0,0.0,0.0,0.0,0.0,0.0,0.0,0.0,0.0,0.0,0.0,0.0,0.0,0.0,0.0,0.0,0.0,0.0,0.0,0.0,0.0,0.0,0.0,0.0,0.0,0.0,0.0,0.0,0.0,0.0,0.0,0.0,0.0,0.0,0.0,0.0,0.0,0.0,0.0,0.0,0.0,0.0,0.0,0.0,0.0,0.0,0.0,0.0,0.0,0.0,0.0,0.0,0.0,0.0,0.0,0.0,0.0,0.0,0.0,0.0,0.0,0.0,0.0,0.0,0.0,0.0,0.0,0.0,0.0,0.0,0.0,0.0,0.0,0.0,0.0,0.0,0.0,0.0,0.0,0.0,0.0,0.0,0.0,0.0,0.8931,0.8839,0.8269,0.7903,0.7903,0.7903,0.7903,0.7903,0.0,0.0,0.0,0.0,0.0,0.0,0.0,0.0,0.0,0.0,0.0,0.0,0.0,0.0,0.0,0.0,0.0,0.0,0.0,0.0,0.0,0.0,0.0,0.0,0.0,0.0,0.0,0.0,0.0,0.0,0.0,0.0,0.0,0.0,0.0,0.0,0.0,0.0,0.0,0.0,0.0,0.0,0.0,0.0,0.0,0.0,0.0,0.0,0.0,0.0,0.0,0.0,0.0,0.0,0.0,0.0,0.0,0.0,0.0,0.0,0.0,0.0,0.0,0.0,0.0,0.0,0.0,0.0,0.0,0.0,0.0,0.0,0.0,0.0,0.0,0.0,0.0,0.0,0.0,0.0,0.0,0.0,0.0,0.0,0.0,0.0,0.0,0.0,0.0,0.0,0.0,0.0,0.0,0.0,0.0,0.0,0.0,0.0,0.0,0.0,0.0,0.0,0.0,0.89,0.89,0.89,0.8458,0.8107,0.7918,0.7903,0.7903,0.7903,0.7903,0.0,0.0,0.0,0.0,0.0,0.0,0.0,0.0,0.0,0.0,0.0,0.0,0.0,0.0,0.0,0.0,0.0,0.0,0.0,0.0,0.0,0.0,0.0,0.0,0.0,0.0,0.0,0.0,0.0,0.0,0.0,0.0,0.0,0.0,0.0,0.0,0.0,0.0,0.0,0.0,0.0,0.0,0.0,0.0,0.0,0.0,0.0,0.0,0.0,0.0,0.0,0.0,0.0,0.0,0.0,0.0,0.0,0.0,0.0,0.0,0.0,0.0,0.0,0.0,0.0,0.0,0.0,0.0,0.0,0.0,0.0,0.0,0.0,0.0,0.0,0.0,0.0,0.0,0.0,0.0,0.0,0.0,0.0,0.0,0.0,0.0,0.0,0.0,0.0,0.0,0.0,0.0,0.0,0.0,0.0,0.0,0.0,0.0,0.0,0.0,0.0,0.0,0.9083,0.8976,0.89,0.8595,0.8259,0.7933,0.7903,0.7903,0.7903,0.7903,0.0,0.0,0.0,0.0,0.0,0.0,0.0,0.0,0.0,0.0,0.0,0.0,0.0,0.0,0.0,0.0,0.0,0.0,0.0,0.0,0.0,0.0,0.0,0.0,0.0,0.0,0.0,0.0,0.0,0.0,0.0,0.0,0.0,0.0,0.0,0.0,0.0,0.0,0.0,0.0,0.0,0.0,0.0,0.0,0.0,0.0,0.0,0.0,0.0,0.0,0.0,0.0,0.0,0.0,0.0,0.0,0.0,0.0,0.0,0.0,0.0,0.0,0.0,0.0,0.0,0.0,0.0,0.0,0.0,0.0,0.0,0.0,0.0,0.0,0.0,0.0,0.0,0.0,0.0,0.0,0.0,0.0,0.0,0.0,0.0,0.0,0.0,0.0,0.0,0.0,0.0,0.0,0.0,0.0,0.0,0.0,0.0,0.0,0.0,0.0,0.0,0.0,0.9122,0.9168,0.8931,0.8595,0.8259,0.7933,0.7903,0.7903,0.7903,0.7903,0.0,0.0,0.0,0.0,0.0,0.0,0.0,0.0,0.0,0.0,0.0,0.0,0.0,0.0,0.0,0.0,0.0,0.0,0.0,0.0,0.0,0.0,0.0,0.0,0.0,0.0,0.0,0.0,0.0,0.0,0.0,0.0,0.0,0.0,0.0,0.0,0.0,0.0,0.0,0.0,0.0,0.0,0.0,0.0,0.0,0.0,0.0,0.0,0.0,0.0,0.0,0.0,0.0,0.0,0.0,0.0,0.0,0.0,0.0,0.0,0.0,0.0,0.0,0.0,0.0,0.0,0.0,0.0,0.0,0.0,0.0,0.0,0.0,0.0,0.0,0.0,0.0,0.0,0.0,0.0,0.0,0.0,0.0,0.0,0.0,0.0,0.0,0.0,0.0,0.0,0.0,0.0,0.0,0.0,0.0,0.0,0.0,0.0,0.0,0.0,0.0,0.0,0.8992,0.9007,0.0,0.8595,0.8259,0.7933,0.7903,0.7903,0.7903,0.0,0.0,0.0,0.0,0.0,0.0,0.0,0.0,0.0,0.0,0.0,0.0,0.0,0.0,0.0,0.0,0.0,0.0,0.0,0.0,0.0,0.0,0.0,0.0,0.0,0.0,0.0,0.0,0.0,0.0,0.0,0.0,0.0,0.0,0.0,0.0,0.0,0.0,0.0,0.0,0.0,0.0,0.0,0.0,0.0,0.0,0.0,0.0,0.0,0.0,0.0,0.0,0.0,0.0,0.0,0.0,0.0,0.0,0.0,0.0,0.0,0.0,0.0,0.0,0.0,0.0,0.0,0.0,0.0,0.0,0.0,0.0,0.0,0.0,0.0,0.0,0.0,0.0,0.0,0.0,0.0,0.0,0.0,0.0,0.0,0.0,0.0,0.0,0.0,0.0,0.0,0.0,0.0,0.0,0.0,0.0,0.0,0.0,0.0,0.0,0.0,0.0,0.887,0.8976,0.8992,0.0,0.8595,0.8259,0.7933,0.7903,0.7903,0.7903,0.0,0.0,0.0,0.0,0.0,0.0,0.0,0.0,0.0,0.0,0.0,0.0,0.0,0.0,0.0,0.0,0.0,0.0,0.0,0.0,0.0,0.0,0.0,0.0,0.0,0.0,0.0,0.0,0.0,0.0,0.0,0.0,0.0,0.0,0.0,0.0,0.0,0.0,0.0,0.0,0.0,0.0,0.0,0.0,0.0,0.0,0.0,0.0,0.0,0.0,0.0,0.0,0.0,0.0,0.0,0.0,0.0,0.0,0.0,0.0,0.0,0.0,0.0,0.0,0.0,0.0,0.0,0.0,0.0,0.0,0.0,0.0,0.0,0.0,0.0,0.0,0.0,0.0,0.0,0.0,0.0,0.0,0.0,0.0,0.0,0.0,0.0,0.0,0.0,0.0,0.0,0.0,0.0,0.0,0.0,0.0,0.0,0.0,0.0,0.0,0.0,0.0,0.89,0.9144,0.9205,0.8931,0.8595,0.8259,0.7933,0.7903,0.7903,0.0,0.0,0.0,0.0,0.0,0.0,0.0,0.0,0.0,0.0,0.0,0.0,0.0,0.0,0.0,0.0,0.0,0.0,0.0,0.0,0.0,0.0,0.0,0.0,0.0,0.0,0.0,0.0,0.0,0.0,0.0,0.0,0.0,0.0,0.0,0.0,0.0,0.0,0.0,0.0,0.0,0.0,0.0,0.0,0.0,0.0,0.0,0.0,0.0,0.0,0.0,0.0,0.0,0.0,0.0,0.0,0.0,0.0,0.0,0.0,0.0,0.0,0.0,0.0,0.0,0.0,0.0,0.0,0.0,0.0,0.0,0.0,0.0,0.0,0.0,0.0,0.0,0.0,0.0,0.0,0.0,0.0,0.0,0.0,0.0,0.0,0.0,0.0,0.0,0.0,0.0,0.0,0.0,0.0,0.0,0.0,0.0,0.0,0.0,0.0,0.0,0.0,0.0,0.89,0.9144,0.9205,0.8931,0.8595,0.8259,0.7933,0.7903,0.7903,0.7903,0.0,0.0,0.0,0.0,0.0,0.0,0.0,0.0,0.0,0.0,0.0,0.0,0.0,0.0,0.0,0.0,0.0,0.0,0.0,0.0,0.0,0.0,0.0,0.0,0.0,0.0,0.0,0.0,0.0,0.0,0.0,0.0,0.0,0.0,0.0,0.0,0.0,0.0,0.0,0.0,0.0,0.0,0.0,0.0,0.0,0.0,0.0,0.0,0.0,0.0,0.0,0.0,0.0,0.0,0.0,0.0,0.0,0.0,0.0,0.0,0.0,0.0,0.0,0.0,0.0,0.0,0.0,0.0,0.0,0.0,0.0,0.0,0.0,0.0,0.0,0.0,0.0,0.0,0.0,0.0,0.0,0.0,0.0,0.0,0.0,0.0,0.0,0.0,0.0,0.0,0.0,0.0,0.0,0.0,0.0,0.0,0.0,0.0,0.0,0.0,0.0,0.0,0.9053,0.9199,0.9205,0.8931,0.8595,0.8259,0.7933,0.7903,0.7903,0.7903,0.0,0.0,0.0,0.0,0.0,0.0,0.0,0.0,0.0,0.0,0.0,0.0,0.0,0.0,0.0,0.0,0.0,0.0,0.0,0.0,0.0,0.0,0.0,0.0,0.0,0.0,0.0,0.0,0.0,0.0,0.0,0.0,0.0,0.0,0.0,0.0,0.0,0.0,0.0,0.0,0.0,0.0,0.0,0.0,0.0,0.0,0.0,0.0,0.0,0.0,0.0,0.0,0.0,0.0,0.0,0.0,0.0,0.0,0.0,0.0,0.0,0.0,0.0,0.0,0.0,0.0,0.0,0.0,0.0,0.0,0.0,0.0,0.0,0.0,0.0,0.0,0.0,0.0,0.0,0.0,0.0,0.0,0.0,0.0,0.0,0.0,0.0,0.0,0.0,0.0,0.0,0.0,0.0,0.0,0.0,0.0,0.0,0.0,0.0,0.0,0.0,0.0,0.9275,0.932,0.9229,0.8931,0.8626,0.8305,0.7933,0.7903,0.7903,0.7903,0.0,0.0,0.0,0.0,0.0,0.0,0.0,0.0,0.0,0.0,0.0,0.0,0.0,0.0,0.0,0.0,0.0,0.0,0.0,0.0,0.0,0.0,0.0,0.0,0.0,0.0,0.0,0.0,0.0,0.0,0.0,0.0,0.0,0.0,0.0,0.0,0.0,0.0,0.0,0.0,0.0,0.0,0.0,0.0,0.0,0.0,0.0,0.0,0.0,0.0,0.0,0.0,0.0,0.0,0.0,0.0,0.0,0.0,0.0,0.0,1.7493,0.0,0.0,0.0,0.0,0.0,0.0,0.0,0.0,0.0,0.0,0.0,0.0,0.0,0.0,0.0,0.0,0.0,0.0,0.0,0.0,0.0,0.0,0.0,0.0,0.0,0.0,0.0,0.0,0.0,0.0,0.0,0.0,0.0,0.0,0.0,0.0,0.0,0.0,0.0,0.0,0.0,0.929,0.9533,0.9488,0.8961,0.8839,0.8549,0.7948,0.7903,0.7903,0.7903,0.0,0.0,0.0,0.0,0.0,0.0,0.0,0.0,0.0,0.0,0.0,0.0,0.0,0.0,0.0,0.0,0.0,0.0,0.0,0.0,0.0,0.0,0.0,0.0,0.0,0.0,0.0,0.0,0.0,0.0,0.0,0.0,0.0,0.0,0.0,0.0,0.0,0.0,0.0,0.0,0.0,0.0,0.0,0.0,0.0,0.0,0.0,0.0,0.0,0.0,0.0,0.0,0.0,0.0,0.0,0.0,0.0,0.0,0.0,0.0,0.0,1.7156,0.0,0.0,0.0,0.0,0.0,0.0,0.0,0.0,0.0,0.0,0.0,0.0,0.0,0.0,0.0,0.0,0.0,0.0,0.0,0.0,0.0,0.0,0.0,0.0,0.0,0.0,0.0,0.0,0.0,0.0,0.0,0.0,0.0,0.0,0.0,0.0,0.0,0.0,0.0,0.0,0.9518,0.9548,0.9381,0.8946,0.8748,0.8458,0.7948,0.7903,0.7903,0.7903,0.7903,0.0,0.0,0.0,0.0,0.0,0.0,0.0,0.0,0.0,0.0,0.0,0.0,0.0,0.0,0.0,0.0,0.0,0.0,0.0,0.0,0.0,0.0,0.0,0.0,0.0,0.0,0.0,0.0,0.0,0.0,0.0,0.0,0.0,0.0,0.0,0.0,0.0,0.0,0.0,0.0,0.0,0.0,0.0,0.0,0.0,0.0,0.0,0.0,0.0,0.0,0.0,0.0,0.0,1.7493,1.7493,1.7493,1.7493,1.7493,1.7493,1.7493,1.6906,1.5924,0.0,0.0,0.0,0.0,0.0,0.0,0.0,0.0,0.0,0.0,0.0,0.0,0.0,0.0,0.0,0.0,0.0,0.0,0.0,0.0,0.0,0.0,0.0,0.0,0.0,1.5169,1.5643,0.0,0.0,0.0,0.0,0.0,0.0,0.0,0.0,0.0,0.0,0.0,0.0,0.9685,0.9472,0.9168,0.8854,0.8571,0.8259,0.7933,0.7903,0.7903,0.7903,0.7903,0.7903,0.0,0.0,0.0,0.0,0.0,0.0,0.0,0.0,0.0,0.0,0.0,0.0,0.0,0.0,0.0,0.0,0.0,0.0,0.0,0.0,0.0,0.0,0.0,0.0,0.0,0.0,0.0,0.0,0.0,0.0,0.0,0.0,1.7849,1.7888,0.0,0.0,0.0,0.0,0.0,0.0,0.0,0.0,0.0,0.0,0.0,0.0,0.0,1.7493,1.7493,1.7493,1.7493,1.7493,1.7493,1.7493,1.7493,1.7493,1.7493,1.7493,1.7493,0.0,1.7244,1.7244,0.0,0.0,0.0,0.0,0.0,0.0,0.0,0.0,0.0,0.0,0.0,0.0,0.0,0.0,0.0,0.0,0.0,0.0,0.0,0.0,0.0,0.0,1.7214,1.7038,1.7126,1.72,0.0,1.5258,1.365,1.347,0.0,0.0,0.0,0.0,0.0,0.0,0.0,0.0,0.9396,0.932,0.9083,0.8519,0.8427,0.8259,0.7933,0.7903,0.7903,0.7903,0.7903,0.7893,0.7894,0.7893,0.0,0.0,0.0,0.0,0.0,0.0,0.0,0.0,0.0,0.0,0.0,0.0,0.0,0.0,0.0,0.0,0.0,0.0,0.0,0.0,0.0,0.0,0.0,0.0,0.0,0.0,0.0,0.0,0.0,1.7911,1.8165,1.8018,1.8,1.7928,0.0,0.0,0.0,0.0,0.0,0.0,0.0,0.0,0.0,1.7493,1.7493,1.7493,1.7493,1.7493,1.7493,1.7493,1.7493,1.7493,1.7493,1.7493,1.7493,1.7493,1.7493,1.7493,1.7493,1.7493,1.717,1.6673,0.0,0.0,0.0,0.0,1.5846,1.5846,1.5846,1.5846,0.0,0.0,0.0,0.0,0.0,0.0,0.0,0.0,0.0,0.0,0.0,0.0,0.0,1.7493,1.7493,1.7493,1.7493,1.6614,1.5614,0.0,1.4768,1.4152,1.2193,0.0,0.0,0.0,0.0,0.0,0.9655,0.9387,0.9106,0.8627,0.8392,0.8235,0.8073,0.8029,0.8006,0.8006,0.7941,0.7908,0.7898,0.7908,0.7908,0.0,0.0,0.0,0.0,0.0,0.0,0.0,0.0,0.0,0.0,0.0,0.0,0.0,0.0,0.0,0.0,0.0,0.0,0.0,0.0,0.0,0.0,0.0,0.0,0.0,0.0,0.0,0.0,1.8693,1.8852,1.8179,1.8369,1.8313,0.0,0.0,0.0,0.0,0.0,0.0,1.7493,1.7493,1.7493,1.7493,1.7493,1.7493,1.7493,1.7493,1.7493,1.7493,1.7493,1.7493,1.7493,1.7493,1.7493,1.7493,1.7493,1.7493,1.7493,1.7493,1.7493,1.7493,1.7493,1.7493,1.7493,1.7493,1.7493,1.7493,1.7493,1.7493,1.7493,1.7493,0.0,1.7493,1.7493,0.0,0.0,0.0,0.0,1.6098,1.6098,1.6791,1.7493,1.7493,1.7554,1.7602,1.7602,1.765,1.7393,0.0,1.6187,1.5536,1.3484,0.0,0.0,0.0,0.0,1.1089,0.9773,0.9427,0.9108,0.863,0.8348,0.8204,0.8204,0.8155,0.8132,0.8132,0.8029,0.7963,0.7952,0.7946,0.7935,0.7903,0.0,0.0,0.0,0.0,0.0,0.0,0.0,0.0,0.0,0.0,0.0,0.0,0.0,0.0,0.0,0.0,0.0,0.0,0.0,0.0,0.0,0.0,0.0,0.0,0.0,0.0,0.0,0.0,0.0,1.859,1.9391,0.0,0.0,0.0,0.0,1.7493,1.7493,1.7493,1.7493,1.7493,1.7493,1.7493,1.7493,1.7493,1.7493,1.7493,1.7493,1.7493,1.7493,1.7493,1.7493,1.7493,1.7493,1.7493,1.7493,1.7493,1.7493,1.7493,1.7493,1.7493,1.7493,1.7493,1.7493,1.7493,1.7493,1.7493,1.7493,1.7493,1.7493,1.7493,1.7493,1.7493,1.7493,1.7464,0.0,0.0,1.7361,1.7391,1.7391,1.7449,1.7493,1.7493,1.7687,1.7883,1.7883,1.8073,1.8167,0.0,1.7778,1.7443,1.6369,0.0,1.3823,1.2492,1.1206,1.0127,0.9411,0.9315,0.9029,0.83,0.8204,0.8204,0.8204,0.8199,0.8193,0.8193,0.8188,0.815,0.8098,0.8093,0.8038,0.7903,0.7903,0.0,0.0,0.0,0.0,0.0,0.0,0.0,0.0,0.0,0.0,0.0,0.0,0.0,0.0,0.0,0.0,0.0,0.0,0.0,0.0,0.0,0.0,0.0,0.0,0.0,0.0,0.0,0.0,1.9521,2.0716,0.0,2.0099,1.9377,1.8897,1.8679,1.7948,1.7493,1.7493,1.7493,1.7493,1.7493,1.7493,1.7493,1.7493,1.7493,1.7493,1.7493,1.7493,1.7493,1.7493,1.7493,1.7493,1.7493,1.7493,1.7493,1.7493,1.7493,1.7493,1.7493,1.7493,1.7493,1.7493,1.7493,1.7493,1.7493,1.7493,1.7493,1.7493,1.7493,1.7493,1.7493,1.7493,1.7493,1.7493,1.7493,1.7493,1.7542,1.7711,1.7762,1.7795,1.7977,1.8097,1.8158,1.8158,1.8242,1.8312,1.8399,1.8279,1.7802,1.6713,1.6714,1.5919,1.3089,1.2861,1.217,0.9862,0.9564,0.9269,0.8547,0.8465,0.8465,0.8465,0.8378,0.834,0.834,0.8248,0.8183,0.8171,0.8171,0.8127,0.8038,0.8038,0.7984,0.0,0.0,0.0,0.0,0.0,0.0,0.0,0.0,0.0,0.0,0.0,0.0,0.0,0.0,0.0,0.0,0.0,0.0,0.0,0.0,0.0,0.0,0.0,0.0,0.0,0.0,2.2591,2.0773,2.2053,2.2659,2.15,2.0873,2.0458,2.0228,1.9378,1.871,1.83,1.8169,1.7918,1.7508,1.7493,1.7493,1.7493,1.7493,1.7493,1.7493,1.7493,1.7493,1.7493,1.7493,1.7493,1.7493,1.7493,1.7493,1.7493,1.7493,1.7493,1.7493,1.7493,1.7493,1.7493,1.7493,1.7493,1.7493,1.7493,1.7493,1.7493,1.7493,1.7493,1.7518,1.7617,1.7626,1.765,1.7747,1.7771,1.7808,1.7989,1.8025,1.8073,1.8267,1.8375,1.842,1.842,1.8508,1.8629,1.8798,1.8617,1.8225,1.7562,1.7677,1.683,1.3797,1.3662,1.2848,0.9875,0.9611,0.9411,0.8673,0.8606,0.8606,0.8606,0.8519,0.8475,0.8475,0.8383,0.8318,0.8264,0.8264,0.8226,0.8132,0.8104,0.806,0.7963,0.0,0.0,0.0,0.0,0.0,0.0,0.0,0.0,0.0,0.0,0.0,0.0,0.0,0.0,0.0,0.0,0.0,0.0,0.0,0.0,0.0,0.0,0.0,2.2251,2.3659,2.4164,2.2293,2.3431,2.3782,2.2265,2.2095,2.2067,2.2053,2.1769,2.1073,1.9868,1.9492,1.8766,1.7537,1.7493,1.7493,1.7493,1.7493,1.7493,1.7493,1.7493,1.7493,1.7481,1.7481,1.7481,1.7469,1.7469,1.7469,1.7469,1.7469,1.7481,1.7493,1.7493,1.7493,1.7493,1.7493,1.7493,1.7493,1.7505,1.7505,1.7505,1.7518,1.7518,1.7566,1.782,1.7919,1.798,1.823,1.83,1.83,1.83,1.8312,1.8312,1.8312,1.8532,1.8714,1.8714,1.8907,1.9104,1.9104,1.8883,1.8798,1.9068,1.7974,1.6484,1.4737,1.3554,0.0,0.9493,0.9489,0.9405,0.8667,0.8595,0.8595,0.8595,0.8595,0.8595,0.8595,0.8595,0.853,0.8405,0.8405,0.835,0.821,0.8138,0.8104,0.8088,0.0,0.0,0.0,0.0,0.0,0.0,0.0,0.0,0.0,0.0,0.0,0.0,0.0,0.0,0.0,0.0,0.0,0.0,0.0,0.0,0.0,0.0,2.5221,2.3029,2.4681,2.55,2.3855,2.5041,2.562,2.4761,2.4061,2.3587,2.3393,2.245,2.1287,1.9868,1.9709,1.9,1.7552,1.7493,1.7493,1.7493,1.7493,1.7493,1.7493,1.7493,1.7397,1.7216,1.7216,1.7092,1.6911,1.6911,1.6911,1.6911,1.6911,1.7032,1.7228,1.7421,1.7493,1.7493,1.7493,1.7493,1.7518,1.7711,1.7798,1.7808,1.8025,1.8085,1.8082,1.817,1.8194,1.8206,1.8291,1.83,1.8336,1.8544,1.8593,1.8641,1.8834,1.8947,1.8979,1.8979,1.9056,1.9104,1.9104,1.9028,1.9004,1.9092,1.8784,1.8006,1.6517,1.518,0.0,1.1268,1.0156,0.9269,0.853,0.8367,0.8318,0.8318,0.8318,0.8318,0.8318,0.8399,0.8432,0.8405,0.8497,0.8486,0.8356,0.8231,0.8155,0.0,0.0,0.0,0.0,0.0,0.0,0.0,0.0,0.0,0.0,0.0,0.0,0.0,0.0,0.0,0.0,0.0,0.0,0.0,0.0,0.0,0.0,2.6605,2.6108,2.4709,2.572,2.6272,2.5358,2.6053,2.6468,2.6108,2.5579,2.5189,2.5027,2.4106,2.2717,2.0816,2.0487,1.9464,1.7552,1.7385,1.7336,1.7336,1.7228,1.7153,1.7153,1.7153,1.708,1.695,1.7058,1.7008,0.0,1.6998,1.7046,1.7032,1.7167,1.73,0.0,0.0,0.0,0.0,0.0,1.7844,1.7856,1.8013,1.8061,1.8097,1.8255,1.83,1.8312,1.842,1.8472,1.8496,1.8605,1.8641,1.8665,1.8822,1.8859,1.8907,1.9052,1.9104,1.9104,1.9104,1.9104,1.908,1.8943,0.0,0.0,1.8786,1.8859,1.8208,1.6097,1.5128,1.3627,1.0816,0.9848,0.9132,0.8388,0.8248,0.8226,0.8275,0.828,0.0,0.0,0.0,0.8486,0.8486,0.8552,0.0,0.0,0.0,0.8264,0.0,0.0,0.0,0.0,0.8002,0.798,0.0,0.0,0.0,0.0,0.0,0.0,0.0,0.0,0.0,0.0,0.0,0.0,0.0,0.0,0.0,0.0,2.6605,2.6605,2.6605,2.6605,2.6605,2.6605,2.6605,2.6605,2.6605,2.6605,2.6605,2.6605,2.6108,2.473,2.2289,0.0,0.0,0.0,0.0,1.7216,1.7058,1.6843,1.676,1.6742,1.6742,1.6742,1.6754,1.6984,1.708,1.7071,1.7312,1.7421,1.7469,1.7711,1.7871,1.7916,1.7675,1.775,1.7965,1.8218,1.83,1.83,1.8324,0.0,0.0,1.8387,1.8399,1.842,1.8677,1.875,1.8786,1.9028,1.9104,1.9104,1.9104,1.9104,1.9088,1.9052,1.904,1.9056,1.9032,1.9004,1.8931,1.8702,1.8653,1.8581,1.8336,1.8496,1.7674,1.4782,1.4339,1.3011,0.9452,0.916,0.8995,0.8284,0.0,0.0,0.8372,0.8383,0.8426,0.8541,0.8579,0.859,0.8606,0.8606,0.8606,0.8606,0.8486,0.8421,0.8421,0.8296,0.8242,0.8242,0.8144,0.8115,0.0,0.0,0.0,0.0,0.0,0.0,0.0,0.0,0.0,0.0,0.0,0.0,0.0,0.0,0.0,2.6605,2.6605,2.6605,2.6605,2.6605,2.6605,2.6605,2.6605,2.6605,2.6605,2.6605,2.6605,2.6605,2.6496,2.5441,2.3165,2.2943,2.1452,1.8317,1.839,1.793,1.6793,1.6943,1.7016,1.702,0.0,0.0,1.702,1.7083,1.6972,1.6779,1.6827,1.6986,1.7179,1.724,1.7638,1.8218,1.817,1.8182,1.823,1.8275,1.83,1.8324,1.8557,1.8629,1.8653,1.8871,1.8959,1.8943,1.9019,1.9016,0.0,1.9092,1.9104,1.9104,1.9104,1.9104,1.9056,1.8822,1.8774,1.8714,1.8508,1.8444,1.8448,1.8399,1.8387,1.8363,1.83,1.8336,1.7823,1.6194,1.501,1.345,1.1097,0.9831,0.8899,0.8273,0.8149,0.8154,0.8226,0.8237,0.8248,0.8269,0.8378,0.8492,0.8601,0.8606,0.8606,0.8606,0.8584,0.8557,0.8557,0.853,0.8519,0.8513,0.8285,0.8188,0.0,0.0,0.0,0.0,0.0,0.0,0.0,0.0,0.0,0.0,0.0,2.6605,0.0,0.0,2.6605,2.6605,2.6605,2.6605,2.6605,2.6605,2.6605,2.6605,2.6605,2.6605,2.6605,2.6605,2.6513,2.6306,2.5653,2.4415,2.2508,2.1729,2.0299,1.802,1.8104,1.7867,1.7168,1.7156,1.7148,1.7142,1.6984,1.6899,1.6899,1.7032,1.7107,1.7107,1.7252,1.7457,1.7723,1.7856,1.8218,1.8702,1.8702,1.8702,1.8702,1.8702,1.8702,1.8726,1.8846,1.8895,1.8919,1.9068,1.9104,1.9104,1.9104,1.9104,1.9064,1.8947,1.8895,1.8871,1.8738,1.8702,1.8665,1.8532,1.8508,1.8456,1.8324,1.83,1.8267,1.8122,1.8206,1.8267,1.8122,1.8218,1.7599,1.5555,1.4581,1.3179,1.0575,0.9666,0.9034,0.8464,0.8372,0.8361,0.8388,0.8394,0.8394,0.8394,0.847,0.853,0.8601,0.8606,0.8606,0.8606,0.8606,0.8557,0.8503,0.8503,0.847,0.8394,0.8258,0.8237,0.0,0.0,0.0,0.0,0.0,0.0,0.0,0.0,2.6215,2.6531,2.6605,2.6605,2.6605,2.6605,2.6605,2.6605,2.6605,2.6605,2.6605,2.6605,2.6605,2.6605,2.6605,2.6605,2.6605,2.6531,2.6361,2.6026,2.4889,2.3577,2.2137,2.0841,1.9509,1.8136,1.7967,1.7783,1.7519,1.7309,1.7181,1.7174,1.6919,1.6803,1.6863,1.7083,1.73,1.7505,1.7771,1.8013,1.8242,1.852,1.875,1.8943,1.8943,1.8943,1.8943,1.8991,1.9016,1.9004,1.8955,1.8943,1.8943,1.8943,1.8943,1.8943,1.8943,1.8943,1.8895,1.8689,1.8629,1.8581,1.8363,1.83,1.8291,1.8227,1.8251,1.8291,1.8242,1.8251,1.8242,1.8013,1.8158,1.8242,1.8013,1.8158,1.7453,1.4927,1.4246,1.2959,1.0013,0.9534,0.9249,0.8695,0.8639,0.865,0.8655,0.866,0.866,0.866,0.8655,0.8639,0.8639,0.8617,0.8606,0.8606,0.8606,0.8541,0.8432,0.8432,0.8372,0.8237,0.8237,0.828,2.2887,2.3356,0.0,2.4272,2.4858,2.5404,0.0,0.0,2.655,2.6586,2.6605,2.6605,2.6605,2.6605,2.6605,2.6605,2.6605,2.6605,2.6605,2.6605,2.6605,2.6605,2.6605,2.6605,2.6605,2.627,2.6044,2.6008,2.5532,2.4889,2.412,2.3253,2.1983,2.022,1.9423,1.845,1.7268,1.7157,1.7113,1.7116,1.7073,1.7179,1.7409,1.7433,1.7469,1.7505,1.7771,1.7919,1.7968,1.8242,1.836,1.8399,1.8399,1.8399,1.8424,1.8653,1.8738,1.8714,1.8469,1.8399,1.8399,1.8399,1.8399,1.8399,1.8399,1.8399,1.8372,1.8348,1.8336,1.8351,1.8315,1.83,1.8242,1.8001,1.8134,1.8227,1.8004,1.8134,1.8287,1.8267,1.8291,1.8287,1.8267,1.8275,1.7803,1.636,1.5162,1.3656,1.1527,1.0317,0.9435,0.8838,0.8781,0.8796,0.8865,0.8858,0.8858,0.8858,0.8807,0.8781,0.8781,0.8661,0.8606,0.8606,0.8606,0.8601,0.8584,0.8584,0.8508,0.8383,0.8383,0.8329,2.313,0.0,0.0,0.0,2.5365,2.5847,2.6251,2.6476,2.6605,2.6605,2.6605,2.6605,2.6605,2.6605,2.6605,0.0,2.6605,2.6605,2.6605,2.6605,2.6605,2.6605,2.6605,2.6513,2.627,2.6099,2.5897,2.5677,2.4886,2.4289,2.4013,2.2423,2.1083,2.0122,1.9389,1.8661,1.7902,1.7869,1.7849,1.7859,1.7511,1.7385,1.7493,1.7493,1.7593,1.7762,1.8013,1.8134,1.8146,1.8239,1.83,1.83,1.83,1.8395,1.853,1.847,1.8472,1.846,1.8336,1.83,1.83,1.83,1.83,1.83,1.83,1.83,1.8279,1.811,1.8182,1.8251,1.811,1.8182,1.8263,1.8158,1.8218,1.8279,1.8158,1.823,1.83,1.83,1.8436,1.8532,1.8532,1.8786,1.8517,1.7086,1.5581,1.365,1.0964,1.0248,0.9723,0.9045,0.8873,0.8808,0.884,0.8763,0.8725,0.8725,0.8775,0.8803,0.8803,0.8737,0.871,0.871,0.8639,0.8557,0.8486,0.8486,0.841,0.828,0.828,0.8231,2.3381,0.0,0.0,2.5297,2.5695,2.6118,2.6513,2.6605,2.6605,2.6605,2.6605,2.6605,2.6605,2.6605,2.6605,2.6605,2.6605,2.6605,2.6605,2.6605,2.6605,2.6605,2.6605,2.644,2.6044,2.6008,2.5879,2.5585,2.4706,2.4175,2.4175,2.2398,2.1105,2.0543,1.978,1.9125,1.8539,1.8444,1.84,1.8386,1.7962,1.7711,1.7638,1.7537,1.7617,1.781,1.8001,1.8085,1.8085,1.8085,1.8131,1.8222,1.8222,1.8343,1.8494,1.8368,1.8331,1.8319,1.8231,1.8161,1.8082,1.817,1.8194,1.8191,1.8291,1.83,1.8267,1.8061,1.8146,1.8267,1.8061,1.8158,1.83,1.83,1.8363,1.8412,1.8412,1.8472,1.852,1.852,1.8738,1.8919,1.8919,1.9293,1.909,1.7531,1.5946,1.387,1.0952,1.0144,0.9642,0.9102,0.8909,0.8818,0.8818,0.8736,0.8687,0.8687,0.8759,0.8803,0.8803,0.8803,0.8803,0.8803,0.8715,0.8633,0.8513,0.8513,0.8421,0.8253,0.8253,0.8204,0.0,0.0,2.4911,2.5297,2.5695,2.6118,2.6513,2.6605,2.6605,2.6605,2.6605,2.6605,2.6605,2.6605,2.6605,2.6605,2.6605,2.6605,2.6605,2.6605,2.6605,2.6605,2.6605,2.644,0.0,2.6008,2.5989,2.5989,2.5582,2.5349,2.5349,2.4539,2.3538,2.2363,2.1237,2.0084,1.8897,1.8561,1.84,1.84,1.8371,1.8238,1.7972,1.7652,1.7505,1.7505,1.7518,1.7518,1.7518,1.7518,1.7721,1.8012,1.8012,1.8012,1.8051,1.8297,1.8396,1.8359,1.8099,1.7794,1.7566,1.7835,1.7919,1.7952,1.823,1.83,1.8303,1.8287,1.8287,1.8303,1.8287,1.8287,1.83,1.83,1.8508,1.8689,1.8689,1.8895,1.908,1.908,1.9298,1.9479,1.9479,1.9704,1.9356,1.7814,1.6378,1.464,1.2324,1.0225,0.8936,0.8907,0.8896,0.8896,0.8896,0.8891,0.8885,0.8885,0.8834,0.8803,0.8803,0.8803,0.8803,0.8803,0.8866,0.886,0.8792,0.8792,0.8655,0.8394,0.8394,0.8329,0.0,0.0,2.5297,2.5695,2.6104,2.6421,2.6568,2.6605,2.6605,2.6605,2.6605,2.6605,2.6605,2.6605,2.6605,2.6605,2.6605,2.6605,2.6605,2.6605,2.6605,2.6605,2.6605,0.0,0.0,0.0,0.0,2.6008,2.5879,2.5902,2.6183,2.5177,2.3936,2.2516,2.1527,2.0343,1.891,1.8794,1.8735,1.8735,1.8502,1.8342,1.8267,1.8138,1.8094,1.8094,1.8094,1.8221,1.8413,1.8188,1.8269,1.8505,1.8279,1.8309,1.8475,1.8574,1.8599,1.8556,1.83,1.8128,1.8049,1.8134,1.817,1.8182,1.8263,1.83,1.83,1.83,1.8436,1.8569,1.8569,1.8702,1.8822,1.8822,1.8895,1.8983,1.8983,1.9044,1.9149,1.9334,1.9443,1.9564,1.9728,1.9837,1.9067,1.6584,1.4522,1.265,1.0996,0.9635,0.8834,0.8834,0.8758,0.8709,0.8709,0.8709,0.8709,0.8709,0.8764,0.8803,0.8803,0.8803,0.8803,0.8803,0.883,0.883,0.8803,0.8851,0.8816,0.874,0.874,0.8687,0.0,2.5076,2.5677,2.5934,2.6306,2.6605,2.6605,2.6605,2.6605,2.6605,2.6605,2.6605,2.6605,2.6605,2.6605,2.6605,2.6605,2.6605,2.6605,2.6605,2.6605,2.6605,2.6605,2.6605,0.0,0.0,0.0,2.6215,2.6215,2.6325,2.6586,2.5861,2.4581,2.2731,2.2141,2.0959,1.9099,1.907,1.907,1.907,1.8735,1.8575,1.8561,1.8456,1.8391,1.8404,1.8371,1.8479,1.8669,1.8457,1.8511,1.8735,1.8533,1.8548,1.8717,1.8816,1.8791,1.8686,1.8496,1.838,1.8327,1.8408,1.8432,1.846,1.8557,1.8593,1.8593,1.8593,1.8714,1.8834,1.8834,1.8967,1.9104,1.9104,1.9104,1.9128,1.9225,1.9177,1.9189,1.9443,1.9503,1.9551,1.9716,1.9753,1.8933,1.654,1.4329,1.2218,1.0282,0.9274,0.8721,0.8721,0.865,0.8606,0.8606,0.8606,0.8606,0.8606,0.8677,0.8721,0.8721,0.8781,0.8803,0.8803,0.883,0.883,0.8803,0.8851,0.885,0.8789,0.8789,0.8763,2.478,2.5407,2.6008,2.6026,2.6325,2.6605,2.6605,2.6605,2.6605,2.6605,2.6605,2.6605,0.0,0.0,2.6605,2.6605,2.6605,2.6605,2.6605,2.6605,2.6605,0.0,0.0,0.0,0.0,0.0,0.0,2.6605,0.0,2.6605,2.6605,2.6605,2.5486,2.3073,2.3002,2.1844,1.943,1.9415,1.9415,1.9415,1.9095,1.8935,1.8933,1.8597,1.8439,1.8436,1.8362,1.8376,1.8388,1.8358,1.8527,1.8787,1.8757,1.8757,1.8809,1.9057,1.898,1.874,1.8748,1.857,1.8372,1.8641,1.8726,1.8762,1.9016,1.9104,1.9104,1.9104,1.9104,1.9104,1.9104,1.9104,1.9104,1.9104,1.9104,1.9177,1.9418,1.9285,1.9189,1.9443,1.9515,1.9515,1.9503,1.9503,1.8984,1.75,1.5623,1.3326,1.0377,0.9192,0.8623,0.8606,0.8606,0.8606,0.8606,0.8606,0.8606,0.8606,0.8606,0.8606,0.8606,0.8715,0.8792,0.8792,0.886,0.8871,0.8803,0.8808,0.8737,0.8623,0.8623,0.8623,2.5504,2.5842,2.6081,2.638,2.6531,2.6605,2.6605,2.6605,2.6605,2.6605,2.6605,2.6605,0.0,0.0,0.0,2.6605,2.6605,0.0,2.6605,2.6605,0.0,2.6605,0.0,2.6605,2.6605,2.6862,0.0,0.0,2.6605,2.6605,2.6605,2.6605,2.5486,2.3073,2.3002,2.1844,1.943,1.9601,1.9708,1.9708,1.9563,1.9503,1.9488,1.9145,1.8988,1.9001,1.8972,1.9246,1.9678,1.9122,1.9375,2.0066,1.9578,1.9515,1.9761,1.9824,1.9643,1.9377,1.9366,1.9152,1.8907,1.8983,1.9007,1.9004,1.9092,1.9104,1.9104,1.9104,1.9104,1.9104,1.9104,1.9104,1.9104,1.9104,1.9104,1.9128,1.9189,1.9152,1.9189,1.9443,1.9672,1.9728,1.9539,1.9503,1.8603,1.595,1.4898,1.3628,1.1501,0.991,0.8884,0.8617,0.8606,0.8606,0.8606,0.8606,0.8606,0.8606,0.8606,0.8606,0.8606,0.8633,0.865,0.865,0.877,0.8819,0.8803,0.8844,0.8854,0.8827,0.8827,0.8827,2.5824,2.6136,2.6325,2.655,2.6605,2.6605,2.6605,2.6605,2.6605,2.6605,2.6605,0.0,2.6605,0.0,0.0,0.0,0.0,0.0,2.6605,2.6752,2.6862,0.0,2.7008,0.0,2.7132,2.7155,2.7114,0.0,2.6862,2.6788,2.6605,2.6605,2.5486,2.3073,2.3103,2.2073,1.9776,1.9892,1.9972,1.9972,1.9949,1.9922,1.9907,1.9719,1.9632,1.9645,0.0,1.9806,2.0116,1.9707,1.9875,2.0329,1.9807,1.9711,1.9855,1.9724,1.9536,1.9376,1.9376,1.9264,1.9104,1.9104,1.9104,1.9104,1.9104,1.9104,1.9104,1.9104,1.9104,1.9104,1.9104,1.9104,1.9104,1.9104,1.9104,1.9124,1.9249,1.9173,1.9136,1.9298,1.9455,1.9499,1.9358,1.9322,1.8534,1.6175,1.5182,1.4062,1.2283,1.0322,0.8967,0.8634,0.8606,0.8606,0.8606,0.8606,0.8606,0.8606,0.8606,0.8606,0.8606,0.8606,0.8606,0.8606,0.8672,0.8704,0.8704,0.8758,0.8774,0.8774,0.8774,0.8774,2.5971,2.6343,2.6605,2.6605,2.6605,2.6605,2.6605,2.6605,2.6605,2.6605,0.0,2.6605,2.6605,2.6605,2.6605,2.6605,0.0,2.6605,2.6605,2.6949,2.7206,2.7206,2.7555,2.7789,2.7734,2.7444,2.7243,2.7132,2.7224,2.7082,2.6623,2.6641,2.5675,2.3471,2.3303,2.2347,2.0471,2.0328,2.0279,2.0279,2.0258,2.0241,2.0254,2.021,2.0188,2.0185,0.0,0.0,2.0106,2.0059,2.0059,2.0074,1.9775,1.9679,1.9647,1.9392,1.9232,1.9168,1.9168,1.9136,1.9104,1.9104,1.9104,1.9104,1.9104,1.9104,1.9104,1.9104,1.9104,1.9104,1.9104,1.9104,1.9104,1.9104,1.9104,1.9149,1.9394,1.9261,1.9104,1.9104,1.9104,1.9104,1.9104,1.914,1.8687,1.726,1.5969,1.4525,1.2781,1.0605,0.9102,0.875,0.8667,0.8638,0.8638,0.8639,0.8628,0.8628,0.8612,0.8606,0.8606,0.8606,0.8606,0.8606,0.8606,0.8606,0.8606,0.8606,0.8606,0.8606,0.8606,0.8606,2.6398,2.655,2.6605,2.6605,2.6605,2.6605,2.6605,2.6605,0.0,0.0,2.6605,2.6605,2.6605,2.6605,2.6605,2.6605,2.6605,2.6605,2.6605,2.6949,2.7206,0.0,0.0,0.0,0.0,0.0,0.0,0.0,0.0,2.7371,2.6641,2.6917,2.6595,2.5511,2.3484,2.223,2.1871,2.1034,2.0617,2.0617,2.056,2.0522,2.0522,2.0242,2.0109,2.0122,2.011,0.0,2.0074,1.9791,1.9855,2.009,2.0043,2.0011,2.0043,2.0265,1.9998,1.9507,1.9507,1.9328,1.9104,1.9104,1.9104,1.9104,1.9104,1.9104,1.9104,1.9104,1.9104,1.9104,1.9104,1.9104,1.9104,1.9104,1.9104,1.91,1.9165,1.9124,1.9104,1.9104,1.9104,1.9104,1.9104,1.9285,1.8946,1.7538,1.6248,1.4791,1.3048,1.1135,0.9779,0.9388,0.9044,0.8854,0.8854,0.8796,0.877,0.877,0.8661,0.8606,0.8606,0.8606,0.8606,0.8606,0.8606,0.8606,0.8606,0.8606,0.8606,0.8606,0.8606,0.8606,2.6495,2.6605,2.6605,2.6605,2.6605,2.6605,2.6605,0.0,0.0,0.0,2.6605,2.6605,2.6605,2.6605,0.0,2.6605,2.6605,2.6678,2.688,2.7261,0.0,2.7797,0.0,0.0,0.0,0.0,0.0,0.0,0.0,2.7536,2.6935,2.6039,2.5411,2.5179,2.2721,2.1488,2.1641,2.1156,2.0911,2.0909,2.0884,2.0856,2.084,2.0681,2.0618,2.0618,2.0618,0.0,2.0602,2.0443,2.0475,2.0586,2.044,2.025,2.0106,2.0078,1.9775,1.9344,1.9344,1.9232,1.9104,1.9104,1.9104,1.9104,1.9104,1.9104,1.9104,1.9104,1.9104,1.9104,1.9104,1.9104,1.9104,1.9104,1.9104,1.9104,1.9104,1.9104,1.9104,1.9104,1.9213,1.931,1.931,1.9539,1.9229,1.7823,1.7149,1.6233,1.4664,1.2884,1.1188,0.9654,0.933,0.9122,0.8919,0.8865,0.885,0.885,0.877,0.8699,0.8699,0.8639,0.8606,0.8606,0.8606,0.8606,0.8606,0.8606,0.8606,0.8606,0.8606,0.8606,2.6513,2.6605,2.6605,2.6605,2.6605,2.6605,2.6605,2.6605,0.0,0.0,2.6605,2.6605,2.6605,2.6605,2.6605,0.0,2.6678,2.6843,2.7169,2.7628,2.805,0.0,2.8751,0.0,0.0,0.0,0.0,0.0,0.0,0.0,2.7467,2.5854,2.5077,2.5393,2.3216,2.2007,2.1947,2.1664,2.138,2.1093,2.1093,2.1093,2.1093,2.1093,2.1093,2.1093,2.1093,0.0,0.0,2.0982,2.0951,2.0872,2.0666,2.0409,2.0074,1.9887,1.96,1.9296,1.9232,1.92,1.92,1.912,1.9104,1.9104,1.9104,1.9104,1.9104,1.9104,1.9104,1.9104,1.9104,1.9104,1.9104,1.9104,1.9136,1.9189,1.9189,1.9237,1.9269,1.9269,1.9438,1.9588,1.9588,1.9801,1.9613,1.8496,1.8192,1.7679,1.6582,1.4947,1.2988,1.0564,0.9882,0.9427,0.9024,0.895,0.894,0.894,0.886,0.8824,0.8824,0.871,0.8644,0.8644,0.8617,0.8606,0.8606,0.8606,0.8606,0.8606,0.8606,0.8606,2.6586,2.6605,2.6605,2.6605,2.6605,2.6605,2.6605,0.0,0.0,2.6605,2.6605,2.6605,2.6605,2.6605,2.6605,2.6605,2.6912,2.7169,2.7192,2.7852,2.8352,2.8403,0.0,0.0,0.0,0.0,0.0,0.0,0.0,0.0,2.8278,2.8111,2.8162,2.856,2.7181,2.5849,2.4656,2.3496,2.231,2.1093,2.1093,2.1093,2.1093,2.1093,2.1093,2.1093,2.1093,0.0,0.0,2.065,2.0472,2.0218,2.0504,2.0409,2.0122,2.0409,2.0297,1.9963,1.9663,1.9539,1.9504,1.92,1.9104,1.9104,1.9104,1.9104,1.9104,1.9104,1.9104,1.9104,1.9104,1.9104,1.9104,1.9104,1.9285,1.9467,1.9467,1.9644,1.9825,1.9825,1.9849,1.9861,1.9861,2.0079,2.0226,2.0078,1.9094,1.8316,1.8176,1.6809,1.5097,1.3156,1.1093,0.9701,0.9287,0.9159,0.9082,0.9082,0.8968,0.888,0.888,0.8818,0.8787,0.8787,0.8661,0.8606,0.8606,0.8606,0.8606,0.8606,0.8606,0.8606,2.6605,2.6605,2.6605,2.6605,2.6605,2.6605,2.6605,0.0,2.6605,2.6605,2.6605,2.6605,2.6605,2.6605,2.6605,2.6605,2.6935,2.7284,2.7518,2.8054,2.8495,2.8733,2.8898,0.0,0.0,0.0,0.0,0.0,0.0,0.0,2.877,2.8012,2.7257,2.6611,2.5315,2.4023,2.2669,2.2137,2.1632,2.1093,2.1093,2.1093,2.1093,2.1093,2.1093,2.1093,2.1093,0.0,0.0,2.0903,2.0824,2.0713,2.084,2.0697,2.0393,2.0329,2.009,1.9743,1.9424,1.9296,1.9304,1.9318,1.9346,1.931,1.9152,1.9104,1.9124,1.9298,1.9346,1.9382,1.9535,1.9583,1.9583,1.9583,1.9656,1.974,1.974,1.9825,1.9898,1.9898,2.003,2.0139,2.0139,2.0357,2.0543,2.0543,2.0108,1.9785,1.9785,1.8436,1.711,1.6114,1.3365,1.1054,0.9771,0.9389,0.9219,0.9219,0.9092,0.9027,0.9027,0.8908,0.886,0.886,0.8812,0.8752,0.8715,0.8715,0.8677,0.8606,0.8606,0.8606,2.6605,2.6605,2.6605,2.6605,2.6605,2.6605,0.0,0.0,2.6605,2.6605,2.6605,2.6605,2.6605,2.6605,2.6641,2.6752,2.7114,2.7518,2.7922,2.8329,2.8678,2.8972,0.0,2.8898,0.0,0.0,0.0,0.0,0.0,0.0,2.899,2.8107,2.6991,2.5637,2.4717,2.3434,2.1711,2.1695,2.149,2.1093,2.1093,2.1093,2.1093,2.1093,2.1093,2.1093,0.0,0.0,0.0,2.1093,2.1093,2.1093,2.1093,2.0903,2.057,2.0329,2.0093,1.9807,1.9483,1.9419,1.95,1.9596,1.9624,1.9571,1.939,1.933,1.9382,1.9576,1.9624,1.9656,1.9849,1.9898,1.9898,1.9898,1.9958,2.0018,2.0018,2.0079,2.0139,2.0139,2.0284,2.0422,2.0422,2.0562,2.07,2.07,2.07,2.07,2.07,1.975,1.8797,1.8068,1.5725,1.3258,1.0935,0.9969,0.9482,0.9482,0.9285,0.9164,0.9164,0.9033,0.895,0.895,0.8918,0.8876,0.8823,0.8823,0.8781,0.8655,0.8655,0.8639,2.6605,2.6605,2.6605,2.6605,2.6605,2.6605,0.0,0.0,2.6605,2.6605,2.6605,2.6605,2.6605,2.6605,2.6733,2.7132,2.7536,2.794,2.8348,2.8733,2.899,0.0,0.0,2.899,2.899,2.899,0.0,0.0,0.0,0.0,2.899,2.8993,2.8346,2.7021,2.6976,2.5714,2.3107,2.3076,2.2419,2.1093,2.1093,2.1093,2.1093,2.1093,2.1093,0.0,0.0,0.0,0.0,2.1093,2.1093,2.1093,2.1093,2.0903,2.0586,2.0586,2.0544,2.0432,2.0119,2.0162,2.0335,1.9998,1.9898,1.9898,1.9898,1.9898,1.9898,1.9898,1.9898,1.9898,1.9898,1.9898,1.9898,1.9898,2.0103,2.0313,2.0313,2.049,2.07,2.07,2.07,2.07,2.07,2.07,2.07,2.07,2.07,2.07,2.07,2.0683,2.0081,1.8569,1.8016,1.6378,1.2963,1.0964,0.9897,0.9897,0.9518,0.9302,0.9302,0.9175,0.9098,0.9098,0.8961,0.8902,0.8896,0.8896,0.8871,0.8803,0.8803,0.8721,2.6605,2.6605,2.6605,2.6605,2.6385,2.6251,2.6531,0.0,2.627,2.655,2.6605,2.6605,2.6605,2.6825,2.7045,2.7187,2.7761,2.8256,2.837,0.0,0.0,2.899,2.899,2.899,0.0,0.0,0.0,0.0,0.0,0.0,2.899,2.899,2.8394,2.7052,2.611,2.4825,2.3123,2.2184,2.1522,2.1093,2.1093,2.1093,2.1093,2.1093,0.0,0.0,0.0,0.0,0.0,2.1093,2.1093,2.1122,2.1352,2.1384,2.1282,2.1237,2.1025,2.074,2.0393,2.0174,2.0067,2.0149,2.0175,2.02,2.0381,2.0187,1.9934,2.0127,2.0313,2.0458,2.0458,2.0458,2.0458,2.0458,2.0519,2.0562,2.0562,2.064,2.07,2.07,2.07,2.07,2.07,2.07,2.07,2.07,2.07,2.07,2.07,2.07,2.0115,1.8569,1.8278,1.725,1.4876,1.2669,1.1395,1.1395,1.0071,0.9302,0.9302,0.9251,0.9235,0.9235,0.9197,0.9137,0.9044,0.9044,0.8979,0.8859,0.8859,0.8838,0.0,2.6605,2.6605,2.6605,2.6416,0.0,0.0,2.6416,2.6288,2.655,2.6605,2.6641,2.6788,2.7027,2.7298,2.7596,2.8073,2.8443,2.8605,0.0,0.0,2.899,0.0,0.0,0.0,0.0,0.0,0.0,0.0,0.0,2.899,2.899,2.8618,2.7792,2.5958,2.4394,2.3107,2.1774,2.1093,2.1093,2.1093,2.1093,2.1093,2.1093,0.0,0.0,0.0,0.0,0.0,2.1285,2.1352,2.1456,2.1676,2.1661,2.1558,2.1513,2.1329,2.1052,2.0847,2.0608,2.0427,2.0586,2.0544,2.0477,2.0652,2.047,2.0236,2.0393,2.0579,2.07,2.07,2.07,2.07,2.07,2.07,2.07,2.07,2.07,2.07,2.07,2.07,2.07,2.07,2.07,2.07,2.07,2.07,2.07,2.07,2.07,2.0336,1.9367,1.9268,1.8558,1.6801,1.4672,1.3169,1.2588,1.118,1.0107,0.9554,0.9374,0.9302,0.9302,0.9302,0.9251,0.9181,0.9119,0.906,0.8967,0.8918,0.8902,0.0,0.0,0.0,0.0,0.0,0.0,0.0,2.655,0.0,2.6641,2.6641,2.677,2.7169,2.7279,2.7522,2.8278,2.8407,2.8572,2.8953,2.899,0.0,0.0,2.899,0.0,2.899,0.0,0.0,0.0,0.0,0.0,2.899,2.899,2.899,2.899,2.6399,2.4486,2.3403,2.2043,2.133,2.1235,2.1235,2.1201,2.1149,2.1149,0.0,0.0,0.0,0.0,0.0,2.1638,2.1783,2.2007,2.2021,2.1836,2.1568,2.1581,2.1547,2.1463,2.1463,2.1339,2.119,2.1173,2.096,2.07,2.07,2.07,2.07,2.07,2.07,2.07,2.07,2.07,2.07,2.07,2.07,2.07,2.07,2.07,2.07,2.07,2.07,2.07,2.07,2.07,2.0712,2.0724,2.0736,2.0736,2.0761,2.0761,2.0708,2.0621,2.0691,2.0122,1.8578,1.6803,1.5106,1.3551,1.2748,1.1621,1.0131,0.9717,0.9464,0.9302,0.932,0.932,0.9302,0.9234,0.918,0.9162,0.903,0.8993,0.0,0.0,0.0,0.0,0.0,0.0,0.0,0.0,0.0,0.0,0.0,2.7174,2.7591,2.7907,2.8183,2.837,0.0,2.8898,2.899,2.899,0.0,2.899,2.899,2.899,2.899,0.0,0.0,0.0,0.0,2.899,2.899,2.899,2.899,2.899,2.6399,2.5347,2.608,2.4748,2.3589,2.2624,2.2624,2.2232,2.1475,2.1475,0.0,0.0,0.0,0.0,2.1917,2.1917,2.194,2.2021,2.2231,2.2275,2.2217,2.2477,2.2375,2.2086,2.2086,2.1709,2.1168,2.0908,2.0752,2.07,2.07,2.07,2.07,2.07,2.07,2.07,2.07,2.07,2.07,2.07,2.07,2.07,2.07,2.07,2.07,2.07,2.07,2.07,2.07,2.07,2.0773,2.0978,2.1002,2.1075,2.1293,2.1311,2.0858,1.9688,2.0607,2.0697,1.9137,1.7939,1.6642,1.5159,1.4583,1.35,1.1657,1.1783,1.1072,0.9338,0.9608,0.9608,0.9302,0.9886,1.0018,0.9713,0.9679,0.9828,2.6605,2.6605,2.6495,2.6099,0.0,0.0,0.0,0.0,0.0,0.0,0.0,2.7591,2.7999,2.8256,2.8462,0.0,2.8862,0.0,0.0,0.0,2.899,2.899,2.899,2.899,0.0,0.0,0.0,0.0,0.0,2.899,2.899,2.899,2.9082,2.928,2.7872,2.6765,2.6095,2.4331,2.309,2.2411,2.2536,2.2302,2.1783,2.1783,2.186,0.0,0.0,0.0,2.2178,2.2178,2.2271,2.2439,2.2582,2.2619,2.2662,2.284,2.2756,2.2585,2.2585,2.2087,2.138,2.0873,2.07,2.07,2.07,2.07,2.07,2.07,2.07,2.07,2.07,2.07,2.07,2.07,2.07,2.07,2.07,2.07,2.07,2.07,2.0797,2.0882,2.0882,2.099,2.1123,2.1268,2.1293,2.1341,2.148,2.1492,2.1186,2.0349,2.0993,2.0885,1.933,1.9377,1.8546,1.6289,1.5731,1.464,1.2824,1.2721,1.2123,1.0875,1.1072,1.0737,0.9843,1.0293,1.0383,1.0185,1.0185,1.0293,2.6605,2.6641,2.6568,2.6118,0.0,0.0,0.0,0.0,0.0,0.0,0.0,0.0,2.8421,2.848,0.0,0.0,0.0,0.0,2.899,2.899,2.899,2.899,2.899,0.0,0.0,0.0,0.0,0.0,0.0,2.9082,2.9082,2.9155,2.9339,2.9684,2.9486,2.8132,2.5508,2.377,2.2588,2.1973,2.2413,2.2432,2.2061,2.2061,2.2087,0.0,0.0,0.0,2.2485,2.2485,2.2632,2.2893,2.2893,2.2893,2.2893,2.2893,2.2893,2.2876,2.2774,2.2276,2.1587,2.0925,2.07,2.07,2.07,2.0736,2.0761,2.0761,2.0736,2.07,2.07,2.07,2.07,2.07,2.0736,2.0761,2.0761,2.0797,2.0821,2.0821,2.1002,2.116,2.116,2.1353,2.1504,2.1553,2.1553,2.1577,2.1613,2.1613,2.1613,2.1613,2.1613,2.1093,1.9785,2.0864,2.0372,1.7448,1.695,1.5849,1.3897,1.3362,1.3001,1.2732,1.2996,1.2498,1.118,1.1079,1.0989,1.0917,1.0689,1.0617,2.6605,2.6843,2.693,2.6191,0.0,0.0,0.0,0.0,0.0,0.0,0.0,0.0,0.0,2.8917,2.8935,0.0,0.0,2.899,0.0,0.0,2.899,2.899,0.0,2.899,0.0,0.0,0.0,0.0,0.0,2.9519,2.9519,2.9834,3.0039,3.0109,2.9006,2.8188,2.7714,2.8503,2.7104,2.3658,2.4869,2.4369,2.2335,2.2335,2.2485,0.0,0.0,2.2786,2.2809,2.2809,2.2853,2.2893,2.2893,2.2893,2.2893,2.2893,2.2893,2.2808,2.219,2.1673,2.1225,2.0822,2.07,2.07,2.07,2.0857,2.1039,2.1039,2.0882,2.07,2.07,2.07,2.07,2.07,2.0869,2.1039,2.1039,2.122,2.1371,2.1371,2.1408,2.1432,2.1432,2.1468,2.1577,2.1794,2.1849,2.1921,2.2151,2.2175,2.2175,2.2175,2.2175,2.2082,2.1829,2.2045,2.1363,1.946,1.9855,1.8666,1.5334,1.507,1.4318,1.2903,1.4365,1.4885,1.4317,1.3676,1.3202,1.2845,1.1534,1.1116,2.6605,2.6733,2.6825,2.6692,0.0,0.0,0.0,0.0,0.0,0.0,0.0,0.0,0.0,0.0,2.899,2.899,0.0,2.899,2.899,2.899,2.899,0.0,0.0,0.0,0.0,0.0,0.0,0.0,0.0,0.0,2.9926,3.0094,3.0296,3.0531,2.9933,2.9343,2.8799,3.0161,2.9032,2.5482,2.6272,2.5638,2.3798,2.3798,2.3459,2.2893,0.0,2.2893,2.2893,2.2893,2.2893,2.2893,2.2893,2.2893,2.2893,2.2893,2.2893,2.2817,2.2233,2.1901,2.1665,2.1264,2.1118,2.1118,2.1118,2.1232,2.1317,2.1317,2.1232,2.1118,2.1118,2.1118,2.1118,2.1118,2.1232,2.1317,2.1317,2.1408,2.1492,2.1492,2.1613,2.1728,2.1728,2.1849,2.1982,2.2103,2.2115,2.2163,2.2284,2.2296,2.2296,2.2296,2.2296,2.2296,2.2296,2.2296,2.1552,1.9796,1.994,1.9314,1.757,1.8269,1.7936,1.634,1.6979,1.6836,1.5819,1.5319,1.4982,1.4769,1.3274,1.2681,2.6715,2.6807,2.6972,2.7375,0.0,0.0,0.0,0.0,0.0,0.0,0.0,0.0,0.0,2.899,0.0,2.899,2.899,2.899,2.899,0.0,0.0,0.0,0.0,0.0,0.0,0.0,0.0,0.0,0.0,0.0,3.0332,3.0424,3.0607,3.0935,3.0935,3.0571,2.9805,3.0859,2.9841,2.6806,2.7357,2.6872,2.5482,2.516,2.4399,2.3372,2.3047,2.2893,2.2893,2.2893,2.2893,2.2907,2.2974,2.3054,2.3108,2.3108,2.3056,2.2909,2.2556,2.2316,2.2125,2.1761,2.1582,2.1492,2.1492,2.1541,2.1589,2.1589,2.1637,2.1649,2.1528,2.1492,2.1492,2.1492,2.1541,2.1589,2.1589,2.1637,2.1704,2.1704,2.1843,2.1994,2.1994,2.2163,2.2296,2.2296,2.2296,2.2296,2.2296,2.2296,2.2296,2.2296,2.2296,2.2296,2.2296,2.2296,2.1715,2.0325,2.0147,1.9763,1.909,2.0693,2.0804,1.915,1.9321,1.8663,1.7088,1.6912,1.6609,1.6136,1.5025,1.4491,2.7059,2.7426,2.7812,2.8219,2.8054,0.0,2.8274,2.8678,0.0,2.899,0.0,0.0,0.0,2.899,2.899,2.899,2.899,2.899,2.899,0.0,0.0,0.0,0.0,0.0,0.0,0.0,0.0,0.0,0.0,0.0,3.077,3.1118,3.132,3.1373,3.1373,3.1309,3.1249,3.1345,2.9949,2.709,2.8476,2.8378,2.6889,2.5599,2.494,2.4771,2.3475,2.2893,2.2893,2.2893,2.2893,2.292,2.3162,2.346,2.3736,2.3736,2.3505,2.3167,2.314,2.2681,2.2108,2.2067,2.1804,2.1492,2.1492,2.1661,2.1873,2.1873,2.2054,2.2127,2.1625,2.1492,2.1492,2.1492,2.1686,2.1873,2.1873,2.2066,2.2248,2.2248,2.226,2.2272,2.2272,2.2284,2.2296,2.2296,2.2296,2.2296,2.2296,2.2296,2.2296,2.2296,2.2296,2.2296,2.2296,2.2296,2.2228,2.2111,2.2092,2.1059,1.8741,2.0726,2.0913,1.8869,2.047,2.0489,1.8818,1.8941,1.8091,1.638,1.6326,1.6187,2.7169,2.7683,2.8201,2.8352,2.8476,0.0,0.0,2.8898,2.899,0.0,0.0,0.0,0.0,0.0,2.899,2.899,2.899,2.899,2.899,2.899,0.0,0.0,0.0,0.0,0.0,0.0,0.0,0.0,0.0,0.0,3.1173,3.132,3.1394,3.1394,3.1394,3.1394,3.1394,3.1394,3.0859,2.977,3.0341,2.9362,2.7072,2.6555,2.5347,2.3679,2.3301,2.3153,2.3166,2.3371,2.3455,2.3469,2.3572,2.3692,2.3803,2.3803,2.3696,2.3562,2.3483,2.3277,2.2982,2.2685,2.2491,2.2319,2.208,2.2066,2.2151,2.2151,2.2224,2.2248,2.2054,2.2006,2.2006,2.2006,2.2079,2.2151,2.2151,2.2236,2.2296,2.2296,2.2296,2.2296,2.2296,2.2296,2.2296,2.2296,2.2296,2.2296,2.2296,2.2296,2.2296,2.2296,2.2296,2.2296,2.2296,2.2296,2.2296,2.2296,2.2296,2.1873,2.0943,2.1704,2.1786,2.0982,2.1481,2.1442,2.0809,1.9643,1.8713,1.7959,1.6022,1.5092,2.7353,2.7871,2.8425,2.8568,2.8807,0.0,2.899,2.899,2.899,2.899,0.0,0.0,0.0,0.0,0.0,0.0,2.899,2.9045,2.9155,2.9192,0.0,0.0,0.0,0.0,0.0,0.0,0.0,0.0,0.0,0.0,0.0,3.1394,3.1394,3.1394,3.1394,3.1449,3.1595,3.1595,3.165,3.1779,3.1779,3.0692,2.8643,2.8327,2.6865,2.4559,2.4265,2.3886,2.3487,2.3705,2.3839,2.3933,2.3933,2.3986,2.4048,2.4048,2.4048,2.4039,2.3953,2.3818,2.3655,2.3202,2.2986,2.2819,2.2427,2.2296,2.2296,2.2296,2.2296,2.2296,2.2296,2.2296,2.2296,2.2296,2.2296,2.2296,2.2296,2.2296,2.2296,2.2296,2.2296,2.2296,2.2296,2.2296,2.2296,2.2296,2.2296,2.2296,2.2296,2.2296,2.2296,2.2296,2.2296,2.2296,2.2296,2.2296,2.2296,2.2296,2.2296,2.2296,2.2296,2.2296,2.2296,2.2296,2.2127,2.176,2.1242,2.0419,1.9727,1.9084,1.6914,1.5863,2.7716,2.8091,2.8498,2.8898,2.899,2.899,2.899,2.899,2.899,2.899,0.0,0.0,0.0,0.0,0.0,2.9008,2.9008,2.9137,2.9556,2.9611,2.9742,0.0,0.0,0.0,0.0,0.0,0.0,0.0,0.0,0.0,0.0,3.1394,3.141,3.141,3.1412,3.1595,3.2001,3.2019,3.2203,3.2588,3.2606,3.2404,3.1937,3.0949,2.9662,2.8116,2.6626,2.5179,2.3821,2.3817,2.3959,2.4209,2.4209,2.4364,2.4599,2.4599,2.4599,2.4599,2.4599,2.4341,2.3933,2.3544,2.3172,2.2819,2.2427,2.2296,2.2296,2.2296,2.2296,2.2296,2.2296,2.2296,2.2296,2.2296,2.2296,2.2296,2.2296,2.2296,2.2296,2.2296,2.2296,2.2296,2.2296,2.2296,2.2296,2.2296,2.2296,2.2296,2.2296,2.2296,2.2296,2.2296,2.2296,2.2296,2.2296,2.2296,2.2296,2.2296,2.2296,2.2296,2.2296,2.2296,2.2296,2.2296,2.2296,2.148,1.983,2.148,2.1284,1.9393,1.9393,1.9238,2.8109,2.8513,2.8862,2.8972,2.899,2.899,0.0,2.899,0.0,0.0,2.899,2.899,0.0,0.0,0.0,0.0,0.0,0.0,2.9962,3.0036,3.0167,0.0,0.0,0.0,0.0,0.0,0.0,0.0,0.0,0.0,0.0,3.1669,3.1818,3.1818,3.2109,3.2294,3.2423,3.2423,3.2478,3.2606,3.29,3.2285,3.0933,3.0649,2.9679,2.8203,2.6916,2.61,2.563,2.473,2.4417,2.4484,2.4484,2.4519,2.4599,2.4599,2.4599,2.4599,2.4599,2.4341,2.3933,2.3544,2.3172,2.2819,2.2427,2.2296,2.2296,2.2296,2.2296,2.2296,2.2296,2.2296,2.2296,2.2296,2.2296,2.2296,2.2296,2.2296,2.2296,2.2296,2.2296,2.2296,2.2296,2.2296,2.2296,2.2296,2.2296,2.2296,2.2296,2.2296,2.2296,2.2296,2.2296,2.2296,2.2296,2.2296,2.2296,2.2296,2.2296,2.2296,2.2296,2.2296,2.2296,2.2296,2.2296,2.2072,2.1555,2.0868,2.0249,1.9647,1.852,1.7312,2.8333,2.8696,2.899,2.899,2.9094,2.9227,2.9331,0.0,0.0,0.0,0.0,2.899,2.899,0.0,0.0,0.0,0.0,0.0,0.0,3.0442,3.0605,0.0,0.0,0.0,0.0,0.0,0.0,0.0,0.0,0.0,0.0,3.2019,3.2239,3.2239,3.2478,3.268,3.2845,3.2845,3.2918,3.3083,3.3323,3.2876,3.1803,3.1185,3.008,2.8548,2.6598,2.5745,2.5687,2.4924,2.4599,2.4599,2.4599,2.4599,2.4599,2.4599,2.4599,2.4599,2.4599,2.4451,2.4156,2.3568,2.3253,2.3005,2.2464,2.2296,2.2296,2.2296,2.2296,2.2296,2.2296,2.2296,2.2296,2.2296,2.2296,2.2296,2.2296,2.2296,2.2296,2.2296,2.2296,2.2296,2.2296,2.2296,2.2296,2.2296,2.2296,2.2296,2.2296,2.2296,2.2296,2.2296,2.2296,2.2296,2.2296,2.2296,2.2296,2.2296,2.2296,2.2296,2.2296,2.2296,2.2296,2.2296,2.2296,2.2296,2.2296,2.1281,2.0782,2.0744,1.9132,1.7815,2.8502,2.8774,2.9079,2.9079,2.9302,2.9597,2.9833,2.945,2.9049,2.9049,0.0,2.9093,2.906,2.9375,2.9666,2.9702,3.0017,0.0,0.0,0.0,3.099,0.0,0.0,0.0,0.0,0.0,0.0,0.0,0.0,0.0,0.0,3.2441,3.2643,3.2643,3.268,3.2864,3.3249,3.3251,3.3451,0.0,3.3799,3.3799,3.3765,3.2211,3.0572,2.8826,2.6028,2.4728,2.4599,2.4599,2.4599,2.4599,2.4599,2.4599,2.4599,2.4599,2.4599,2.4599,2.4599,2.4581,2.4414,2.3679,2.3401,2.3215,2.2558,2.2334,2.2296,2.2296,2.2296,2.2296,2.2296,2.2296,2.2296,2.2296,2.2296,2.2296,2.2296,2.2296,2.2296,2.2296,2.2296,2.2296,2.2296,2.2296,2.2296,2.2296,2.2296,2.2296,2.2296,2.2296,2.2296,2.2296,2.2296,2.2296,2.2296,2.2296,2.2308,2.2332,2.2332,2.2345,2.2369,2.232,2.2296,2.2296,2.2296,2.2296,2.2296,2.2296,2.2296,2.2259,2.0737,1.9943,2.9152,2.9482,2.9701,2.9701,2.976,2.9833,2.9878,2.9642,2.939,2.939,2.9636,2.9787,2.9527,2.9797,3.0167,3.0495,3.0623,3.0806,3.121,0.0,0.0,0.0,0.0,0.0,0.0,0.0,0.0,0.0,0.0,0.0,3.2459,3.2846,3.3066,3.3066,3.3378,3.3579,3.3671,3.3671,3.3708,0.0,3.3799,3.3799,3.3765,3.2211,3.0004,2.736,2.6685,2.5712,2.4599,2.4599,2.4599,2.4599,2.4599,2.4599,2.4599,2.4599,2.4599,2.4599,2.4599,2.4396,2.41,2.3933,2.3488,2.2986,2.2819,2.2539,2.2296,2.2296,2.2296,2.2296,2.2296,2.2296,2.2296,2.2296,2.2296,2.2296,2.2296,2.2296,2.2296,2.2296,2.2296,2.2296,2.2296,2.2296,2.2296,2.2296,2.2296,2.2296,2.2296,2.2296,2.2296,2.2296,2.2296,2.2296,2.2296,2.2296,2.2381,2.2586,2.2611,2.2714,2.292,2.2514,2.2296,2.2296,2.2296,2.2296,2.2296,2.2296,2.2296,2.2296,2.1929,2.1056,2.9394,2.9597,2.9774,3.0069,3.0142,3.0172,3.0338,3.0432,3.0418,3.025,3.0036,2.9927,3.0097,3.0467,3.0756,3.0786,3.1099,3.1349,3.1391,0.0,0.0,0.0,0.0,0.0,0.0,0.0,0.0,0.0,0.0,3.29,3.29,3.3268,3.3488,3.3488,3.3689,3.3799,3.3799,3.3799,3.3799,3.3799,3.3799,3.3416,3.2666,3.1103,2.9111,2.6848,2.6115,2.5341,2.4599,2.4599,2.4599,2.4599,2.4599,2.4599,2.4599,2.4599,2.4599,2.4599,2.4599,2.4451,2.4267,2.4063,2.3748,2.3358,2.3005,2.2744,2.2539,2.2352,2.2296,2.2296,2.2296,2.2296,2.2296,2.2296,2.2296,2.2296,2.2296,2.2296,2.2296,2.2296,2.2296,2.2296,2.2296,2.2296,2.2296,2.2296,2.2296,2.2296,2.2296,2.2296,2.2296,2.2296,2.2405,2.249,2.249,2.2598,2.2731,2.2884,2.2896,2.2956,2.3089,2.2835,2.2671,2.2671,2.2569,2.249,2.249,2.2357,2.2296,2.2296,2.2296,2.1836,2.9479,2.9656,2.9863,3.0362,3.048,3.0572,3.0918,3.1225,3.1394,3.132,3.0649,3.0229,3.0702,3.1124,3.1293,3.0946,3.1415,3.1717,3.1442,3.1394,0.0,0.0,0.0,0.0,0.0,0.0,0.0,0.0,0.0,3.3304,3.3304,3.3616,3.3799,3.3799,3.3799,3.3799,3.3799,3.3799,3.3799,3.3799,3.3799,3.312,3.1842,3.0306,2.8609,2.683,2.5561,2.4857,2.4599,2.4599,2.4599,2.4599,2.4599,2.4599,2.4599,2.4599,2.4599,2.4599,2.4599,2.4599,2.4544,2.4211,2.4063,2.3896,2.3265,2.3005,2.2837,2.2502,2.2352,2.2296,2.2296,2.2296,2.2296,2.2296,2.2296,2.2296,2.2296,2.2296,2.2296,2.2296,2.2296,2.2296,2.2296,2.2296,2.2296,2.2296,2.2296,2.2296,2.2296,2.2332,2.2369,2.2369,2.2598,2.2775,2.2775,2.298,2.3114,2.3143,2.3155,2.3179,2.3215,2.3215,2.3215,2.3215,2.2913,2.2775,2.2775,2.2557,2.2429,2.2429,2.2381,2.2369,2.9774,3.0279,3.0718,3.0806,3.082,3.0933,3.1333,3.1242,3.1354,0.0,3.2231,3.1785,3.1308,3.1556,3.1707,3.1368,3.1389,3.1442,3.141,3.1394,3.1522,0.0,0.0,0.0,0.0,0.0,0.0,0.0,3.3488,3.3708,3.3708,3.3763,3.3799,3.3799,3.3799,3.3799,3.3799,3.3799,3.3799,3.3799,3.3799,3.3695,3.3434,3.1912,2.9611,2.6885,2.6685,2.5822,2.4599,2.4599,2.4599,2.4599,2.4599,2.4599,2.4599,2.4599,2.4599,2.4599,2.4599,2.4599,2.4599,2.4544,2.4285,2.3989,2.3878,2.3414,2.2893,2.2837,2.2576,2.2296,2.2296,2.2296,2.2296,2.2296,2.2296,2.2296,2.2296,2.2296,2.2296,2.2296,2.2296,2.2296,2.2296,2.2296,2.2296,2.2296,2.2296,2.2296,2.2296,2.2502,2.2654,2.2654,2.2896,2.3053,2.3053,2.3077,2.3159,2.3342,2.3366,2.3463,2.3712,2.3724,2.3724,2.3724,2.3268,2.3053,2.3053,2.3017,2.2993,2.2993,2.2744,2.2654,3.0098,3.0543,3.0913,3.0913,3.1074,3.1274,3.1469,3.1754,3.2156,3.2684,3.2863,3.2705,3.2043,3.191,3.1782,3.1442,3.1573,3.1603,3.1426,3.1595,3.1799,0.0,0.0,0.0,0.0,0.0,0.0,0.0,3.3708,3.3799,3.3799,3.3799,3.3799,3.3799,3.3799,3.3799,3.3799,3.3799,3.3799,3.3799,3.3799,3.3799,3.3782,3.3103,3.1578,2.9379,2.765,2.6517,2.5822,2.4968,2.4599,2.4599,2.4599,2.4599,2.4599,2.4599,2.4599,2.4599,2.4599,2.4599,2.4599,2.4599,2.4488,2.4285,2.4081,2.3767,2.347,2.3247,2.293,2.2632,2.2632,2.2464,2.2296,2.2296,2.2296,2.2296,2.2296,2.2296,2.2296,2.2296,2.2296,2.2296,2.2296,2.2296,2.2296,2.2296,2.2417,2.2514,2.2514,2.2763,2.2932,2.2932,2.3135,2.3273,2.3273,2.3406,2.3519,2.3631,2.3612,2.368,2.38,2.38,2.38,2.38,2.3446,2.3273,2.3273,2.3155,2.3101,2.3101,2.298,2.2932,3.023,3.0587,3.0903,3.0913,3.123,3.1567,3.1782,3.2344,3.2832,3.293,3.3125,3.3118,3.2629,3.2326,3.2022,3.1605,3.1733,3.1819,3.1589,3.1799,3.2093,3.2278,0.0,0.0,0.0,0.0,0.0,0.0,3.3799,3.3799,3.3799,3.3799,3.3799,3.3799,3.3799,3.3799,3.3799,3.3799,3.3799,3.3799,3.3799,3.3799,3.3799,3.3399,3.2596,3.1349,2.8644,2.7048,2.6243,2.5065,2.4599,2.4599,2.4599,2.4599,2.4599,2.4599,2.4599,2.4599,2.4599,2.4599,2.4599,2.4599,2.4599,2.4544,2.4248,2.4007,2.3772,2.3475,2.3079,2.2744,2.2744,2.252,2.2296,2.2296,2.2296,2.2296,2.2296,2.2296,2.2296,2.2296,2.2296,2.2296,2.2296,2.2357,2.2393,2.2393,2.2623,2.2811,2.2811,2.3022,2.3191,2.3191,2.3374,2.3491,2.3491,2.3692,2.38,2.38,2.38,2.38,2.38,2.38,2.38,2.38,2.3587,2.3491,2.3491,2.3345,2.3288,2.3288,2.3215,2.3191,3.001,3.0396,3.0918,3.0996,3.1246,3.1723,3.2539,3.2769,3.291,3.3285,3.313,3.2931,3.2864,3.2848,3.2629,3.1974,3.1878,3.193,3.196,3.2001,3.2278,3.3048,0.0,0.0,0.0,0.0,0.0,0.0,3.3799,3.3799,3.3799,3.3799,3.3799,3.3799,3.3799,3.3799,3.3799,3.3799,3.3799,3.3799,3.3799,3.3799,3.3765,3.2281,3.1578,3.142,2.9774,2.7418,2.471,2.4636,2.4599,2.4599,2.4599,2.4599,2.4599,2.4599,2.4599,2.4599,2.4599,2.4599,2.4599,2.4599,2.4599,2.4599,2.4581,2.4044,2.342,2.3401,2.2874,2.2334,2.2334,2.2315,2.2296,2.2296,2.2296,2.2296,2.2296,2.2296,2.2296,2.2296,2.2296,2.2296,2.2296,2.2502,2.269,2.269,2.2908,2.3077,2.3077,2.3261,2.3371,2.3371,2.3631,2.3788,2.3788,2.38,2.38,2.38,2.38,2.38,2.38,2.38,2.38,2.38,2.3788,2.3788,2.3788,2.3764,2.3764,2.3752,2.3511,2.3371,3.0455,3.0589,3.0745,3.1212,3.1677,3.2146,3.2688,3.3008,3.3226,3.3383,3.3118,3.2896,3.2896,3.2549,3.2182,3.1945,3.1942,3.1967,3.1999,3.2443,3.2883,3.3176,0.0,0.0,0.0,0.0,0.0,0.0,0.0,3.3799,3.3799,3.3799,3.3799,3.3799,3.3799,3.3799,3.3799,3.3799,3.3799,3.3799,3.3799,3.3799,3.3782,3.3242,3.1912,3.0004,2.9435,2.8014,2.6005,2.501,2.4599,2.4599,2.4599,2.4599,2.4599,2.4599,2.4599,2.4599,2.4599,2.4599,2.4599,2.4599,2.4599,2.4599,2.4599,2.4396,2.4119,2.3859,2.3401,2.2968,2.2744,2.2483,2.2345,2.2514,2.2702,2.2804,2.2804,2.2538,2.2345,2.2514,2.2569,2.2598,2.2768,2.2896,2.2956,2.2956,2.3147,2.3289,2.3289,2.3499,2.3668,2.3668,2.3752,2.38,2.38,2.38,2.38,2.38,2.38,2.38,2.38,2.38,2.38,2.38,2.38,2.38,2.38,2.38,2.38,2.38,2.3704,2.3668,3.082,3.0889,3.0949,3.1463,3.195,3.2381,3.275,3.3034,3.326,3.3371,3.3118,3.2896,3.2896,3.2455,3.2099,3.2099,3.2127,3.2208,3.2368,3.2864,3.3249,3.3396,3.3634,0.0,0.0,0.0,0.0,0.0,0.0,0.0,3.3799,3.3799,3.3799,3.3799,3.3799,3.3799,3.3799,3.3799,3.3799,3.3799,3.3799,3.3799,3.3782,3.326,3.1895,2.9898,2.8878,2.756,2.6042,2.501,2.4599,2.4599,2.4599,2.4599,2.4599,2.4599,2.4599,2.4599,2.4599,2.4599,2.4599,2.4599,2.4599,2.4599,2.4599,2.4573,2.4504,2.4244,2.3842,2.3436,2.3242,2.2864,2.2611,2.278,2.2968,2.3101,2.3101,2.2823,2.2611,2.2811,2.2835,2.2896,2.3077,2.3155,2.3196,2.3196,2.3386,2.3527,2.3527,2.3692,2.38,2.38,2.38,2.38,2.38,2.38,2.38,2.38,2.38,2.38,2.38,2.38,2.38,2.38,2.38,2.38,2.38,2.38,2.38,2.38,2.38,2.38,0.0,0.0,0.0,3.174,3.2047,3.2399,3.2787,3.2899,3.2975,3.3307,3.3118,3.2899,3.2915,3.2682,3.2509,3.2527,3.2546,3.2677,3.3154,3.3213,3.3359,3.3744,3.3799,0.0,0.0,0.0,0.0,0.0,3.3799,3.3799,3.3799,3.3799,3.3799,3.3799,3.3799,3.3799,3.3799,3.3799,3.3799,3.3799,3.3799,3.3799,3.3765,3.2246,3.1543,3.1332,2.83,2.6097,2.4655,2.4618,2.4599,2.4599,2.4599,2.4599,2.4599,2.4599,2.4599,2.4599,2.4599,2.4613,2.4613,2.4613,2.4613,2.4626,2.4626,2.4584,2.4526,2.4526,2.415,2.3739,2.3719,2.343,2.3133,2.3133,2.3114,2.3126,2.3126,2.3126,2.3126,2.3114,2.3114,2.3114,2.3126,2.3285,2.3407,2.3407,2.3624,2.38,2.38,2.38,2.38,2.38,2.38,2.38,2.38,2.38,2.38,2.38,2.38,2.38,2.38,2.38,2.38,2.38,2.38,2.38,2.38,2.38,2.38,2.38,2.38,2.38,3.1338,0.0,0.0,0.0,0.0,0.0,3.2447,3.2549,3.2629,3.2959,3.2772,3.2724,3.3303,3.2903,3.2695,3.3343,3.3184,3.3039,3.3176,3.3451,3.3671,3.3781,3.3799,0.0,0.0,0.0,0.0,0.0,3.3799,3.3799,3.3799,3.3799,3.3799,3.3799,3.3799,3.3799,3.3799,3.3799,3.3799,3.3799,3.3799,3.3799,3.3799,3.3364,3.2561,3.1384,2.9433,2.7704,2.6188,2.5065,2.4599,2.4599,2.4599,2.4599,2.4599,2.4599,2.4599,2.4599,2.4599,2.4764,2.4957,2.4957,2.5104,2.5258,2.5258,2.5236,2.5156,2.487,2.4674,2.4508,2.4201,2.3985,2.381,2.381,2.3714,2.3603,2.3603,2.3603,2.3543,2.335,2.3326,2.3386,2.3567,2.3643,2.3692,2.3692,2.3764,2.38,2.38,2.38,2.38,2.38,2.38,2.38,2.38,2.38,2.38,2.38,2.38,2.38,2.38,2.38,2.38,2.38,2.38,2.38,2.38,2.38,2.38,2.38,2.38,2.38,0.0,0.0,0.0,0.0,0.0,0.0,3.2358,3.2406,3.2533,3.3007,3.3002,3.3052,3.3508,3.3298,3.3196,3.3716,3.3597,3.3451,3.3451,3.3653,3.3799,3.3799,3.3799,3.3799,0.0,3.3799,3.3799,3.3799,3.3799,3.3799,3.3799,3.3799,3.3799,3.3799,3.3799,3.3799,3.3799,3.3799,3.3799,3.3799,3.3799,3.3799,3.3799,3.3799,3.3312,3.2351,3.0293,2.8901,2.7897,2.5824,2.4826,2.4599,2.4599,2.4698,2.4805,2.4805,2.4885,2.4978,2.4978,2.5098,2.5264,2.5264,2.5371,2.5499,2.5499,2.5598,2.5666,2.5422,2.5321,2.5179,2.4751,2.4572,2.452,2.452,2.4308,2.4092,2.4092,2.394,2.3764,2.3607,2.3571,2.3631,2.3776,2.38,2.38,2.38,2.38,2.38,2.38,2.38,2.38,2.38,2.38,2.38,2.38,2.38,2.38,2.38,2.38,2.38,2.38,2.38,2.38,2.38,2.38,2.38,2.38,2.38,2.38,2.38,2.38,2.38,0.0,0.0,0.0,0.0,0.0,0.0,3.231,3.2294,3.2469,3.316,3.3392,3.352,3.3648,3.3737,3.3809,3.3847,3.3837,3.3799,3.3799,3.3799,3.3799,3.3799,3.3799,3.3799,3.3799,3.3799,3.3799,3.3799,3.3799,3.3799,3.3799,3.3799,3.3799,3.3799,3.3799,3.3799,3.3799,3.3799,3.3799,3.3799,3.3799,3.3818,3.3872,3.3872,3.3891,3.3789,3.0965,2.9772,2.9548,2.6678,2.5192,2.4693,2.4693,2.4871,2.5149,2.5149,2.5291,2.5499,2.5499,2.5512,2.5558,2.5558,2.5585,2.5592,2.5592,2.5818,2.6038,2.6038,2.595,2.5772,2.5349,2.5209,2.517,2.517,2.4871,2.4572,2.4572,2.4252,2.392,2.388,2.384,2.38,2.38,2.38,2.38,2.38,2.38,2.38,2.38,2.38,2.38,2.38,2.38,2.38,2.38,2.38,2.38,2.38,2.38,2.38,2.38,2.38,2.38,2.38,2.38,2.38,2.38,2.38,2.38,2.38,2.38,2.38,0.0,0.0,0.0,0.0,0.0,0.0,3.1651,3.1603,3.1792,3.2515,3.2713,3.3026,3.3987,3.3932,3.3833,3.422,3.4004,3.3799,3.3799,3.3799,3.3799,3.3799,3.3799,3.3799,3.3799,3.3799,3.3799,3.3799,3.3799,3.3799,3.3799,3.3799,3.3799,3.3799,3.3799,3.3799,3.3799,3.3799,3.3799,3.3799,3.3799,3.3964,3.4293,3.4293,3.4459,3.4592,3.1535,3.0172,2.9931,2.6795,2.5419,2.5325,2.5325,2.5352,2.5424,2.5424,2.5464,2.5499,2.5499,2.5684,2.5885,2.5885,2.6045,2.6213,2.6213,2.6272,2.6326,2.6326,2.6307,2.6248,2.6169,2.5911,2.5653,2.5653,2.5309,2.497,2.497,2.4911,2.4751,2.4432,2.4072,2.38,2.38,2.38,2.38,2.38,2.38,2.38,2.38,2.38,2.38,2.38,2.38,2.38,2.38,2.38,2.38,2.38,2.38,2.38,2.38,2.38,2.38,2.38,2.38,2.38,2.38,2.38,2.38,2.38,2.38,2.38,0.0,0.0,0.0,3.2278,0.0,0.0,0.0,3.1801,3.2102,3.2632,3.3089,3.3588,3.4189,3.4161,3.4128,3.435,3.4059,3.3799,3.3799,3.3799,3.3799,3.3799,3.3799,3.3799,3.3799,3.3799,3.3799,3.3799,3.3799,3.3799,3.3799,3.3799,3.3799,3.3799,3.3799,3.3799,3.3799,3.3799,3.3891,3.411,3.411,3.4294,3.4697,3.4697,3.4807,3.4829,3.1795,3.05,3.0272,2.7217,2.5945,2.5919,2.5625,2.5598,2.5751,2.5751,2.5825,2.5945,2.5945,2.6072,2.6192,2.6192,2.6286,2.6406,2.6406,2.6406,2.6406,2.6406,2.6406,2.6406,2.6406,2.6248,2.6109,2.6109,2.5574,2.509,2.509,2.4751,2.4392,2.4192,2.396,2.38,2.38,2.38,2.38,2.38,2.38,2.38,2.38,2.38,2.38,2.38,2.38,2.38,2.38,2.38,2.38,2.38,2.38,2.38,2.38,2.38,2.38,2.38,2.38,2.38,2.38,2.38,2.38,2.38,2.38,2.38,0.0,0.0,0.0,0.0,0.0,3.2086,0.0,0.0,0.0,3.296,3.359,3.4114,3.419,3.4249,3.4265,3.4191,0.0,0.0,0.0,3.3744,0.0,3.3799,3.3799,3.3799,3.3799,3.3799,3.3799,3.3799,3.3799,3.3799,3.3799,3.3799,3.3799,3.3799,3.3799,3.3836,3.3909,3.3927,3.4128,3.4532,3.4532,3.4734,3.5119,3.4794,3.4704,3.4594,3.164,3.0337,3.0159,2.7502,2.6406,2.6346,2.5865,2.5844,2.6078,2.6078,2.6205,2.6406,2.6406,2.6406,2.6406,2.6406,2.6406,2.6406,2.6406,2.6406,2.6406,2.6406,2.6406,2.6406,2.6406,2.6406,2.6406,2.6406,2.5865,2.5329,2.5249,2.4679,2.414,2.396,2.392,2.39,2.3832,2.38,2.38,2.38,2.38,2.38,2.38,2.38,2.38,2.38,2.38,2.38,2.38,2.38,2.38,2.38,2.38,2.38,2.38,2.38,2.38,2.38,2.38,2.38,2.38,2.38,2.38,2.38,2.38,2.38,0.0,0.0,0.0,0.0,3.2863,0.0,0.0,0.0,3.271,3.3094,0.0,0.0,0.0,0.0,0.0,0.0,0.0,0.0,3.3323,3.3579,3.3799,3.3799,3.3799,3.3799,3.3799,3.3799,3.3799,3.3799,3.3799,3.3799,3.3799,3.3799,3.3799,3.3799,3.3799,3.3964,3.433,3.433,3.4532,3.4918,3.4918,3.5156,3.5486,3.4056,3.3601,3.3744,3.0507,2.9109,2.8953,2.7148,2.6406,2.6386,2.6319,2.6326,2.6353,2.6353,2.6379,2.6406,2.6406,2.6406,2.6406,2.6406,2.6406,2.6406,2.6406,2.6406,2.6406,2.6406,2.6406,2.6406,2.6406,2.6406,2.6406,2.6406,2.6307,2.6149,2.5792,2.5634,2.5336,2.4572,2.4412,2.4292,2.386,2.38,2.38,2.38,2.38,2.38,2.38,2.38,2.38,2.38,2.38,2.38,2.38,2.38,2.38,2.38,2.38,2.38,2.38,2.38,2.38,2.38,2.38,2.38,2.38,2.38,2.38,2.38,2.38,2.38,0.0,0.0,0.0,0.0,0.0,0.0,0.0,0.0,3.2993,0.0,0.0,0.0,0.0,0.0,0.0,0.0,3.3689,0.0,0.0,0.0,3.3799,0.0,0.0,0.0,3.3799,0.0,0.0,0.0,3.3799,3.3799,3.3799,3.3799,3.3799,3.3799,3.4037,3.4238,3.4403,3.4624,3.4954,3.5357,3.5357,3.5559,3.5888,3.4294,3.3633,3.3619,3.0334,2.8895,2.8778,2.7083,2.6406,2.6406,2.6406,2.6406,2.6406,2.6406,2.6406,2.6406,2.6406,2.6406,2.6406,2.6406,2.6406,2.6406,2.6406,2.6406,2.6406,2.6406,2.6406,2.6406,2.6406,2.6406,2.6406,2.6406,2.6228,2.601,2.5832,2.5395,2.4951,2.4572,2.4292,2.402,2.382,2.38,2.38,2.38,2.38,2.38,2.38,2.38,2.38,2.38,2.38,2.38,2.38,2.38,2.38,2.38,2.38,2.38,2.38,2.38,2.38,2.38,2.38,2.38,2.38,2.38,2.38,2.38,2.38,2.38,3.3734,0.0,0.0,0.0,0.0,0.0,0.0,0.0,0.0,0.0,0.0,0.0,0.0,0.0,0.0,0.0,0.0,3.3763,0.0,3.3726,0.0,0.0,0.0,0.0,0.0,0.0,0.0,0.0,0.0,3.3799,3.3799,3.3799,3.3836,3.3964,3.4257,3.4513,3.4733,3.5027,3.5376,3.576,3.576,3.5907,3.6145,3.4521,3.3543,3.2956,3.0122,2.8642,2.8129,2.6886,2.6406,2.6406,2.6406,2.6406,2.6406,2.6406,2.6406,2.6406,2.6406,2.6406,2.6406,2.6406,2.6406,2.6406,2.6406,2.6406,2.6406,2.6406,2.6406,2.6406,2.6406,2.6406,2.6406,2.6406,2.6235,2.6049,2.593,2.5475,2.5037,2.4936,2.4534,2.4199,2.4199,2.3977,2.38,2.38,2.38,2.38,2.38,2.38,2.38,2.38,2.38,2.38,2.38,2.38,2.38,2.38,2.38,2.38,2.38,2.38,2.38,2.38,2.38,2.38,2.38,2.38,2.38,2.38,2.38,2.38,0.0,0.0,0.0,3.4652,0.0,0.0,0.0,0.0,3.3781,0.0,0.0,0.0,0.0,0.0,0.0,0.0,0.0,0.0,0.0,0.0,0.0,0.0,0.0,0.0,0.0,3.3799,3.3799,0.0,3.3799,0.0,3.3799,3.3799,3.3964,3.4367,3.4403,3.4771,3.5559,3.5577,3.5779,3.6182,3.6182,3.6201,3.6145,3.4521,3.2918,3.128,2.9619,2.7972,2.6485,2.6426,2.6406,2.6406,2.6406,2.6406,2.6406,2.6406,2.6406,2.6406,2.6406,2.6406,2.6406,2.6406,2.6406,2.6406,2.6406,2.6406,2.6406,2.6406,2.6406,2.6406,2.6406,2.6406,2.6406,2.6406,2.658,2.666,2.6278,2.6379,2.641,2.6034,2.5561,2.5252,2.5252,2.4454,2.38,2.38,2.38,2.38,2.38,2.38,2.38,2.38,2.38,2.38,2.38,2.38,2.38,2.38,2.38,2.38,2.38,2.38,2.38,2.38,2.38,2.38,2.38,2.38,2.38,2.38,2.38,2.38,0.0,0.0,3.5156,3.5156,0.0,0.0,0.0,0.0,0.0,0.0,0.0,0.0,0.0,0.0,0.0,0.0,0.0,0.0,0.0,0.0,0.0,0.0,0.0,0.0,0.0,0.0,0.0,0.0,3.3799,0.0,3.3799,3.3799,3.3982,3.4385,3.4661,3.5064,3.5595,3.5852,3.6072,3.6201,3.6201,3.6201,3.6108,3.3392,3.1835,3.1146,2.8427,2.6925,2.6406,2.6406,2.6406,2.6406,2.6406,2.6406,2.6406,2.6406,2.6406,2.6406,2.6406,2.6406,2.6406,2.6406,2.6406,2.6406,2.6406,2.6406,2.6406,2.6406,2.6533,2.666,2.666,2.6827,2.6994,2.6994,2.7061,2.7101,2.6945,2.676,2.6559,2.6416,2.6059,2.5648,2.5359,2.5026,2.4698,2.438,2.4318,2.4318,2.4318,2.4318,2.4318,2.4318,2.4318,2.4246,2.4077,2.3909,2.38,2.38,2.38,2.38,2.38,2.38,2.38,2.38,2.38,2.38,2.38,2.38,2.38,2.38,2.38,2.38,3.512,3.5374,0.0,3.5605,3.5362,0.0,3.4939,0.0,0.0,0.0,0.0,0.0,0.0,0.0,0.0,0.0,0.0,0.0,0.0,0.0,0.0,0.0,0.0,0.0,0.0,0.0,3.3799,3.3799,3.3799,3.3799,0.0,0.0,3.4202,3.4587,3.5009,3.5412,3.5797,3.6072,3.6201,3.6201,3.6201,3.6201,3.6108,3.3411,3.1855,3.1146,2.8466,2.6945,2.6406,2.6406,2.6406,2.6406,2.6406,2.6406,2.6406,2.6406,2.6406,2.6406,2.6406,2.6406,2.6406,2.6406,2.6406,2.6433,2.6507,2.6547,2.656,2.6687,2.6841,2.6987,2.6987,2.7141,2.7309,2.7309,2.7369,2.7436,2.7436,2.7289,2.7169,2.7169,2.6809,2.6449,2.6137,2.5812,2.5363,2.4702,2.4604,2.4604,2.4604,2.4604,2.4604,2.4604,2.4604,2.4532,2.4363,2.4174,2.4077,2.4077,2.3993,2.3945,2.3945,2.3848,2.38,2.38,2.38,2.38,2.38,2.38,2.38,2.38,2.38,2.38]}]]